<?xml version="1.0" encoding="UTF-8" standalone="no" ?>
<gpx xmlns="http://www.topografix.com/GPX/1/1" xmlns:xsi="http://www.w3.org/2001/XMLSchema-instance" xsi:schemaLocation="http://www.topografix.com/GPX/1/1 http://www.topografix.com/GPX/1/1/gpx.xsd" version="1.1" creator="VisuGPX - https://www.visugpx.com">
  <metadata>
    <name>Rosans La Vanige par Montferrand La Fare et Lemps</name>
    <desc><![CDATA[Rosans Camping des Rosières  La Vanige par Montferrand La Fare et Lemps]]></desc>
  </metadata>
  <trk>
    <name><![CDATA[Rosans La Vanige par Montferrand La Fare et Lemps]]></name>
    <trkseg>
      <trkpt lat="44.38317" lon="5.45905">
        <ele>598.8</ele>
        <time>2019-06-02T07:54:13Z</time>
      </trkpt>
      <trkpt lat="44.38317" lon="5.45905">
        <ele>598.8</ele>
        <time>2019-06-02T07:54:14Z</time>
      </trkpt>
      <trkpt lat="44.38321" lon="5.45917">
        <ele>600.3</ele>
        <time>2019-06-02T08:09:08Z</time>
      </trkpt>
      <trkpt lat="44.3833" lon="5.45923">
        <ele>600.5</ele>
        <time>2019-06-02T08:09:17Z</time>
      </trkpt>
      <trkpt lat="44.38329" lon="5.45936">
        <ele>602.9</ele>
        <time>2019-06-02T08:10:30Z</time>
      </trkpt>
      <trkpt lat="44.38325" lon="5.45947">
        <ele>602.8</ele>
        <time>2019-06-02T08:10:38Z</time>
      </trkpt>
      <trkpt lat="44.38322" lon="5.4596">
        <ele>602.6</ele>
        <time>2019-06-02T08:10:46Z</time>
      </trkpt>
      <trkpt lat="44.38318" lon="5.45971">
        <ele>602.2</ele>
        <time>2019-06-02T08:10:54Z</time>
      </trkpt>
      <trkpt lat="44.38314" lon="5.45983">
        <ele>601.7</ele>
        <time>2019-06-02T08:11:02Z</time>
      </trkpt>
      <trkpt lat="44.38311" lon="5.45995">
        <ele>601.2</ele>
        <time>2019-06-02T08:11:11Z</time>
      </trkpt>
      <trkpt lat="44.38307" lon="5.46008">
        <ele>600.2</ele>
        <time>2019-06-02T08:11:20Z</time>
      </trkpt>
      <trkpt lat="44.38303" lon="5.46021">
        <ele>599.7</ele>
        <time>2019-06-02T08:11:29Z</time>
      </trkpt>
      <trkpt lat="44.38299" lon="5.46033">
        <ele>598.8</ele>
        <time>2019-06-02T08:11:37Z</time>
      </trkpt>
      <trkpt lat="44.38294" lon="5.46045">
        <ele>598</ele>
        <time>2019-06-02T08:11:46Z</time>
      </trkpt>
      <trkpt lat="44.38288" lon="5.46056">
        <ele>597.4</ele>
        <time>2019-06-02T08:11:55Z</time>
      </trkpt>
      <trkpt lat="44.38283" lon="5.46066">
        <ele>596.8</ele>
        <time>2019-06-02T08:12:04Z</time>
      </trkpt>
      <trkpt lat="44.38276" lon="5.46077">
        <ele>595.8</ele>
        <time>2019-06-02T08:12:13Z</time>
      </trkpt>
      <trkpt lat="44.3827" lon="5.46087">
        <ele>595</ele>
        <time>2019-06-02T08:12:21Z</time>
      </trkpt>
      <trkpt lat="44.38264" lon="5.46097">
        <ele>594</ele>
        <time>2019-06-02T08:12:29Z</time>
      </trkpt>
      <trkpt lat="44.38259" lon="5.46108">
        <ele>593.6</ele>
        <time>2019-06-02T08:12:37Z</time>
      </trkpt>
      <trkpt lat="44.38255" lon="5.4612">
        <ele>593.1</ele>
        <time>2019-06-02T08:12:45Z</time>
      </trkpt>
      <trkpt lat="44.38255" lon="5.46133">
        <ele>592.4</ele>
        <time>2019-06-02T08:12:53Z</time>
      </trkpt>
      <trkpt lat="44.38255" lon="5.46147">
        <ele>591.8</ele>
        <time>2019-06-02T08:13:03Z</time>
      </trkpt>
      <trkpt lat="44.38255" lon="5.46159">
        <ele>591.4</ele>
        <time>2019-06-02T08:13:11Z</time>
      </trkpt>
      <trkpt lat="44.38254" lon="5.46173">
        <ele>591.2</ele>
        <time>2019-06-02T08:13:20Z</time>
      </trkpt>
      <trkpt lat="44.38253" lon="5.46187">
        <ele>591</ele>
        <time>2019-06-02T08:13:28Z</time>
      </trkpt>
      <trkpt lat="44.38251" lon="5.462">
        <ele>590.8</ele>
        <time>2019-06-02T08:13:37Z</time>
      </trkpt>
      <trkpt lat="44.38247" lon="5.46212">
        <ele>590.7</ele>
        <time>2019-06-02T08:13:45Z</time>
      </trkpt>
      <trkpt lat="44.38241" lon="5.46223">
        <ele>590.8</ele>
        <time>2019-06-02T08:13:53Z</time>
      </trkpt>
      <trkpt lat="44.38237" lon="5.46235">
        <ele>590.5</ele>
        <time>2019-06-02T08:15:25Z</time>
      </trkpt>
      <trkpt lat="44.38231" lon="5.46245">
        <ele>590.4</ele>
        <time>2019-06-02T08:15:32Z</time>
      </trkpt>
      <trkpt lat="44.38224" lon="5.46255">
        <ele>590.4</ele>
        <time>2019-06-02T08:15:40Z</time>
      </trkpt>
      <trkpt lat="44.38216" lon="5.46263">
        <ele>590.7</ele>
        <time>2019-06-02T08:15:46Z</time>
      </trkpt>
      <trkpt lat="44.38208" lon="5.46269">
        <ele>590.9</ele>
        <time>2019-06-02T08:15:52Z</time>
      </trkpt>
      <trkpt lat="44.382" lon="5.46276">
        <ele>591.2</ele>
        <time>2019-06-02T08:16:00Z</time>
      </trkpt>
      <trkpt lat="44.38193" lon="5.46284">
        <ele>591.4</ele>
        <time>2019-06-02T08:16:13Z</time>
      </trkpt>
      <trkpt lat="44.38187" lon="5.46295">
        <ele>592</ele>
        <time>2019-06-02T08:16:22Z</time>
      </trkpt>
      <trkpt lat="44.38183" lon="5.46306">
        <ele>592.3</ele>
        <time>2019-06-02T08:16:29Z</time>
      </trkpt>
      <trkpt lat="44.3818" lon="5.46318">
        <ele>592.3</ele>
        <time>2019-06-02T08:16:36Z</time>
      </trkpt>
      <trkpt lat="44.38177" lon="5.46331">
        <ele>592.2</ele>
        <time>2019-06-02T08:16:44Z</time>
      </trkpt>
      <trkpt lat="44.38168" lon="5.46334">
        <ele>592.5</ele>
        <time>2019-06-02T08:16:55Z</time>
      </trkpt>
      <trkpt lat="44.3816" lon="5.46328">
        <ele>592.6</ele>
        <time>2019-06-02T08:17:01Z</time>
      </trkpt>
      <trkpt lat="44.38151" lon="5.46321">
        <ele>592.3</ele>
        <time>2019-06-02T08:17:09Z</time>
      </trkpt>
      <trkpt lat="44.38143" lon="5.46314">
        <ele>592.3</ele>
        <time>2019-06-02T08:17:16Z</time>
      </trkpt>
      <trkpt lat="44.38136" lon="5.46306">
        <ele>592.3</ele>
        <time>2019-06-02T08:17:23Z</time>
      </trkpt>
      <trkpt lat="44.38128" lon="5.46297">
        <ele>592.3</ele>
        <time>2019-06-02T08:17:31Z</time>
      </trkpt>
      <trkpt lat="44.3812" lon="5.46289">
        <ele>592.3</ele>
        <time>2019-06-02T08:17:39Z</time>
      </trkpt>
      <trkpt lat="44.38113" lon="5.46282">
        <ele>592.2</ele>
        <time>2019-06-02T08:17:46Z</time>
      </trkpt>
      <trkpt lat="44.38105" lon="5.46273">
        <ele>591.9</ele>
        <time>2019-06-02T08:17:52Z</time>
      </trkpt>
      <trkpt lat="44.38098" lon="5.46264">
        <ele>591.6</ele>
        <time>2019-06-02T08:18:00Z</time>
      </trkpt>
      <trkpt lat="44.38091" lon="5.46254">
        <ele>591.3</ele>
        <time>2019-06-02T08:18:08Z</time>
      </trkpt>
      <trkpt lat="44.38083" lon="5.46246">
        <ele>590.7</ele>
        <time>2019-06-02T08:18:15Z</time>
      </trkpt>
      <trkpt lat="44.38075" lon="5.46238">
        <ele>590.4</ele>
        <time>2019-06-02T08:18:22Z</time>
      </trkpt>
      <trkpt lat="44.38067" lon="5.46231">
        <ele>589.8</ele>
        <time>2019-06-02T08:18:30Z</time>
      </trkpt>
      <trkpt lat="44.38058" lon="5.46226">
        <ele>589</ele>
        <time>2019-06-02T08:18:38Z</time>
      </trkpt>
      <trkpt lat="44.3805" lon="5.46221">
        <ele>588.5</ele>
        <time>2019-06-02T08:18:45Z</time>
      </trkpt>
      <trkpt lat="44.38042" lon="5.46213">
        <ele>588.3</ele>
        <time>2019-06-02T08:18:54Z</time>
      </trkpt>
      <trkpt lat="44.38034" lon="5.46205">
        <ele>588.1</ele>
        <time>2019-06-02T08:19:01Z</time>
      </trkpt>
      <trkpt lat="44.38026" lon="5.46199">
        <ele>588</ele>
        <time>2019-06-02T08:19:11Z</time>
      </trkpt>
      <trkpt lat="44.38018" lon="5.46191">
        <ele>588</ele>
        <time>2019-06-02T08:19:18Z</time>
      </trkpt>
      <trkpt lat="44.38009" lon="5.46185">
        <ele>587.8</ele>
        <time>2019-06-02T08:19:24Z</time>
      </trkpt>
      <trkpt lat="44.37999" lon="5.4618">
        <ele>587.4</ele>
        <time>2019-06-02T08:19:30Z</time>
      </trkpt>
      <trkpt lat="44.37989" lon="5.46177">
        <ele>587.2</ele>
        <time>2019-06-02T08:19:37Z</time>
      </trkpt>
      <trkpt lat="44.3798" lon="5.46175">
        <ele>587</ele>
        <time>2019-06-02T08:19:44Z</time>
      </trkpt>
      <trkpt lat="44.37971" lon="5.46174">
        <ele>586.7</ele>
        <time>2019-06-02T08:19:52Z</time>
      </trkpt>
      <trkpt lat="44.3796" lon="5.46173">
        <ele>586.5</ele>
        <time>2019-06-02T08:20:00Z</time>
      </trkpt>
      <trkpt lat="44.37951" lon="5.46172">
        <ele>586.1</ele>
        <time>2019-06-02T08:20:07Z</time>
      </trkpt>
      <trkpt lat="44.37942" lon="5.46169">
        <ele>585.8</ele>
        <time>2019-06-02T08:20:14Z</time>
      </trkpt>
      <trkpt lat="44.37934" lon="5.4616">
        <ele>585.6</ele>
        <time>2019-06-02T08:20:22Z</time>
      </trkpt>
      <trkpt lat="44.37928" lon="5.46148">
        <ele>585.4</ele>
        <time>2019-06-02T08:20:30Z</time>
      </trkpt>
      <trkpt lat="44.37922" lon="5.46137">
        <ele>585.2</ele>
        <time>2019-06-02T08:20:38Z</time>
      </trkpt>
      <trkpt lat="44.37915" lon="5.46128">
        <ele>585.5</ele>
        <time>2019-06-02T08:20:45Z</time>
      </trkpt>
      <trkpt lat="44.37909" lon="5.46118">
        <ele>585.7</ele>
        <time>2019-06-02T08:20:53Z</time>
      </trkpt>
      <trkpt lat="44.37901" lon="5.46112">
        <ele>586.1</ele>
        <time>2019-06-02T08:21:01Z</time>
      </trkpt>
      <trkpt lat="44.3789" lon="5.46112">
        <ele>587</ele>
        <time>2019-06-02T08:21:27Z</time>
      </trkpt>
      <trkpt lat="44.3788" lon="5.46113">
        <ele>587</ele>
        <time>2019-06-02T08:21:34Z</time>
      </trkpt>
      <trkpt lat="44.3787" lon="5.46113">
        <ele>587</ele>
        <time>2019-06-02T08:21:42Z</time>
      </trkpt>
      <trkpt lat="44.3786" lon="5.46112">
        <ele>587</ele>
        <time>2019-06-02T08:21:50Z</time>
      </trkpt>
      <trkpt lat="44.37851" lon="5.46111">
        <ele>587</ele>
        <time>2019-06-02T08:21:57Z</time>
      </trkpt>
      <trkpt lat="44.37841" lon="5.46111">
        <ele>587.1</ele>
        <time>2019-06-02T08:22:04Z</time>
      </trkpt>
      <trkpt lat="44.37831" lon="5.46113">
        <ele>587</ele>
        <time>2019-06-02T08:22:11Z</time>
      </trkpt>
      <trkpt lat="44.37823" lon="5.46115">
        <ele>586.8</ele>
        <time>2019-06-02T08:22:18Z</time>
      </trkpt>
      <trkpt lat="44.37813" lon="5.46119">
        <ele>586.7</ele>
        <time>2019-06-02T08:22:25Z</time>
      </trkpt>
      <trkpt lat="44.37804" lon="5.46124">
        <ele>586.4</ele>
        <time>2019-06-02T08:22:33Z</time>
      </trkpt>
      <trkpt lat="44.37794" lon="5.46128">
        <ele>586.3</ele>
        <time>2019-06-02T08:22:41Z</time>
      </trkpt>
      <trkpt lat="44.37784" lon="5.46131">
        <ele>586.7</ele>
        <time>2019-06-02T08:22:49Z</time>
      </trkpt>
      <trkpt lat="44.37775" lon="5.46131">
        <ele>587.2</ele>
        <time>2019-06-02T08:22:56Z</time>
      </trkpt>
      <trkpt lat="44.37766" lon="5.46129">
        <ele>587.4</ele>
        <time>2019-06-02T08:23:03Z</time>
      </trkpt>
      <trkpt lat="44.37757" lon="5.46125">
        <ele>587.6</ele>
        <time>2019-06-02T08:23:10Z</time>
      </trkpt>
      <trkpt lat="44.37749" lon="5.46121">
        <ele>587.7</ele>
        <time>2019-06-02T08:23:17Z</time>
      </trkpt>
      <trkpt lat="44.3774" lon="5.46116">
        <ele>587.3</ele>
        <time>2019-06-02T08:23:24Z</time>
      </trkpt>
      <trkpt lat="44.37731" lon="5.46112">
        <ele>587</ele>
        <time>2019-06-02T08:23:31Z</time>
      </trkpt>
      <trkpt lat="44.37723" lon="5.46109">
        <ele>586.8</ele>
        <time>2019-06-02T08:23:38Z</time>
      </trkpt>
      <trkpt lat="44.37714" lon="5.46105">
        <ele>586.6</ele>
        <time>2019-06-02T08:23:45Z</time>
      </trkpt>
      <trkpt lat="44.37705" lon="5.46103">
        <ele>586.1</ele>
        <time>2019-06-02T08:23:52Z</time>
      </trkpt>
      <trkpt lat="44.37695" lon="5.461">
        <ele>585.6</ele>
        <time>2019-06-02T08:23:59Z</time>
      </trkpt>
      <trkpt lat="44.37686" lon="5.46098">
        <ele>585.2</ele>
        <time>2019-06-02T08:24:06Z</time>
      </trkpt>
      <trkpt lat="44.37677" lon="5.46096">
        <ele>585</ele>
        <time>2019-06-02T08:24:13Z</time>
      </trkpt>
      <trkpt lat="44.37668" lon="5.46094">
        <ele>584.6</ele>
        <time>2019-06-02T08:24:20Z</time>
      </trkpt>
      <trkpt lat="44.3766" lon="5.46086">
        <ele>584.2</ele>
        <time>2019-06-02T08:24:28Z</time>
      </trkpt>
      <trkpt lat="44.37653" lon="5.46076">
        <ele>584</ele>
        <time>2019-06-02T08:24:36Z</time>
      </trkpt>
      <trkpt lat="44.37647" lon="5.46067">
        <ele>583.9</ele>
        <time>2019-06-02T08:24:43Z</time>
      </trkpt>
      <trkpt lat="44.37639" lon="5.4606">
        <ele>583.8</ele>
        <time>2019-06-02T08:24:50Z</time>
      </trkpt>
      <trkpt lat="44.37631" lon="5.46053">
        <ele>583.7</ele>
        <time>2019-06-02T08:24:57Z</time>
      </trkpt>
      <trkpt lat="44.37623" lon="5.46048">
        <ele>583.8</ele>
        <time>2019-06-02T08:25:04Z</time>
      </trkpt>
      <trkpt lat="44.37613" lon="5.46043">
        <ele>583.8</ele>
        <time>2019-06-02T08:25:12Z</time>
      </trkpt>
      <trkpt lat="44.37603" lon="5.46039">
        <ele>583.8</ele>
        <time>2019-06-02T08:25:20Z</time>
      </trkpt>
      <trkpt lat="44.37594" lon="5.46036">
        <ele>583.8</ele>
        <time>2019-06-02T08:25:27Z</time>
      </trkpt>
      <trkpt lat="44.37586" lon="5.4603">
        <ele>583.6</ele>
        <time>2019-06-02T08:25:35Z</time>
      </trkpt>
      <trkpt lat="44.37576" lon="5.46026">
        <ele>583.4</ele>
        <time>2019-06-02T08:25:43Z</time>
      </trkpt>
      <trkpt lat="44.37568" lon="5.46021">
        <ele>583.2</ele>
        <time>2019-06-02T08:25:50Z</time>
      </trkpt>
      <trkpt lat="44.37558" lon="5.46017">
        <ele>583</ele>
        <time>2019-06-02T08:25:58Z</time>
      </trkpt>
      <trkpt lat="44.37549" lon="5.46011">
        <ele>582.9</ele>
        <time>2019-06-02T08:26:06Z</time>
      </trkpt>
      <trkpt lat="44.37541" lon="5.46004">
        <ele>582.9</ele>
        <time>2019-06-02T08:26:14Z</time>
      </trkpt>
      <trkpt lat="44.37537" lon="5.45993">
        <ele>582.9</ele>
        <time>2019-06-02T08:26:22Z</time>
      </trkpt>
      <trkpt lat="44.37535" lon="5.45979">
        <ele>583.3</ele>
        <time>2019-06-02T08:26:31Z</time>
      </trkpt>
      <trkpt lat="44.3753" lon="5.45968">
        <ele>583.7</ele>
        <time>2019-06-02T08:26:39Z</time>
      </trkpt>
      <trkpt lat="44.37523" lon="5.45959">
        <ele>583.7</ele>
        <time>2019-06-02T08:26:48Z</time>
      </trkpt>
      <trkpt lat="44.37513" lon="5.45954">
        <ele>583.7</ele>
        <time>2019-06-02T08:26:56Z</time>
      </trkpt>
      <trkpt lat="44.37505" lon="5.45946">
        <ele>583.8</ele>
        <time>2019-06-02T08:27:05Z</time>
      </trkpt>
      <trkpt lat="44.37496" lon="5.45938">
        <ele>583.8</ele>
        <time>2019-06-02T08:27:13Z</time>
      </trkpt>
      <trkpt lat="44.37488" lon="5.45931">
        <ele>583.6</ele>
        <time>2019-06-02T08:27:21Z</time>
      </trkpt>
      <trkpt lat="44.3748" lon="5.45923">
        <ele>583.4</ele>
        <time>2019-06-02T08:27:29Z</time>
      </trkpt>
      <trkpt lat="44.37472" lon="5.45916">
        <ele>582.9</ele>
        <time>2019-06-02T08:27:36Z</time>
      </trkpt>
      <trkpt lat="44.37463" lon="5.4591">
        <ele>582.5</ele>
        <time>2019-06-02T08:27:44Z</time>
      </trkpt>
      <trkpt lat="44.37455" lon="5.45903">
        <ele>582.3</ele>
        <time>2019-06-02T08:27:51Z</time>
      </trkpt>
      <trkpt lat="44.37447" lon="5.45897">
        <ele>581.8</ele>
        <time>2019-06-02T08:27:59Z</time>
      </trkpt>
      <trkpt lat="44.37438" lon="5.45889">
        <ele>581</ele>
        <time>2019-06-02T08:28:08Z</time>
      </trkpt>
      <trkpt lat="44.3743" lon="5.45881">
        <ele>580.6</ele>
        <time>2019-06-02T08:28:16Z</time>
      </trkpt>
      <trkpt lat="44.37422" lon="5.45875">
        <ele>580.5</ele>
        <time>2019-06-02T08:28:23Z</time>
      </trkpt>
      <trkpt lat="44.37413" lon="5.45869">
        <ele>580.1</ele>
        <time>2019-06-02T08:28:30Z</time>
      </trkpt>
      <trkpt lat="44.37404" lon="5.45863">
        <ele>579.3</ele>
        <time>2019-06-02T08:28:38Z</time>
      </trkpt>
      <trkpt lat="44.37395" lon="5.4586">
        <ele>578.7</ele>
        <time>2019-06-02T08:28:45Z</time>
      </trkpt>
      <trkpt lat="44.37386" lon="5.45856">
        <ele>578.1</ele>
        <time>2019-06-02T08:28:52Z</time>
      </trkpt>
      <trkpt lat="44.37377" lon="5.45853">
        <ele>577.4</ele>
        <time>2019-06-02T08:28:59Z</time>
      </trkpt>
      <trkpt lat="44.37367" lon="5.45852">
        <ele>576.9</ele>
        <time>2019-06-02T08:29:06Z</time>
      </trkpt>
      <trkpt lat="44.37359" lon="5.45848">
        <ele>576.6</ele>
        <time>2019-06-02T08:29:13Z</time>
      </trkpt>
      <trkpt lat="44.3735" lon="5.45843">
        <ele>576.2</ele>
        <time>2019-06-02T08:29:20Z</time>
      </trkpt>
      <trkpt lat="44.37341" lon="5.45837">
        <ele>575.9</ele>
        <time>2019-06-02T08:29:28Z</time>
      </trkpt>
      <trkpt lat="44.37333" lon="5.45831">
        <ele>575.3</ele>
        <time>2019-06-02T08:29:35Z</time>
      </trkpt>
      <trkpt lat="44.37325" lon="5.45824">
        <ele>574.7</ele>
        <time>2019-06-02T08:29:42Z</time>
      </trkpt>
      <trkpt lat="44.37315" lon="5.45821">
        <ele>574</ele>
        <time>2019-06-02T08:29:49Z</time>
      </trkpt>
      <trkpt lat="44.37306" lon="5.45823">
        <ele>573.7</ele>
        <time>2019-06-02T08:29:56Z</time>
      </trkpt>
      <trkpt lat="44.37299" lon="5.45833">
        <ele>573.5</ele>
        <time>2019-06-02T08:30:03Z</time>
      </trkpt>
      <trkpt lat="44.37297" lon="5.45846">
        <ele>573.4</ele>
        <time>2019-06-02T08:30:10Z</time>
      </trkpt>
      <trkpt lat="44.37296" lon="5.45859">
        <ele>573.3</ele>
        <time>2019-06-02T08:30:17Z</time>
      </trkpt>
      <trkpt lat="44.37295" lon="5.45873">
        <ele>573.3</ele>
        <time>2019-06-02T08:30:24Z</time>
      </trkpt>
      <trkpt lat="44.37294" lon="5.45887">
        <ele>573.6</ele>
        <time>2019-06-02T08:30:31Z</time>
      </trkpt>
      <trkpt lat="44.37293" lon="5.45901">
        <ele>573.9</ele>
        <time>2019-06-02T08:30:38Z</time>
      </trkpt>
      <trkpt lat="44.37292" lon="5.45914">
        <ele>574.1</ele>
        <time>2019-06-02T08:30:45Z</time>
      </trkpt>
      <trkpt lat="44.3729" lon="5.45927">
        <ele>574</ele>
        <time>2019-06-02T08:32:20Z</time>
      </trkpt>
      <trkpt lat="44.37288" lon="5.4594">
        <ele>574.2</ele>
        <time>2019-06-02T08:32:27Z</time>
      </trkpt>
      <trkpt lat="44.37286" lon="5.45954">
        <ele>574.4</ele>
        <time>2019-06-02T08:32:34Z</time>
      </trkpt>
      <trkpt lat="44.37283" lon="5.45967">
        <ele>574.2</ele>
        <time>2019-06-02T08:32:41Z</time>
      </trkpt>
      <trkpt lat="44.3728" lon="5.4598">
        <ele>574.2</ele>
        <time>2019-06-02T08:32:48Z</time>
      </trkpt>
      <trkpt lat="44.37275" lon="5.45993">
        <ele>574</ele>
        <time>2019-06-02T08:32:55Z</time>
      </trkpt>
      <trkpt lat="44.3727" lon="5.46005">
        <ele>573.8</ele>
        <time>2019-06-02T08:33:02Z</time>
      </trkpt>
      <trkpt lat="44.37264" lon="5.46017">
        <ele>573.7</ele>
        <time>2019-06-02T08:33:09Z</time>
      </trkpt>
      <trkpt lat="44.37259" lon="5.46029">
        <ele>573.3</ele>
        <time>2019-06-02T08:33:16Z</time>
      </trkpt>
      <trkpt lat="44.37254" lon="5.46041">
        <ele>572.4</ele>
        <time>2019-06-02T08:33:23Z</time>
      </trkpt>
      <trkpt lat="44.37251" lon="5.46055">
        <ele>571.6</ele>
        <time>2019-06-02T08:33:30Z</time>
      </trkpt>
      <trkpt lat="44.3725" lon="5.46069">
        <ele>570.7</ele>
        <time>2019-06-02T08:33:37Z</time>
      </trkpt>
      <trkpt lat="44.37248" lon="5.46083">
        <ele>569.7</ele>
        <time>2019-06-02T08:33:44Z</time>
      </trkpt>
      <trkpt lat="44.37244" lon="5.46096">
        <ele>569</ele>
        <time>2019-06-02T08:33:51Z</time>
      </trkpt>
      <trkpt lat="44.37239" lon="5.46108">
        <ele>568.5</ele>
        <time>2019-06-02T08:33:58Z</time>
      </trkpt>
      <trkpt lat="44.37233" lon="5.46118">
        <ele>568.1</ele>
        <time>2019-06-02T08:34:04Z</time>
      </trkpt>
      <trkpt lat="44.37227" lon="5.46128">
        <ele>567.9</ele>
        <time>2019-06-02T08:34:10Z</time>
      </trkpt>
      <trkpt lat="44.37221" lon="5.46138">
        <ele>567.7</ele>
        <time>2019-06-02T08:34:17Z</time>
      </trkpt>
      <trkpt lat="44.37214" lon="5.46148">
        <ele>567.4</ele>
        <time>2019-06-02T08:34:25Z</time>
      </trkpt>
      <trkpt lat="44.37208" lon="5.46159">
        <ele>567.5</ele>
        <time>2019-06-02T08:34:33Z</time>
      </trkpt>
      <trkpt lat="44.37202" lon="5.4617">
        <ele>567.6</ele>
        <time>2019-06-02T08:34:39Z</time>
      </trkpt>
      <trkpt lat="44.37195" lon="5.46179">
        <ele>567.7</ele>
        <time>2019-06-02T08:34:45Z</time>
      </trkpt>
      <trkpt lat="44.37187" lon="5.46186">
        <ele>567.6</ele>
        <time>2019-06-02T08:34:51Z</time>
      </trkpt>
      <trkpt lat="44.37179" lon="5.46194">
        <ele>568.1</ele>
        <time>2019-06-02T08:34:57Z</time>
      </trkpt>
      <trkpt lat="44.37171" lon="5.46202">
        <ele>568.2</ele>
        <time>2019-06-02T08:35:04Z</time>
      </trkpt>
      <trkpt lat="44.37164" lon="5.4621">
        <ele>568.1</ele>
        <time>2019-06-02T08:35:10Z</time>
      </trkpt>
      <trkpt lat="44.37157" lon="5.46219">
        <ele>567.7</ele>
        <time>2019-06-02T08:35:16Z</time>
      </trkpt>
      <trkpt lat="44.3715" lon="5.46229">
        <ele>567.4</ele>
        <time>2019-06-02T08:35:23Z</time>
      </trkpt>
      <trkpt lat="44.37144" lon="5.46239">
        <ele>567</ele>
        <time>2019-06-02T08:35:29Z</time>
      </trkpt>
      <trkpt lat="44.37137" lon="5.46249">
        <ele>566.9</ele>
        <time>2019-06-02T08:35:35Z</time>
      </trkpt>
      <trkpt lat="44.37131" lon="5.4626">
        <ele>566.8</ele>
        <time>2019-06-02T08:35:41Z</time>
      </trkpt>
      <trkpt lat="44.37126" lon="5.4627">
        <ele>566.5</ele>
        <time>2019-06-02T08:35:47Z</time>
      </trkpt>
      <trkpt lat="44.3712" lon="5.4628">
        <ele>566.5</ele>
        <time>2019-06-02T08:35:53Z</time>
      </trkpt>
      <trkpt lat="44.37115" lon="5.46291">
        <ele>566.9</ele>
        <time>2019-06-02T08:35:59Z</time>
      </trkpt>
      <trkpt lat="44.37109" lon="5.46301">
        <ele>567.1</ele>
        <time>2019-06-02T08:36:05Z</time>
      </trkpt>
      <trkpt lat="44.37105" lon="5.46312">
        <ele>567.2</ele>
        <time>2019-06-02T08:36:11Z</time>
      </trkpt>
      <trkpt lat="44.37099" lon="5.46322">
        <ele>567.2</ele>
        <time>2019-06-02T08:36:17Z</time>
      </trkpt>
      <trkpt lat="44.37094" lon="5.46334">
        <ele>567.1</ele>
        <time>2019-06-02T08:36:24Z</time>
      </trkpt>
      <trkpt lat="44.37088" lon="5.46346">
        <ele>567</ele>
        <time>2019-06-02T08:36:32Z</time>
      </trkpt>
      <trkpt lat="44.37082" lon="5.46358">
        <ele>566.8</ele>
        <time>2019-06-02T08:36:39Z</time>
      </trkpt>
      <trkpt lat="44.37078" lon="5.46369">
        <ele>566.8</ele>
        <time>2019-06-02T08:36:45Z</time>
      </trkpt>
      <trkpt lat="44.37073" lon="5.46381">
        <ele>566.9</ele>
        <time>2019-06-02T08:36:51Z</time>
      </trkpt>
      <trkpt lat="44.37067" lon="5.46393">
        <ele>566.9</ele>
        <time>2019-06-02T08:36:58Z</time>
      </trkpt>
      <trkpt lat="44.37062" lon="5.46405">
        <ele>566.9</ele>
        <time>2019-06-02T08:37:04Z</time>
      </trkpt>
      <trkpt lat="44.37057" lon="5.46416">
        <ele>566.9</ele>
        <time>2019-06-02T08:37:10Z</time>
      </trkpt>
      <trkpt lat="44.37052" lon="5.46427">
        <ele>567</ele>
        <time>2019-06-02T08:37:16Z</time>
      </trkpt>
      <trkpt lat="44.37048" lon="5.46438">
        <ele>567</ele>
        <time>2019-06-02T08:37:22Z</time>
      </trkpt>
      <trkpt lat="44.37043" lon="5.4645">
        <ele>567</ele>
        <time>2019-06-02T08:37:28Z</time>
      </trkpt>
      <trkpt lat="44.37038" lon="5.46461">
        <ele>567.1</ele>
        <time>2019-06-02T08:37:34Z</time>
      </trkpt>
      <trkpt lat="44.37033" lon="5.46472">
        <ele>567.1</ele>
        <time>2019-06-02T08:37:40Z</time>
      </trkpt>
      <trkpt lat="44.37027" lon="5.46484">
        <ele>567.3</ele>
        <time>2019-06-02T08:37:47Z</time>
      </trkpt>
      <trkpt lat="44.37018" lon="5.46488">
        <ele>567.5</ele>
        <time>2019-06-02T08:37:54Z</time>
      </trkpt>
      <trkpt lat="44.37009" lon="5.46483">
        <ele>567.7</ele>
        <time>2019-06-02T08:38:01Z</time>
      </trkpt>
      <trkpt lat="44.37001" lon="5.46476">
        <ele>567.8</ele>
        <time>2019-06-02T08:38:08Z</time>
      </trkpt>
      <trkpt lat="44.36992" lon="5.46467">
        <ele>567</ele>
        <time>2019-06-02T08:38:15Z</time>
      </trkpt>
      <trkpt lat="44.36984" lon="5.46459">
        <ele>568.2</ele>
        <time>2019-06-02T08:38:22Z</time>
      </trkpt>
      <trkpt lat="44.36976" lon="5.46451">
        <ele>568</ele>
        <time>2019-06-02T08:38:28Z</time>
      </trkpt>
      <trkpt lat="44.36969" lon="5.46443">
        <ele>568.2</ele>
        <time>2019-06-02T08:38:34Z</time>
      </trkpt>
      <trkpt lat="44.36962" lon="5.46435">
        <ele>568.3</ele>
        <time>2019-06-02T08:38:40Z</time>
      </trkpt>
      <trkpt lat="44.36955" lon="5.46427">
        <ele>568.2</ele>
        <time>2019-06-02T08:38:46Z</time>
      </trkpt>
      <trkpt lat="44.36947" lon="5.46416">
        <ele>567</ele>
        <time>2019-06-02T08:38:55Z</time>
      </trkpt>
      <trkpt lat="44.36938" lon="5.46406">
        <ele>567</ele>
        <time>2019-06-02T08:39:03Z</time>
      </trkpt>
      <trkpt lat="44.3693" lon="5.46398">
        <ele>567.7</ele>
        <time>2019-06-02T08:39:08Z</time>
      </trkpt>
      <trkpt lat="44.36922" lon="5.4639">
        <ele>567.7</ele>
        <time>2019-06-02T08:39:14Z</time>
      </trkpt>
      <trkpt lat="44.36914" lon="5.46382">
        <ele>567.7</ele>
        <time>2019-06-02T08:39:20Z</time>
      </trkpt>
      <trkpt lat="44.36906" lon="5.46373">
        <ele>567.4</ele>
        <time>2019-06-02T08:39:27Z</time>
      </trkpt>
      <trkpt lat="44.36898" lon="5.46364">
        <ele>567.3</ele>
        <time>2019-06-02T08:39:34Z</time>
      </trkpt>
      <trkpt lat="44.36891" lon="5.46356">
        <ele>567.2</ele>
        <time>2019-06-02T08:39:40Z</time>
      </trkpt>
      <trkpt lat="44.36884" lon="5.46348">
        <ele>567.2</ele>
        <time>2019-06-02T08:39:46Z</time>
      </trkpt>
      <trkpt lat="44.36877" lon="5.46339">
        <ele>567.3</ele>
        <time>2019-06-02T08:39:52Z</time>
      </trkpt>
      <trkpt lat="44.36869" lon="5.46329">
        <ele>567.3</ele>
        <time>2019-06-02T08:39:59Z</time>
      </trkpt>
      <trkpt lat="44.36863" lon="5.46319">
        <ele>567.2</ele>
        <time>2019-06-02T08:40:06Z</time>
      </trkpt>
      <trkpt lat="44.36858" lon="5.46307">
        <ele>567.1</ele>
        <time>2019-06-02T08:40:13Z</time>
      </trkpt>
      <trkpt lat="44.36852" lon="5.46296">
        <ele>567.2</ele>
        <time>2019-06-02T08:40:19Z</time>
      </trkpt>
      <trkpt lat="44.36848" lon="5.46283">
        <ele>567.2</ele>
        <time>2019-06-02T08:40:26Z</time>
      </trkpt>
      <trkpt lat="44.36844" lon="5.4627">
        <ele>567.2</ele>
        <time>2019-06-02T08:40:33Z</time>
      </trkpt>
      <trkpt lat="44.36842" lon="5.46256">
        <ele>567.3</ele>
        <time>2019-06-02T08:40:40Z</time>
      </trkpt>
      <trkpt lat="44.3684" lon="5.46243">
        <ele>567.4</ele>
        <time>2019-06-02T08:40:47Z</time>
      </trkpt>
      <trkpt lat="44.36839" lon="5.46229">
        <ele>567.3</ele>
        <time>2019-06-02T08:40:54Z</time>
      </trkpt>
      <trkpt lat="44.36836" lon="5.46215">
        <ele>567.1</ele>
        <time>2019-06-02T08:41:01Z</time>
      </trkpt>
      <trkpt lat="44.36834" lon="5.462">
        <ele>567.2</ele>
        <time>2019-06-02T08:41:08Z</time>
      </trkpt>
      <trkpt lat="44.36833" lon="5.46188">
        <ele>567</ele>
        <time>2019-06-02T08:41:14Z</time>
      </trkpt>
      <trkpt lat="44.3683" lon="5.46174">
        <ele>566.9</ele>
        <time>2019-06-02T08:41:21Z</time>
      </trkpt>
      <trkpt lat="44.36826" lon="5.46162">
        <ele>566.9</ele>
        <time>2019-06-02T08:41:27Z</time>
      </trkpt>
      <trkpt lat="44.3682" lon="5.46152">
        <ele>566.8</ele>
        <time>2019-06-02T08:41:34Z</time>
      </trkpt>
      <trkpt lat="44.36813" lon="5.46142">
        <ele>566.7</ele>
        <time>2019-06-02T08:41:42Z</time>
      </trkpt>
      <trkpt lat="44.36805" lon="5.46133">
        <ele>566.8</ele>
        <time>2019-06-02T08:41:49Z</time>
      </trkpt>
      <trkpt lat="44.36798" lon="5.46124">
        <ele>567.3</ele>
        <time>2019-06-02T08:41:55Z</time>
      </trkpt>
      <trkpt lat="44.36791" lon="5.46116">
        <ele>567.5</ele>
        <time>2019-06-02T08:42:01Z</time>
      </trkpt>
      <trkpt lat="44.36784" lon="5.46107">
        <ele>567.7</ele>
        <time>2019-06-02T08:42:08Z</time>
      </trkpt>
      <trkpt lat="44.36777" lon="5.46098">
        <ele>567.4</ele>
        <time>2019-06-02T08:42:15Z</time>
      </trkpt>
      <trkpt lat="44.3677" lon="5.46088">
        <ele>567.1</ele>
        <time>2019-06-02T08:42:22Z</time>
      </trkpt>
      <trkpt lat="44.36764" lon="5.46078">
        <ele>567</ele>
        <time>2019-06-02T08:42:28Z</time>
      </trkpt>
      <trkpt lat="44.36759" lon="5.46067">
        <ele>566.9</ele>
        <time>2019-06-02T08:42:34Z</time>
      </trkpt>
      <trkpt lat="44.36755" lon="5.46054">
        <ele>566.6</ele>
        <time>2019-06-02T08:42:41Z</time>
      </trkpt>
      <trkpt lat="44.36751" lon="5.46042">
        <ele>566.3</ele>
        <time>2019-06-02T08:42:47Z</time>
      </trkpt>
      <trkpt lat="44.36747" lon="5.46029">
        <ele>565.7</ele>
        <time>2019-06-02T08:42:53Z</time>
      </trkpt>
      <trkpt lat="44.36743" lon="5.46016">
        <ele>565.2</ele>
        <time>2019-06-02T08:42:59Z</time>
      </trkpt>
      <trkpt lat="44.36739" lon="5.46004">
        <ele>564.9</ele>
        <time>2019-06-02T08:43:05Z</time>
      </trkpt>
      <trkpt lat="44.36737" lon="5.45991">
        <ele>564.8</ele>
        <time>2019-06-02T08:43:11Z</time>
      </trkpt>
      <trkpt lat="44.36733" lon="5.45979">
        <ele>564.9</ele>
        <time>2019-06-02T08:43:17Z</time>
      </trkpt>
      <trkpt lat="44.36729" lon="5.45967">
        <ele>565</ele>
        <time>2019-06-02T08:43:23Z</time>
      </trkpt>
      <trkpt lat="44.36732" lon="5.4598">
        <ele>565.5</ele>
        <time>2019-06-02T08:43:49Z</time>
      </trkpt>
      <trkpt lat="44.36734" lon="5.45995">
        <ele>565.5</ele>
        <time>2019-06-02T08:43:56Z</time>
      </trkpt>
      <trkpt lat="44.3673" lon="5.46007">
        <ele>565.1</ele>
        <time>2019-06-02T08:44:04Z</time>
      </trkpt>
      <trkpt lat="44.36728" lon="5.46021">
        <ele>565</ele>
        <time>2019-06-02T08:44:13Z</time>
      </trkpt>
      <trkpt lat="44.36727" lon="5.46034">
        <ele>564.8</ele>
        <time>2019-06-02T08:44:20Z</time>
      </trkpt>
      <trkpt lat="44.36723" lon="5.46046">
        <ele>564.6</ele>
        <time>2019-06-02T08:44:35Z</time>
      </trkpt>
      <trkpt lat="44.3672" lon="5.46059">
        <ele>564.6</ele>
        <time>2019-06-02T08:44:42Z</time>
      </trkpt>
      <trkpt lat="44.3672" lon="5.46072">
        <ele>565</ele>
        <time>2019-06-02T08:44:52Z</time>
      </trkpt>
      <trkpt lat="44.36719" lon="5.46086">
        <ele>565.2</ele>
        <time>2019-06-02T08:44:59Z</time>
      </trkpt>
      <trkpt lat="44.3672" lon="5.46099">
        <ele>565.3</ele>
        <time>2019-06-02T08:45:05Z</time>
      </trkpt>
      <trkpt lat="44.3672" lon="5.46113">
        <ele>565.4</ele>
        <time>2019-06-02T08:45:12Z</time>
      </trkpt>
      <trkpt lat="44.36722" lon="5.46128">
        <ele>565.5</ele>
        <time>2019-06-02T08:45:19Z</time>
      </trkpt>
      <trkpt lat="44.36718" lon="5.4614">
        <ele>565.6</ele>
        <time>2019-06-02T08:45:26Z</time>
      </trkpt>
      <trkpt lat="44.36714" lon="5.46151">
        <ele>565.9</ele>
        <time>2019-06-02T08:45:33Z</time>
      </trkpt>
      <trkpt lat="44.3671" lon="5.46164">
        <ele>566.2</ele>
        <time>2019-06-02T08:45:40Z</time>
      </trkpt>
      <trkpt lat="44.36707" lon="5.46176">
        <ele>566.4</ele>
        <time>2019-06-02T08:45:48Z</time>
      </trkpt>
      <trkpt lat="44.36701" lon="5.46188">
        <ele>566.3</ele>
        <time>2019-06-02T08:45:56Z</time>
      </trkpt>
      <trkpt lat="44.36696" lon="5.46198">
        <ele>566.3</ele>
        <time>2019-06-02T08:46:02Z</time>
      </trkpt>
      <trkpt lat="44.36689" lon="5.46207">
        <ele>566.3</ele>
        <time>2019-06-02T08:46:08Z</time>
      </trkpt>
      <trkpt lat="44.36682" lon="5.46216">
        <ele>566.3</ele>
        <time>2019-06-02T08:46:14Z</time>
      </trkpt>
      <trkpt lat="44.36675" lon="5.46225">
        <ele>566.3</ele>
        <time>2019-06-02T08:46:20Z</time>
      </trkpt>
      <trkpt lat="44.36667" lon="5.46231">
        <ele>566.5</ele>
        <time>2019-06-02T08:46:27Z</time>
      </trkpt>
      <trkpt lat="44.36657" lon="5.46235">
        <ele>566.8</ele>
        <time>2019-06-02T08:46:34Z</time>
      </trkpt>
      <trkpt lat="44.36648" lon="5.46237">
        <ele>567</ele>
        <time>2019-06-02T08:46:41Z</time>
      </trkpt>
      <trkpt lat="44.36638" lon="5.46238">
        <ele>567.4</ele>
        <time>2019-06-02T08:46:48Z</time>
      </trkpt>
      <trkpt lat="44.36629" lon="5.46235">
        <ele>567.6</ele>
        <time>2019-06-02T08:46:56Z</time>
      </trkpt>
      <trkpt lat="44.36619" lon="5.46232">
        <ele>567.6</ele>
        <time>2019-06-02T08:47:03Z</time>
      </trkpt>
      <trkpt lat="44.36609" lon="5.46229">
        <ele>567.5</ele>
        <time>2019-06-02T08:47:10Z</time>
      </trkpt>
      <trkpt lat="44.36601" lon="5.46227">
        <ele>567.5</ele>
        <time>2019-06-02T08:47:16Z</time>
      </trkpt>
      <trkpt lat="44.36591" lon="5.46224">
        <ele>567.4</ele>
        <time>2019-06-02T08:47:22Z</time>
      </trkpt>
      <trkpt lat="44.36582" lon="5.46221">
        <ele>567.3</ele>
        <time>2019-06-02T08:47:28Z</time>
      </trkpt>
      <trkpt lat="44.36572" lon="5.46217">
        <ele>567.2</ele>
        <time>2019-06-02T08:47:34Z</time>
      </trkpt>
      <trkpt lat="44.36562" lon="5.46213">
        <ele>567.3</ele>
        <time>2019-06-02T08:47:40Z</time>
      </trkpt>
      <trkpt lat="44.36554" lon="5.4621">
        <ele>567.4</ele>
        <time>2019-06-02T08:47:46Z</time>
      </trkpt>
      <trkpt lat="44.36544" lon="5.46207">
        <ele>567.4</ele>
        <time>2019-06-02T08:47:52Z</time>
      </trkpt>
      <trkpt lat="44.36535" lon="5.46203">
        <ele>567.5</ele>
        <time>2019-06-02T08:47:58Z</time>
      </trkpt>
      <trkpt lat="44.36526" lon="5.46199">
        <ele>567.5</ele>
        <time>2019-06-02T08:48:04Z</time>
      </trkpt>
      <trkpt lat="44.36516" lon="5.46196">
        <ele>567.5</ele>
        <time>2019-06-02T08:48:11Z</time>
      </trkpt>
      <trkpt lat="44.36506" lon="5.46193">
        <ele>567.5</ele>
        <time>2019-06-02T08:48:18Z</time>
      </trkpt>
      <trkpt lat="44.36496" lon="5.46191">
        <ele>567.6</ele>
        <time>2019-06-02T08:48:25Z</time>
      </trkpt>
      <trkpt lat="44.36486" lon="5.46186">
        <ele>567.7</ele>
        <time>2019-06-02T08:48:31Z</time>
      </trkpt>
      <trkpt lat="44.36477" lon="5.46181">
        <ele>567.8</ele>
        <time>2019-06-02T08:48:37Z</time>
      </trkpt>
      <trkpt lat="44.36469" lon="5.46176">
        <ele>568.1</ele>
        <time>2019-06-02T08:48:43Z</time>
      </trkpt>
      <trkpt lat="44.3646" lon="5.46169">
        <ele>568.7</ele>
        <time>2019-06-02T08:48:50Z</time>
      </trkpt>
      <trkpt lat="44.36451" lon="5.46163">
        <ele>569.2</ele>
        <time>2019-06-02T08:48:57Z</time>
      </trkpt>
      <trkpt lat="44.36443" lon="5.46156">
        <ele>569.7</ele>
        <time>2019-06-02T08:49:05Z</time>
      </trkpt>
      <trkpt lat="44.36434" lon="5.46151">
        <ele>570.3</ele>
        <time>2019-06-02T08:49:12Z</time>
      </trkpt>
      <trkpt lat="44.36426" lon="5.46145">
        <ele>571.4</ele>
        <time>2019-06-02T08:49:19Z</time>
      </trkpt>
      <trkpt lat="44.36418" lon="5.46136">
        <ele>572.8</ele>
        <time>2019-06-02T08:49:27Z</time>
      </trkpt>
      <trkpt lat="44.36408" lon="5.4614">
        <ele>574.3</ele>
        <time>2019-06-02T08:49:34Z</time>
      </trkpt>
      <trkpt lat="44.36402" lon="5.4615">
        <ele>575.5</ele>
        <time>2019-06-02T08:49:42Z</time>
      </trkpt>
      <trkpt lat="44.36397" lon="5.46162">
        <ele>576.4</ele>
        <time>2019-06-02T08:49:50Z</time>
      </trkpt>
      <trkpt lat="44.36391" lon="5.46173">
        <ele>576</ele>
        <time>2019-06-02T08:49:54Z</time>
      </trkpt>
      <trkpt lat="44.36387" lon="5.46188">
        <ele>577</ele>
        <time>2019-06-02T08:50:02Z</time>
      </trkpt>
      <trkpt lat="44.36382" lon="5.46201">
        <ele>578.2</ele>
        <time>2019-06-02T08:50:10Z</time>
      </trkpt>
      <trkpt lat="44.36377" lon="5.46212">
        <ele>578.6</ele>
        <time>2019-06-02T08:50:17Z</time>
      </trkpt>
      <trkpt lat="44.36374" lon="5.46224">
        <ele>578.5</ele>
        <time>2019-06-02T08:50:24Z</time>
      </trkpt>
      <trkpt lat="44.36371" lon="5.46238">
        <ele>578.3</ele>
        <time>2019-06-02T08:50:31Z</time>
      </trkpt>
      <trkpt lat="44.36365" lon="5.46249">
        <ele>578.3</ele>
        <time>2019-06-02T08:50:38Z</time>
      </trkpt>
      <trkpt lat="44.36361" lon="5.46261">
        <ele>579</ele>
        <time>2019-06-02T08:50:46Z</time>
      </trkpt>
      <trkpt lat="44.36357" lon="5.46272">
        <ele>580.3</ele>
        <time>2019-06-02T08:50:54Z</time>
      </trkpt>
      <trkpt lat="44.36353" lon="5.46284">
        <ele>581.7</ele>
        <time>2019-06-02T08:51:01Z</time>
      </trkpt>
      <trkpt lat="44.36348" lon="5.46296">
        <ele>583.3</ele>
        <time>2019-06-02T08:51:09Z</time>
      </trkpt>
      <trkpt lat="44.36345" lon="5.4631">
        <ele>584.8</ele>
        <time>2019-06-02T08:51:17Z</time>
      </trkpt>
      <trkpt lat="44.36343" lon="5.46323">
        <ele>586.4</ele>
        <time>2019-06-02T08:51:24Z</time>
      </trkpt>
      <trkpt lat="44.36341" lon="5.46335">
        <ele>588.3</ele>
        <time>2019-06-02T08:51:31Z</time>
      </trkpt>
      <trkpt lat="44.3634" lon="5.46348">
        <ele>589.4</ele>
        <time>2019-06-02T08:51:37Z</time>
      </trkpt>
      <trkpt lat="44.36336" lon="5.46361">
        <ele>590.7</ele>
        <time>2019-06-02T08:51:44Z</time>
      </trkpt>
      <trkpt lat="44.36327" lon="5.46359">
        <ele>592.6</ele>
        <time>2019-06-02T08:51:54Z</time>
      </trkpt>
      <trkpt lat="44.36325" lon="5.46346">
        <ele>593.9</ele>
        <time>2019-06-02T08:52:02Z</time>
      </trkpt>
      <trkpt lat="44.36323" lon="5.46334">
        <ele>595.5</ele>
        <time>2019-06-02T08:52:10Z</time>
      </trkpt>
      <trkpt lat="44.36319" lon="5.46322">
        <ele>597.3</ele>
        <time>2019-06-02T08:52:18Z</time>
      </trkpt>
      <trkpt lat="44.36314" lon="5.46311">
        <ele>598.9</ele>
        <time>2019-06-02T08:52:26Z</time>
      </trkpt>
      <trkpt lat="44.36311" lon="5.46299">
        <ele>600.4</ele>
        <time>2019-06-02T08:52:34Z</time>
      </trkpt>
      <trkpt lat="44.36312" lon="5.46285">
        <ele>602.4</ele>
        <time>2019-06-02T08:52:42Z</time>
      </trkpt>
      <trkpt lat="44.36303" lon="5.46284">
        <ele>605.4</ele>
        <time>2019-06-02T08:52:57Z</time>
      </trkpt>
      <trkpt lat="44.363" lon="5.46296">
        <ele>607.1</ele>
        <time>2019-06-02T08:53:07Z</time>
      </trkpt>
      <trkpt lat="44.36295" lon="5.46308">
        <ele>608.4</ele>
        <time>2019-06-02T08:53:15Z</time>
      </trkpt>
      <trkpt lat="44.36289" lon="5.46319">
        <ele>609.6</ele>
        <time>2019-06-02T08:53:23Z</time>
      </trkpt>
      <trkpt lat="44.36282" lon="5.46327">
        <ele>610.4</ele>
        <time>2019-06-02T08:53:30Z</time>
      </trkpt>
      <trkpt lat="44.36273" lon="5.46333">
        <ele>611.7</ele>
        <time>2019-06-02T08:53:38Z</time>
      </trkpt>
      <trkpt lat="44.36264" lon="5.46339">
        <ele>612.7</ele>
        <time>2019-06-02T08:53:46Z</time>
      </trkpt>
      <trkpt lat="44.36256" lon="5.46343">
        <ele>613.5</ele>
        <time>2019-06-02T08:53:53Z</time>
      </trkpt>
      <trkpt lat="44.36246" lon="5.46346">
        <ele>615</ele>
        <time>2019-06-02T08:54:00Z</time>
      </trkpt>
      <trkpt lat="44.36236" lon="5.46349">
        <ele>616.2</ele>
        <time>2019-06-02T08:54:07Z</time>
      </trkpt>
      <trkpt lat="44.36226" lon="5.4635">
        <ele>617.2</ele>
        <time>2019-06-02T08:54:14Z</time>
      </trkpt>
      <trkpt lat="44.36218" lon="5.46346">
        <ele>618.1</ele>
        <time>2019-06-02T08:54:20Z</time>
      </trkpt>
      <trkpt lat="44.3621" lon="5.4634">
        <ele>618.7</ele>
        <time>2019-06-02T08:54:26Z</time>
      </trkpt>
      <trkpt lat="44.36202" lon="5.46332">
        <ele>619.3</ele>
        <time>2019-06-02T08:54:33Z</time>
      </trkpt>
      <trkpt lat="44.36195" lon="5.46324">
        <ele>619.8</ele>
        <time>2019-06-02T08:54:40Z</time>
      </trkpt>
      <trkpt lat="44.36188" lon="5.46314">
        <ele>620.5</ele>
        <time>2019-06-02T08:54:47Z</time>
      </trkpt>
      <trkpt lat="44.36181" lon="5.46305">
        <ele>621.8</ele>
        <time>2019-06-02T08:55:00Z</time>
      </trkpt>
      <trkpt lat="44.36171" lon="5.46302">
        <ele>623</ele>
        <time>2019-06-02T08:55:06Z</time>
      </trkpt>
      <trkpt lat="44.36162" lon="5.46299">
        <ele>624.4</ele>
        <time>2019-06-02T08:55:12Z</time>
      </trkpt>
      <trkpt lat="44.36152" lon="5.46297">
        <ele>626.3</ele>
        <time>2019-06-02T08:55:19Z</time>
      </trkpt>
      <trkpt lat="44.36143" lon="5.46295">
        <ele>627.6</ele>
        <time>2019-06-02T08:55:25Z</time>
      </trkpt>
      <trkpt lat="44.36134" lon="5.46293">
        <ele>628.9</ele>
        <time>2019-06-02T08:55:31Z</time>
      </trkpt>
      <trkpt lat="44.36123" lon="5.4629">
        <ele>630.4</ele>
        <time>2019-06-02T08:55:38Z</time>
      </trkpt>
      <trkpt lat="44.36114" lon="5.46286">
        <ele>631.4</ele>
        <time>2019-06-02T08:55:45Z</time>
      </trkpt>
      <trkpt lat="44.36106" lon="5.46279">
        <ele>633</ele>
        <time>2019-06-02T08:55:52Z</time>
      </trkpt>
      <trkpt lat="44.36098" lon="5.46272">
        <ele>634.3</ele>
        <time>2019-06-02T08:55:59Z</time>
      </trkpt>
      <trkpt lat="44.36091" lon="5.46263">
        <ele>635.7</ele>
        <time>2019-06-02T08:56:06Z</time>
      </trkpt>
      <trkpt lat="44.36089" lon="5.46251">
        <ele>637.1</ele>
        <time>2019-06-02T08:56:12Z</time>
      </trkpt>
      <trkpt lat="44.36089" lon="5.46236">
        <ele>638.2</ele>
        <time>2019-06-02T08:56:19Z</time>
      </trkpt>
      <trkpt lat="44.36088" lon="5.46223">
        <ele>639</ele>
        <time>2019-06-02T08:56:26Z</time>
      </trkpt>
      <trkpt lat="44.36086" lon="5.4621">
        <ele>640.1</ele>
        <time>2019-06-02T08:56:34Z</time>
      </trkpt>
      <trkpt lat="44.36082" lon="5.46197">
        <ele>641.3</ele>
        <time>2019-06-02T08:56:42Z</time>
      </trkpt>
      <trkpt lat="44.36077" lon="5.46186">
        <ele>642.8</ele>
        <time>2019-06-02T08:56:50Z</time>
      </trkpt>
      <trkpt lat="44.36071" lon="5.46176">
        <ele>643.9</ele>
        <time>2019-06-02T08:56:57Z</time>
      </trkpt>
      <trkpt lat="44.36063" lon="5.46166">
        <ele>645.1</ele>
        <time>2019-06-02T08:57:04Z</time>
      </trkpt>
      <trkpt lat="44.36055" lon="5.46159">
        <ele>646.2</ele>
        <time>2019-06-02T08:57:11Z</time>
      </trkpt>
      <trkpt lat="44.36047" lon="5.46152">
        <ele>647.2</ele>
        <time>2019-06-02T08:57:17Z</time>
      </trkpt>
      <trkpt lat="44.36042" lon="5.4614">
        <ele>648</ele>
        <time>2019-06-02T08:57:23Z</time>
      </trkpt>
      <trkpt lat="44.3604" lon="5.46127">
        <ele>649.2</ele>
        <time>2019-06-02T08:57:30Z</time>
      </trkpt>
      <trkpt lat="44.36035" lon="5.46116">
        <ele>649.9</ele>
        <time>2019-06-02T08:57:37Z</time>
      </trkpt>
      <trkpt lat="44.36028" lon="5.46107">
        <ele>650.1</ele>
        <time>2019-06-02T08:57:44Z</time>
      </trkpt>
      <trkpt lat="44.36019" lon="5.46102">
        <ele>649.9</ele>
        <time>2019-06-02T08:57:51Z</time>
      </trkpt>
      <trkpt lat="44.36009" lon="5.46098">
        <ele>649.7</ele>
        <time>2019-06-02T08:57:58Z</time>
      </trkpt>
      <trkpt lat="44.36" lon="5.46093">
        <ele>649.1</ele>
        <time>2019-06-02T08:58:05Z</time>
      </trkpt>
      <trkpt lat="44.35991" lon="5.46088">
        <ele>648.7</ele>
        <time>2019-06-02T08:58:12Z</time>
      </trkpt>
      <trkpt lat="44.35981" lon="5.46084">
        <ele>648.4</ele>
        <time>2019-06-02T08:58:19Z</time>
      </trkpt>
      <trkpt lat="44.35972" lon="5.4608">
        <ele>647.9</ele>
        <time>2019-06-02T08:58:26Z</time>
      </trkpt>
      <trkpt lat="44.35962" lon="5.46076">
        <ele>647.4</ele>
        <time>2019-06-02T08:58:33Z</time>
      </trkpt>
      <trkpt lat="44.35953" lon="5.46074">
        <ele>647</ele>
        <time>2019-06-02T08:58:40Z</time>
      </trkpt>
      <trkpt lat="44.35943" lon="5.46073">
        <ele>646.4</ele>
        <time>2019-06-02T08:58:47Z</time>
      </trkpt>
      <trkpt lat="44.35934" lon="5.46071">
        <ele>646.1</ele>
        <time>2019-06-02T08:58:54Z</time>
      </trkpt>
      <trkpt lat="44.35924" lon="5.4607">
        <ele>645.8</ele>
        <time>2019-06-02T08:59:01Z</time>
      </trkpt>
      <trkpt lat="44.35914" lon="5.46067">
        <ele>645.9</ele>
        <time>2019-06-02T08:59:08Z</time>
      </trkpt>
      <trkpt lat="44.35906" lon="5.46059">
        <ele>646</ele>
        <time>2019-06-02T08:59:15Z</time>
      </trkpt>
      <trkpt lat="44.35902" lon="5.46047">
        <ele>646.1</ele>
        <time>2019-06-02T08:59:22Z</time>
      </trkpt>
      <trkpt lat="44.35897" lon="5.46036">
        <ele>646.1</ele>
        <time>2019-06-02T08:59:29Z</time>
      </trkpt>
      <trkpt lat="44.35892" lon="5.46025">
        <ele>646.1</ele>
        <time>2019-06-02T08:59:36Z</time>
      </trkpt>
      <trkpt lat="44.35885" lon="5.46014">
        <ele>645.8</ele>
        <time>2019-06-02T08:59:43Z</time>
      </trkpt>
      <trkpt lat="44.35878" lon="5.46006">
        <ele>645.2</ele>
        <time>2019-06-02T08:59:50Z</time>
      </trkpt>
      <trkpt lat="44.35869" lon="5.46002">
        <ele>644.7</ele>
        <time>2019-06-02T08:59:57Z</time>
      </trkpt>
      <trkpt lat="44.35859" lon="5.45997">
        <ele>643.7</ele>
        <time>2019-06-02T09:00:04Z</time>
      </trkpt>
      <trkpt lat="44.35849" lon="5.45994">
        <ele>642.6</ele>
        <time>2019-06-02T09:00:11Z</time>
      </trkpt>
      <trkpt lat="44.3584" lon="5.4599">
        <ele>641.8</ele>
        <time>2019-06-02T09:00:17Z</time>
      </trkpt>
      <trkpt lat="44.35831" lon="5.45989">
        <ele>641.3</ele>
        <time>2019-06-02T09:00:23Z</time>
      </trkpt>
      <trkpt lat="44.35821" lon="5.45989">
        <ele>640.9</ele>
        <time>2019-06-02T09:00:29Z</time>
      </trkpt>
      <trkpt lat="44.35812" lon="5.45992">
        <ele>640.8</ele>
        <time>2019-06-02T09:00:35Z</time>
      </trkpt>
      <trkpt lat="44.35802" lon="5.45996">
        <ele>641.3</ele>
        <time>2019-06-02T09:00:42Z</time>
      </trkpt>
      <trkpt lat="44.35793" lon="5.46002">
        <ele>641.9</ele>
        <time>2019-06-02T09:00:49Z</time>
      </trkpt>
      <trkpt lat="44.35784" lon="5.46008">
        <ele>642.6</ele>
        <time>2019-06-02T09:00:56Z</time>
      </trkpt>
      <trkpt lat="44.35775" lon="5.46009">
        <ele>643.8</ele>
        <time>2019-06-02T09:01:04Z</time>
      </trkpt>
      <trkpt lat="44.35767" lon="5.46003">
        <ele>644.5</ele>
        <time>2019-06-02T09:01:12Z</time>
      </trkpt>
      <trkpt lat="44.35759" lon="5.45997">
        <ele>644.7</ele>
        <time>2019-06-02T09:01:19Z</time>
      </trkpt>
      <trkpt lat="44.3575" lon="5.4599">
        <ele>644.8</ele>
        <time>2019-06-02T09:01:26Z</time>
      </trkpt>
      <trkpt lat="44.35742" lon="5.45983">
        <ele>644.8</ele>
        <time>2019-06-02T09:01:33Z</time>
      </trkpt>
      <trkpt lat="44.35735" lon="5.45975">
        <ele>644.4</ele>
        <time>2019-06-02T09:01:40Z</time>
      </trkpt>
      <trkpt lat="44.35727" lon="5.45967">
        <ele>643.9</ele>
        <time>2019-06-02T09:01:47Z</time>
      </trkpt>
      <trkpt lat="44.35719" lon="5.45961">
        <ele>643.3</ele>
        <time>2019-06-02T09:01:54Z</time>
      </trkpt>
      <trkpt lat="44.35711" lon="5.45954">
        <ele>642.4</ele>
        <time>2019-06-02T09:02:01Z</time>
      </trkpt>
      <trkpt lat="44.35703" lon="5.45945">
        <ele>642.1</ele>
        <time>2019-06-02T09:02:08Z</time>
      </trkpt>
      <trkpt lat="44.35698" lon="5.45934">
        <ele>641.6</ele>
        <time>2019-06-02T09:02:15Z</time>
      </trkpt>
      <trkpt lat="44.35696" lon="5.4592">
        <ele>641</ele>
        <time>2019-06-02T09:02:23Z</time>
      </trkpt>
      <trkpt lat="44.35697" lon="5.45906">
        <ele>640.5</ele>
        <time>2019-06-02T09:02:30Z</time>
      </trkpt>
      <trkpt lat="44.35698" lon="5.45893">
        <ele>640.2</ele>
        <time>2019-06-02T09:02:37Z</time>
      </trkpt>
      <trkpt lat="44.357" lon="5.45879">
        <ele>639.9</ele>
        <time>2019-06-02T09:02:44Z</time>
      </trkpt>
      <trkpt lat="44.35702" lon="5.45866">
        <ele>639.4</ele>
        <time>2019-06-02T09:02:51Z</time>
      </trkpt>
      <trkpt lat="44.35707" lon="5.45853">
        <ele>638.8</ele>
        <time>2019-06-02T09:02:58Z</time>
      </trkpt>
      <trkpt lat="44.35711" lon="5.45839">
        <ele>638.4</ele>
        <time>2019-06-02T09:03:05Z</time>
      </trkpt>
      <trkpt lat="44.35714" lon="5.45826">
        <ele>638</ele>
        <time>2019-06-02T09:03:12Z</time>
      </trkpt>
      <trkpt lat="44.35718" lon="5.45813">
        <ele>637.4</ele>
        <time>2019-06-02T09:03:19Z</time>
      </trkpt>
      <trkpt lat="44.35722" lon="5.45801">
        <ele>636.8</ele>
        <time>2019-06-02T09:03:25Z</time>
      </trkpt>
      <trkpt lat="44.35725" lon="5.4579">
        <ele>636.5</ele>
        <time>2019-06-02T09:03:31Z</time>
      </trkpt>
      <trkpt lat="44.3573" lon="5.45777">
        <ele>636.4</ele>
        <time>2019-06-02T09:03:38Z</time>
      </trkpt>
      <trkpt lat="44.35737" lon="5.45767">
        <ele>636.3</ele>
        <time>2019-06-02T09:03:45Z</time>
      </trkpt>
      <trkpt lat="44.35744" lon="5.45758">
        <ele>636.1</ele>
        <time>2019-06-02T09:03:51Z</time>
      </trkpt>
      <trkpt lat="44.3575" lon="5.45749">
        <ele>635.8</ele>
        <time>2019-06-02T09:03:57Z</time>
      </trkpt>
      <trkpt lat="44.35757" lon="5.45738">
        <ele>635.4</ele>
        <time>2019-06-02T09:04:04Z</time>
      </trkpt>
      <trkpt lat="44.35761" lon="5.45725">
        <ele>634.9</ele>
        <time>2019-06-02T09:04:11Z</time>
      </trkpt>
      <trkpt lat="44.35763" lon="5.45712">
        <ele>634.1</ele>
        <time>2019-06-02T09:04:18Z</time>
      </trkpt>
      <trkpt lat="44.35764" lon="5.45699">
        <ele>633.9</ele>
        <time>2019-06-02T09:04:24Z</time>
      </trkpt>
      <trkpt lat="44.35765" lon="5.45685">
        <ele>633.6</ele>
        <time>2019-06-02T09:04:31Z</time>
      </trkpt>
      <trkpt lat="44.35766" lon="5.45671">
        <ele>633</ele>
        <time>2019-06-02T09:04:38Z</time>
      </trkpt>
      <trkpt lat="44.35766" lon="5.45657">
        <ele>632.2</ele>
        <time>2019-06-02T09:04:45Z</time>
      </trkpt>
      <trkpt lat="44.35768" lon="5.45644">
        <ele>631.3</ele>
        <time>2019-06-02T09:04:52Z</time>
      </trkpt>
      <trkpt lat="44.3577" lon="5.45631">
        <ele>630.7</ele>
        <time>2019-06-02T09:04:59Z</time>
      </trkpt>
      <trkpt lat="44.35775" lon="5.45618">
        <ele>629.8</ele>
        <time>2019-06-02T09:05:06Z</time>
      </trkpt>
      <trkpt lat="44.3578" lon="5.45606">
        <ele>629.1</ele>
        <time>2019-06-02T09:05:13Z</time>
      </trkpt>
      <trkpt lat="44.35786" lon="5.45595">
        <ele>628.5</ele>
        <time>2019-06-02T09:05:20Z</time>
      </trkpt>
      <trkpt lat="44.35791" lon="5.45585">
        <ele>628.2</ele>
        <time>2019-06-02T09:05:26Z</time>
      </trkpt>
      <trkpt lat="44.35797" lon="5.45574">
        <ele>627.6</ele>
        <time>2019-06-02T09:05:32Z</time>
      </trkpt>
      <trkpt lat="44.35802" lon="5.45561">
        <ele>626.8</ele>
        <time>2019-06-02T09:05:39Z</time>
      </trkpt>
      <trkpt lat="44.35808" lon="5.45551">
        <ele>626.6</ele>
        <time>2019-06-02T09:05:45Z</time>
      </trkpt>
      <trkpt lat="44.35814" lon="5.45541">
        <ele>626.3</ele>
        <time>2019-06-02T09:05:51Z</time>
      </trkpt>
      <trkpt lat="44.35821" lon="5.45532">
        <ele>626</ele>
        <time>2019-06-02T09:05:57Z</time>
      </trkpt>
      <trkpt lat="44.35828" lon="5.45524">
        <ele>625.4</ele>
        <time>2019-06-02T09:06:03Z</time>
      </trkpt>
      <trkpt lat="44.35835" lon="5.45515">
        <ele>624.9</ele>
        <time>2019-06-02T09:06:09Z</time>
      </trkpt>
      <trkpt lat="44.35842" lon="5.45506">
        <ele>624.6</ele>
        <time>2019-06-02T09:06:15Z</time>
      </trkpt>
      <trkpt lat="44.35848" lon="5.45497">
        <ele>624.5</ele>
        <time>2019-06-02T09:06:21Z</time>
      </trkpt>
      <trkpt lat="44.35855" lon="5.45488">
        <ele>624.5</ele>
        <time>2019-06-02T09:06:27Z</time>
      </trkpt>
      <trkpt lat="44.35862" lon="5.45478">
        <ele>624.7</ele>
        <time>2019-06-02T09:06:33Z</time>
      </trkpt>
      <trkpt lat="44.35868" lon="5.45469">
        <ele>624.8</ele>
        <time>2019-06-02T09:06:39Z</time>
      </trkpt>
      <trkpt lat="44.35873" lon="5.45459">
        <ele>624.8</ele>
        <time>2019-06-02T09:06:45Z</time>
      </trkpt>
      <trkpt lat="44.35878" lon="5.45448">
        <ele>624.9</ele>
        <time>2019-06-02T09:06:51Z</time>
      </trkpt>
      <trkpt lat="44.35882" lon="5.45436">
        <ele>625.1</ele>
        <time>2019-06-02T09:06:57Z</time>
      </trkpt>
      <trkpt lat="44.35886" lon="5.45425">
        <ele>625.6</ele>
        <time>2019-06-02T09:07:03Z</time>
      </trkpt>
      <trkpt lat="44.3589" lon="5.45412">
        <ele>625.7</ele>
        <time>2019-06-02T09:07:10Z</time>
      </trkpt>
      <trkpt lat="44.35893" lon="5.45398">
        <ele>626.2</ele>
        <time>2019-06-02T09:07:17Z</time>
      </trkpt>
      <trkpt lat="44.35896" lon="5.45385">
        <ele>626</ele>
        <time>2019-06-02T09:07:24Z</time>
      </trkpt>
      <trkpt lat="44.35898" lon="5.45371">
        <ele>625.6</ele>
        <time>2019-06-02T09:07:31Z</time>
      </trkpt>
      <trkpt lat="44.35901" lon="5.45358">
        <ele>625.1</ele>
        <time>2019-06-02T09:07:38Z</time>
      </trkpt>
      <trkpt lat="44.35903" lon="5.45344">
        <ele>624.7</ele>
        <time>2019-06-02T09:07:45Z</time>
      </trkpt>
      <trkpt lat="44.35905" lon="5.4533">
        <ele>624.2</ele>
        <time>2019-06-02T09:07:52Z</time>
      </trkpt>
      <trkpt lat="44.35908" lon="5.45316">
        <ele>623.5</ele>
        <time>2019-06-02T09:07:59Z</time>
      </trkpt>
      <trkpt lat="44.35911" lon="5.45303">
        <ele>622.9</ele>
        <time>2019-06-02T09:08:06Z</time>
      </trkpt>
      <trkpt lat="44.35915" lon="5.45292">
        <ele>622.1</ele>
        <time>2019-06-02T09:08:12Z</time>
      </trkpt>
      <trkpt lat="44.3592" lon="5.45281">
        <ele>621.7</ele>
        <time>2019-06-02T09:08:18Z</time>
      </trkpt>
      <trkpt lat="44.35925" lon="5.45271">
        <ele>621.4</ele>
        <time>2019-06-02T09:08:24Z</time>
      </trkpt>
      <trkpt lat="44.35931" lon="5.4526">
        <ele>620.9</ele>
        <time>2019-06-02T09:08:31Z</time>
      </trkpt>
      <trkpt lat="44.35938" lon="5.4525">
        <ele>620.4</ele>
        <time>2019-06-02T09:08:38Z</time>
      </trkpt>
      <trkpt lat="44.35947" lon="5.45243">
        <ele>619.8</ele>
        <time>2019-06-02T09:08:45Z</time>
      </trkpt>
      <trkpt lat="44.35956" lon="5.45236">
        <ele>619.3</ele>
        <time>2019-06-02T09:08:52Z</time>
      </trkpt>
      <trkpt lat="44.35963" lon="5.45225">
        <ele>618.7</ele>
        <time>2019-06-02T09:08:59Z</time>
      </trkpt>
      <trkpt lat="44.35966" lon="5.45212">
        <ele>618.2</ele>
        <time>2019-06-02T09:09:06Z</time>
      </trkpt>
      <trkpt lat="44.35966" lon="5.45198">
        <ele>617.4</ele>
        <time>2019-06-02T09:09:13Z</time>
      </trkpt>
      <trkpt lat="44.35965" lon="5.45185">
        <ele>616.6</ele>
        <time>2019-06-02T09:09:20Z</time>
      </trkpt>
      <trkpt lat="44.35962" lon="5.45173">
        <ele>616.1</ele>
        <time>2019-06-02T09:09:27Z</time>
      </trkpt>
      <trkpt lat="44.35958" lon="5.45161">
        <ele>615.5</ele>
        <time>2019-06-02T09:09:34Z</time>
      </trkpt>
      <trkpt lat="44.35955" lon="5.45148">
        <ele>614.9</ele>
        <time>2019-06-02T09:09:41Z</time>
      </trkpt>
      <trkpt lat="44.35952" lon="5.45134">
        <ele>614.2</ele>
        <time>2019-06-02T09:09:48Z</time>
      </trkpt>
      <trkpt lat="44.3595" lon="5.45121">
        <ele>613.2</ele>
        <time>2019-06-02T09:09:55Z</time>
      </trkpt>
      <trkpt lat="44.35948" lon="5.45107">
        <ele>612.2</ele>
        <time>2019-06-02T09:10:02Z</time>
      </trkpt>
      <trkpt lat="44.35948" lon="5.45093">
        <ele>611.3</ele>
        <time>2019-06-02T09:10:09Z</time>
      </trkpt>
      <trkpt lat="44.3595" lon="5.4508">
        <ele>610.7</ele>
        <time>2019-06-02T09:10:16Z</time>
      </trkpt>
      <trkpt lat="44.35941" lon="5.45085">
        <ele>609.4</ele>
        <time>2019-06-02T09:10:32Z</time>
      </trkpt>
      <trkpt lat="44.35932" lon="5.45089">
        <ele>608.8</ele>
        <time>2019-06-02T09:10:39Z</time>
      </trkpt>
      <trkpt lat="44.35923" lon="5.45095">
        <ele>608.4</ele>
        <time>2019-06-02T09:10:46Z</time>
      </trkpt>
      <trkpt lat="44.35914" lon="5.45103">
        <ele>608.1</ele>
        <time>2019-06-02T09:10:53Z</time>
      </trkpt>
      <trkpt lat="44.35905" lon="5.45107">
        <ele>607.9</ele>
        <time>2019-06-02T09:10:59Z</time>
      </trkpt>
      <trkpt lat="44.35895" lon="5.45109">
        <ele>607.8</ele>
        <time>2019-06-02T09:11:06Z</time>
      </trkpt>
      <trkpt lat="44.35886" lon="5.45109">
        <ele>607.4</ele>
        <time>2019-06-02T09:11:12Z</time>
      </trkpt>
      <trkpt lat="44.35877" lon="5.4511">
        <ele>607.3</ele>
        <time>2019-06-02T09:11:18Z</time>
      </trkpt>
      <trkpt lat="44.35867" lon="5.45113">
        <ele>607.2</ele>
        <time>2019-06-02T09:11:24Z</time>
      </trkpt>
      <trkpt lat="44.35859" lon="5.45119">
        <ele>606.6</ele>
        <time>2019-06-02T09:11:30Z</time>
      </trkpt>
      <trkpt lat="44.35852" lon="5.4513">
        <ele>606.2</ele>
        <time>2019-06-02T09:11:37Z</time>
      </trkpt>
      <trkpt lat="44.35848" lon="5.45143">
        <ele>606</ele>
        <time>2019-06-02T09:11:44Z</time>
      </trkpt>
      <trkpt lat="44.35845" lon="5.45155">
        <ele>605.7</ele>
        <time>2019-06-02T09:11:50Z</time>
      </trkpt>
      <trkpt lat="44.35842" lon="5.45167">
        <ele>605.2</ele>
        <time>2019-06-02T09:11:56Z</time>
      </trkpt>
      <trkpt lat="44.35835" lon="5.45177">
        <ele>604.9</ele>
        <time>2019-06-02T09:12:04Z</time>
      </trkpt>
      <trkpt lat="44.35828" lon="5.45185">
        <ele>604.6</ele>
        <time>2019-06-02T09:12:11Z</time>
      </trkpt>
      <trkpt lat="44.35819" lon="5.4519">
        <ele>604.4</ele>
        <time>2019-06-02T09:12:16Z</time>
      </trkpt>
      <trkpt lat="44.3581" lon="5.45192">
        <ele>604.3</ele>
        <time>2019-06-02T09:12:21Z</time>
      </trkpt>
      <trkpt lat="44.35801" lon="5.45191">
        <ele>603.7</ele>
        <time>2019-06-02T09:12:27Z</time>
      </trkpt>
      <trkpt lat="44.35792" lon="5.4519">
        <ele>603.3</ele>
        <time>2019-06-02T09:12:33Z</time>
      </trkpt>
      <trkpt lat="44.35783" lon="5.45189">
        <ele>603</ele>
        <time>2019-06-02T09:12:39Z</time>
      </trkpt>
      <trkpt lat="44.35773" lon="5.45188">
        <ele>602.8</ele>
        <time>2019-06-02T09:12:45Z</time>
      </trkpt>
      <trkpt lat="44.35764" lon="5.45188">
        <ele>602.7</ele>
        <time>2019-06-02T09:12:51Z</time>
      </trkpt>
      <trkpt lat="44.35755" lon="5.45188">
        <ele>602.6</ele>
        <time>2019-06-02T09:12:57Z</time>
      </trkpt>
      <trkpt lat="44.35746" lon="5.45187">
        <ele>602.6</ele>
        <time>2019-06-02T09:13:03Z</time>
      </trkpt>
      <trkpt lat="44.35736" lon="5.45185">
        <ele>602.6</ele>
        <time>2019-06-02T09:13:09Z</time>
      </trkpt>
      <trkpt lat="44.35728" lon="5.4518">
        <ele>602.7</ele>
        <time>2019-06-02T09:13:15Z</time>
      </trkpt>
      <trkpt lat="44.35719" lon="5.45174">
        <ele>602.8</ele>
        <time>2019-06-02T09:13:21Z</time>
      </trkpt>
      <trkpt lat="44.35711" lon="5.45168">
        <ele>602.9</ele>
        <time>2019-06-02T09:13:27Z</time>
      </trkpt>
      <trkpt lat="44.35703" lon="5.45162">
        <ele>602.9</ele>
        <time>2019-06-02T09:13:33Z</time>
      </trkpt>
      <trkpt lat="44.35694" lon="5.45158">
        <ele>602.9</ele>
        <time>2019-06-02T09:13:39Z</time>
      </trkpt>
      <trkpt lat="44.35685" lon="5.45154">
        <ele>602.9</ele>
        <time>2019-06-02T09:13:45Z</time>
      </trkpt>
      <trkpt lat="44.35676" lon="5.4515">
        <ele>602.9</ele>
        <time>2019-06-02T09:13:51Z</time>
      </trkpt>
      <trkpt lat="44.35667" lon="5.45147">
        <ele>602.5</ele>
        <time>2019-06-02T09:13:57Z</time>
      </trkpt>
      <trkpt lat="44.35657" lon="5.45146">
        <ele>602.3</ele>
        <time>2019-06-02T09:14:03Z</time>
      </trkpt>
      <trkpt lat="44.35647" lon="5.45146">
        <ele>602.2</ele>
        <time>2019-06-02T09:14:09Z</time>
      </trkpt>
      <trkpt lat="44.35638" lon="5.45148">
        <ele>602.1</ele>
        <time>2019-06-02T09:14:15Z</time>
      </trkpt>
      <trkpt lat="44.35629" lon="5.4515">
        <ele>601.7</ele>
        <time>2019-06-02T09:14:21Z</time>
      </trkpt>
      <trkpt lat="44.35619" lon="5.45152">
        <ele>601.3</ele>
        <time>2019-06-02T09:14:27Z</time>
      </trkpt>
      <trkpt lat="44.3561" lon="5.45154">
        <ele>601.1</ele>
        <time>2019-06-02T09:14:33Z</time>
      </trkpt>
      <trkpt lat="44.35601" lon="5.45156">
        <ele>600.9</ele>
        <time>2019-06-02T09:14:39Z</time>
      </trkpt>
      <trkpt lat="44.35591" lon="5.45159">
        <ele>600.5</ele>
        <time>2019-06-02T09:14:46Z</time>
      </trkpt>
      <trkpt lat="44.35581" lon="5.45163">
        <ele>600.1</ele>
        <time>2019-06-02T09:14:53Z</time>
      </trkpt>
      <trkpt lat="44.35572" lon="5.45164">
        <ele>600</ele>
        <time>2019-06-02T09:14:59Z</time>
      </trkpt>
      <trkpt lat="44.35562" lon="5.45167">
        <ele>600.1</ele>
        <time>2019-06-02T09:15:06Z</time>
      </trkpt>
      <trkpt lat="44.35553" lon="5.4517">
        <ele>600.3</ele>
        <time>2019-06-02T09:15:12Z</time>
      </trkpt>
      <trkpt lat="44.35543" lon="5.45176">
        <ele>600.6</ele>
        <time>2019-06-02T09:15:19Z</time>
      </trkpt>
      <trkpt lat="44.35534" lon="5.45182">
        <ele>601</ele>
        <time>2019-06-02T09:15:26Z</time>
      </trkpt>
      <trkpt lat="44.35526" lon="5.4519">
        <ele>601.3</ele>
        <time>2019-06-02T09:15:33Z</time>
      </trkpt>
      <trkpt lat="44.35517" lon="5.45198">
        <ele>601.7</ele>
        <time>2019-06-02T09:15:40Z</time>
      </trkpt>
      <trkpt lat="44.35508" lon="5.45203">
        <ele>602.4</ele>
        <time>2019-06-02T09:15:47Z</time>
      </trkpt>
      <trkpt lat="44.35498" lon="5.45204">
        <ele>602.8</ele>
        <time>2019-06-02T09:15:54Z</time>
      </trkpt>
      <trkpt lat="44.35489" lon="5.45202">
        <ele>603</ele>
        <time>2019-06-02T09:16:00Z</time>
      </trkpt>
      <trkpt lat="44.3548" lon="5.45199">
        <ele>603</ele>
        <time>2019-06-02T09:16:06Z</time>
      </trkpt>
      <trkpt lat="44.3547" lon="5.452">
        <ele>603.1</ele>
        <time>2019-06-02T09:16:12Z</time>
      </trkpt>
      <trkpt lat="44.3546" lon="5.45204">
        <ele>603.4</ele>
        <time>2019-06-02T09:16:19Z</time>
      </trkpt>
      <trkpt lat="44.3545" lon="5.45206">
        <ele>603.6</ele>
        <time>2019-06-02T09:16:26Z</time>
      </trkpt>
      <trkpt lat="44.35441" lon="5.45207">
        <ele>603.8</ele>
        <time>2019-06-02T09:16:32Z</time>
      </trkpt>
      <trkpt lat="44.35431" lon="5.45207">
        <ele>603.9</ele>
        <time>2019-06-02T09:16:39Z</time>
      </trkpt>
      <trkpt lat="44.35421" lon="5.45206">
        <ele>604.2</ele>
        <time>2019-06-02T09:16:45Z</time>
      </trkpt>
      <trkpt lat="44.35412" lon="5.45207">
        <ele>604.4</ele>
        <time>2019-06-02T09:16:51Z</time>
      </trkpt>
      <trkpt lat="44.35403" lon="5.45209">
        <ele>604.5</ele>
        <time>2019-06-02T09:16:57Z</time>
      </trkpt>
      <trkpt lat="44.35393" lon="5.45212">
        <ele>604.6</ele>
        <time>2019-06-02T09:17:04Z</time>
      </trkpt>
      <trkpt lat="44.35383" lon="5.45216">
        <ele>604.9</ele>
        <time>2019-06-02T09:17:11Z</time>
      </trkpt>
      <trkpt lat="44.35374" lon="5.45221">
        <ele>605.1</ele>
        <time>2019-06-02T09:17:18Z</time>
      </trkpt>
      <trkpt lat="44.35364" lon="5.45225">
        <ele>605.5</ele>
        <time>2019-06-02T09:17:25Z</time>
      </trkpt>
      <trkpt lat="44.35355" lon="5.45225">
        <ele>605.8</ele>
        <time>2019-06-02T09:17:31Z</time>
      </trkpt>
      <trkpt lat="44.35346" lon="5.45226">
        <ele>606.2</ele>
        <time>2019-06-02T09:17:37Z</time>
      </trkpt>
      <trkpt lat="44.35336" lon="5.45224">
        <ele>606.7</ele>
        <time>2019-06-02T09:17:44Z</time>
      </trkpt>
      <trkpt lat="44.35326" lon="5.45219">
        <ele>607.1</ele>
        <time>2019-06-02T09:17:51Z</time>
      </trkpt>
      <trkpt lat="44.35319" lon="5.45211">
        <ele>607.3</ele>
        <time>2019-06-02T09:17:57Z</time>
      </trkpt>
      <trkpt lat="44.35312" lon="5.45201">
        <ele>607.4</ele>
        <time>2019-06-02T09:18:04Z</time>
      </trkpt>
      <trkpt lat="44.35306" lon="5.45192">
        <ele>607.7</ele>
        <time>2019-06-02T09:18:10Z</time>
      </trkpt>
      <trkpt lat="44.35298" lon="5.45183">
        <ele>607.9</ele>
        <time>2019-06-02T09:18:17Z</time>
      </trkpt>
      <trkpt lat="44.3529" lon="5.45177">
        <ele>608.3</ele>
        <time>2019-06-02T09:18:23Z</time>
      </trkpt>
      <trkpt lat="44.3528" lon="5.45173">
        <ele>608.5</ele>
        <time>2019-06-02T09:18:30Z</time>
      </trkpt>
      <trkpt lat="44.3527" lon="5.45168">
        <ele>608.8</ele>
        <time>2019-06-02T09:18:37Z</time>
      </trkpt>
      <trkpt lat="44.35261" lon="5.45162">
        <ele>609</ele>
        <time>2019-06-02T09:18:44Z</time>
      </trkpt>
      <trkpt lat="44.35253" lon="5.45155">
        <ele>609.1</ele>
        <time>2019-06-02T09:18:50Z</time>
      </trkpt>
      <trkpt lat="44.35246" lon="5.45148">
        <ele>609.4</ele>
        <time>2019-06-02T09:18:56Z</time>
      </trkpt>
      <trkpt lat="44.35237" lon="5.45141">
        <ele>609.9</ele>
        <time>2019-06-02T09:19:03Z</time>
      </trkpt>
      <trkpt lat="44.35229" lon="5.45136">
        <ele>610.1</ele>
        <time>2019-06-02T09:19:09Z</time>
      </trkpt>
      <trkpt lat="44.35219" lon="5.45131">
        <ele>610.4</ele>
        <time>2019-06-02T09:19:16Z</time>
      </trkpt>
      <trkpt lat="44.35211" lon="5.45125">
        <ele>610.6</ele>
        <time>2019-06-02T09:19:23Z</time>
      </trkpt>
      <trkpt lat="44.35203" lon="5.45119">
        <ele>610.6</ele>
        <time>2019-06-02T09:19:30Z</time>
      </trkpt>
      <trkpt lat="44.35194" lon="5.45113">
        <ele>610.8</ele>
        <time>2019-06-02T09:19:36Z</time>
      </trkpt>
      <trkpt lat="44.35185" lon="5.45106">
        <ele>611.4</ele>
        <time>2019-06-02T09:19:43Z</time>
      </trkpt>
      <trkpt lat="44.35178" lon="5.45096">
        <ele>612.2</ele>
        <time>2019-06-02T09:19:50Z</time>
      </trkpt>
      <trkpt lat="44.35173" lon="5.45085">
        <ele>613.4</ele>
        <time>2019-06-02T09:19:57Z</time>
      </trkpt>
      <trkpt lat="44.3517" lon="5.45072">
        <ele>614.2</ele>
        <time>2019-06-02T09:20:04Z</time>
      </trkpt>
      <trkpt lat="44.35166" lon="5.45059">
        <ele>614.7</ele>
        <time>2019-06-02T09:20:11Z</time>
      </trkpt>
      <trkpt lat="44.35162" lon="5.45046">
        <ele>615</ele>
        <time>2019-06-02T09:20:18Z</time>
      </trkpt>
      <trkpt lat="44.35157" lon="5.45035">
        <ele>615.2</ele>
        <time>2019-06-02T09:20:24Z</time>
      </trkpt>
      <trkpt lat="44.35151" lon="5.45023">
        <ele>615.4</ele>
        <time>2019-06-02T09:20:30Z</time>
      </trkpt>
      <trkpt lat="44.35145" lon="5.45014">
        <ele>615.7</ele>
        <time>2019-06-02T09:20:36Z</time>
      </trkpt>
      <trkpt lat="44.35138" lon="5.45004">
        <ele>616</ele>
        <time>2019-06-02T09:20:44Z</time>
      </trkpt>
      <trkpt lat="44.35131" lon="5.44995">
        <ele>616.2</ele>
        <time>2019-06-02T09:20:51Z</time>
      </trkpt>
      <trkpt lat="44.35122" lon="5.44987">
        <ele>616.5</ele>
        <time>2019-06-02T09:20:58Z</time>
      </trkpt>
      <trkpt lat="44.35119" lon="5.44974">
        <ele>617.4</ele>
        <time>2019-06-02T09:21:09Z</time>
      </trkpt>
      <trkpt lat="44.35113" lon="5.44964">
        <ele>617.8</ele>
        <time>2019-06-02T09:21:17Z</time>
      </trkpt>
      <trkpt lat="44.35109" lon="5.44952">
        <ele>617.5</ele>
        <time>2019-06-02T09:21:26Z</time>
      </trkpt>
      <trkpt lat="44.35106" lon="5.4494">
        <ele>617.2</ele>
        <time>2019-06-02T09:21:33Z</time>
      </trkpt>
      <trkpt lat="44.35101" lon="5.44928">
        <ele>617.1</ele>
        <time>2019-06-02T09:21:40Z</time>
      </trkpt>
      <trkpt lat="44.35096" lon="5.44917">
        <ele>617.3</ele>
        <time>2019-06-02T09:21:48Z</time>
      </trkpt>
      <trkpt lat="44.3509" lon="5.44905">
        <ele>617.6</ele>
        <time>2019-06-02T09:21:55Z</time>
      </trkpt>
      <trkpt lat="44.35085" lon="5.44895">
        <ele>618</ele>
        <time>2019-06-02T09:22:01Z</time>
      </trkpt>
      <trkpt lat="44.35077" lon="5.44885">
        <ele>618.3</ele>
        <time>2019-06-02T09:22:07Z</time>
      </trkpt>
      <trkpt lat="44.35071" lon="5.44876">
        <ele>618.5</ele>
        <time>2019-06-02T09:22:13Z</time>
      </trkpt>
      <trkpt lat="44.35065" lon="5.44867">
        <ele>618.9</ele>
        <time>2019-06-02T09:22:20Z</time>
      </trkpt>
      <trkpt lat="44.35057" lon="5.44858">
        <ele>619.2</ele>
        <time>2019-06-02T09:22:28Z</time>
      </trkpt>
      <trkpt lat="44.3505" lon="5.44849">
        <ele>619.6</ele>
        <time>2019-06-02T09:22:35Z</time>
      </trkpt>
      <trkpt lat="44.35044" lon="5.4484">
        <ele>620</ele>
        <time>2019-06-02T09:22:41Z</time>
      </trkpt>
      <trkpt lat="44.35034" lon="5.44833">
        <ele>620.3</ele>
        <time>2019-06-02T09:22:48Z</time>
      </trkpt>
      <trkpt lat="44.35025" lon="5.44831">
        <ele>620.3</ele>
        <time>2019-06-02T09:22:55Z</time>
      </trkpt>
      <trkpt lat="44.35016" lon="5.44828">
        <ele>619.8</ele>
        <time>2019-06-02T09:23:02Z</time>
      </trkpt>
      <trkpt lat="44.35007" lon="5.44826">
        <ele>619.5</ele>
        <time>2019-06-02T09:23:09Z</time>
      </trkpt>
      <trkpt lat="44.34998" lon="5.4482">
        <ele>618.7</ele>
        <time>2019-06-02T09:23:33Z</time>
      </trkpt>
      <trkpt lat="44.34989" lon="5.44822">
        <ele>618.1</ele>
        <time>2019-06-02T09:25:02Z</time>
      </trkpt>
      <trkpt lat="44.34986" lon="5.4481">
        <ele>618.3</ele>
        <time>2019-06-02T09:26:07Z</time>
      </trkpt>
      <trkpt lat="44.3498" lon="5.448">
        <ele>618.4</ele>
        <time>2019-06-02T09:26:16Z</time>
      </trkpt>
      <trkpt lat="44.34974" lon="5.44789">
        <ele>618.8</ele>
        <time>2019-06-02T09:26:24Z</time>
      </trkpt>
      <trkpt lat="44.34968" lon="5.44779">
        <ele>619.1</ele>
        <time>2019-06-02T09:26:32Z</time>
      </trkpt>
      <trkpt lat="44.34961" lon="5.44769">
        <ele>619.7</ele>
        <time>2019-06-02T09:26:39Z</time>
      </trkpt>
      <trkpt lat="44.34955" lon="5.44759">
        <ele>620.2</ele>
        <time>2019-06-02T09:26:46Z</time>
      </trkpt>
      <trkpt lat="44.34948" lon="5.44749">
        <ele>620.7</ele>
        <time>2019-06-02T09:26:53Z</time>
      </trkpt>
      <trkpt lat="44.34943" lon="5.44738">
        <ele>621.6</ele>
        <time>2019-06-02T09:27:01Z</time>
      </trkpt>
      <trkpt lat="44.34941" lon="5.44725">
        <ele>622.6</ele>
        <time>2019-06-02T09:27:09Z</time>
      </trkpt>
      <trkpt lat="44.34939" lon="5.44711">
        <ele>623.7</ele>
        <time>2019-06-02T09:27:17Z</time>
      </trkpt>
      <trkpt lat="44.3494" lon="5.44698">
        <ele>625.3</ele>
        <time>2019-06-02T09:27:25Z</time>
      </trkpt>
      <trkpt lat="44.34942" lon="5.44684">
        <ele>627.1</ele>
        <time>2019-06-02T09:27:32Z</time>
      </trkpt>
      <trkpt lat="44.3494" lon="5.44671">
        <ele>628.4</ele>
        <time>2019-06-02T09:27:39Z</time>
      </trkpt>
      <trkpt lat="44.34937" lon="5.44659">
        <ele>629.2</ele>
        <time>2019-06-02T09:27:46Z</time>
      </trkpt>
      <trkpt lat="44.34931" lon="5.4465">
        <ele>630.4</ele>
        <time>2019-06-02T09:27:54Z</time>
      </trkpt>
      <trkpt lat="44.34923" lon="5.44641">
        <ele>631.1</ele>
        <time>2019-06-02T09:28:01Z</time>
      </trkpt>
      <trkpt lat="44.34915" lon="5.44634">
        <ele>631.3</ele>
        <time>2019-06-02T09:28:08Z</time>
      </trkpt>
      <trkpt lat="44.34906" lon="5.44629">
        <ele>631.1</ele>
        <time>2019-06-02T09:28:15Z</time>
      </trkpt>
      <trkpt lat="44.34896" lon="5.44625">
        <ele>630.9</ele>
        <time>2019-06-02T09:28:22Z</time>
      </trkpt>
      <trkpt lat="44.34887" lon="5.44621">
        <ele>630.8</ele>
        <time>2019-06-02T09:28:29Z</time>
      </trkpt>
      <trkpt lat="44.34877" lon="5.44619">
        <ele>630.5</ele>
        <time>2019-06-02T09:28:36Z</time>
      </trkpt>
      <trkpt lat="44.34868" lon="5.44618">
        <ele>630.2</ele>
        <time>2019-06-02T09:28:42Z</time>
      </trkpt>
      <trkpt lat="44.34858" lon="5.44618">
        <ele>630</ele>
        <time>2019-06-02T09:28:49Z</time>
      </trkpt>
      <trkpt lat="44.34848" lon="5.44618">
        <ele>629.6</ele>
        <time>2019-06-02T09:28:56Z</time>
      </trkpt>
      <trkpt lat="44.34838" lon="5.44618">
        <ele>629.5</ele>
        <time>2019-06-02T09:29:03Z</time>
      </trkpt>
      <trkpt lat="44.34828" lon="5.44617">
        <ele>629.7</ele>
        <time>2019-06-02T09:29:10Z</time>
      </trkpt>
      <trkpt lat="44.34818" lon="5.44617">
        <ele>629.9</ele>
        <time>2019-06-02T09:29:17Z</time>
      </trkpt>
      <trkpt lat="44.34808" lon="5.44614">
        <ele>630.1</ele>
        <time>2019-06-02T09:29:24Z</time>
      </trkpt>
      <trkpt lat="44.34799" lon="5.4461">
        <ele>630.2</ele>
        <time>2019-06-02T09:29:31Z</time>
      </trkpt>
      <trkpt lat="44.3479" lon="5.44606">
        <ele>630.4</ele>
        <time>2019-06-02T09:29:38Z</time>
      </trkpt>
      <trkpt lat="44.34782" lon="5.44599">
        <ele>630.7</ele>
        <time>2019-06-02T09:29:45Z</time>
      </trkpt>
      <trkpt lat="44.3478" lon="5.44585">
        <ele>631.2</ele>
        <time>2019-06-02T09:29:53Z</time>
      </trkpt>
      <trkpt lat="44.34781" lon="5.44573">
        <ele>632.2</ele>
        <time>2019-06-02T09:30:00Z</time>
      </trkpt>
      <trkpt lat="44.34779" lon="5.4456">
        <ele>633.2</ele>
        <time>2019-06-02T09:30:07Z</time>
      </trkpt>
      <trkpt lat="44.34773" lon="5.4455">
        <ele>635.4</ele>
        <time>2019-06-02T09:30:16Z</time>
      </trkpt>
      <trkpt lat="44.34766" lon="5.44541">
        <ele>637.2</ele>
        <time>2019-06-02T09:30:24Z</time>
      </trkpt>
      <trkpt lat="44.34759" lon="5.44531">
        <ele>638.5</ele>
        <time>2019-06-02T09:30:32Z</time>
      </trkpt>
      <trkpt lat="44.34752" lon="5.44521">
        <ele>639.4</ele>
        <time>2019-06-02T09:30:40Z</time>
      </trkpt>
      <trkpt lat="44.34743" lon="5.44515">
        <ele>640.2</ele>
        <time>2019-06-02T09:30:48Z</time>
      </trkpt>
      <trkpt lat="44.34734" lon="5.44509">
        <ele>640.7</ele>
        <time>2019-06-02T09:30:57Z</time>
      </trkpt>
      <trkpt lat="44.34728" lon="5.44499">
        <ele>641</ele>
        <time>2019-06-02T09:31:04Z</time>
      </trkpt>
      <trkpt lat="44.3472" lon="5.44491">
        <ele>641.9</ele>
        <time>2019-06-02T09:31:12Z</time>
      </trkpt>
      <trkpt lat="44.34712" lon="5.44483">
        <ele>642.9</ele>
        <time>2019-06-02T09:31:20Z</time>
      </trkpt>
      <trkpt lat="44.34704" lon="5.44476">
        <ele>644.2</ele>
        <time>2019-06-02T09:31:28Z</time>
      </trkpt>
      <trkpt lat="44.34696" lon="5.44469">
        <ele>645.5</ele>
        <time>2019-06-02T09:31:36Z</time>
      </trkpt>
      <trkpt lat="44.34688" lon="5.44463">
        <ele>646.5</ele>
        <time>2019-06-02T09:31:44Z</time>
      </trkpt>
      <trkpt lat="44.34679" lon="5.44459">
        <ele>646.9</ele>
        <time>2019-06-02T09:31:52Z</time>
      </trkpt>
      <trkpt lat="44.3467" lon="5.44456">
        <ele>646.9</ele>
        <time>2019-06-02T09:32:02Z</time>
      </trkpt>
      <trkpt lat="44.3466" lon="5.44454">
        <ele>646.3</ele>
        <time>2019-06-02T09:32:12Z</time>
      </trkpt>
      <trkpt lat="44.34651" lon="5.44455">
        <ele>644.8</ele>
        <time>2019-06-02T09:32:22Z</time>
      </trkpt>
      <trkpt lat="44.34642" lon="5.44457">
        <ele>643.1</ele>
        <time>2019-06-02T09:32:31Z</time>
      </trkpt>
      <trkpt lat="44.34632" lon="5.44458">
        <ele>642</ele>
        <time>2019-06-02T09:32:39Z</time>
      </trkpt>
      <trkpt lat="44.34623" lon="5.4446">
        <ele>641.3</ele>
        <time>2019-06-02T09:32:45Z</time>
      </trkpt>
      <trkpt lat="44.34614" lon="5.44458">
        <ele>640.4</ele>
        <time>2019-06-02T09:32:54Z</time>
      </trkpt>
      <trkpt lat="44.34606" lon="5.4445">
        <ele>640.3</ele>
        <time>2019-06-02T09:33:04Z</time>
      </trkpt>
      <trkpt lat="44.34597" lon="5.44444">
        <ele>640.1</ele>
        <time>2019-06-02T09:33:13Z</time>
      </trkpt>
      <trkpt lat="44.34589" lon="5.44436">
        <ele>640.6</ele>
        <time>2019-06-02T09:33:23Z</time>
      </trkpt>
      <trkpt lat="44.34582" lon="5.44428">
        <ele>641</ele>
        <time>2019-06-02T09:33:30Z</time>
      </trkpt>
      <trkpt lat="44.34573" lon="5.44422">
        <ele>641.4</ele>
        <time>2019-06-02T09:33:38Z</time>
      </trkpt>
      <trkpt lat="44.34564" lon="5.44419">
        <ele>641.6</ele>
        <time>2019-06-02T09:33:45Z</time>
      </trkpt>
      <trkpt lat="44.34554" lon="5.44417">
        <ele>641.8</ele>
        <time>2019-06-02T09:33:54Z</time>
      </trkpt>
      <trkpt lat="44.34544" lon="5.44417">
        <ele>642</ele>
        <time>2019-06-02T09:34:02Z</time>
      </trkpt>
      <trkpt lat="44.34534" lon="5.44415">
        <ele>642.4</ele>
        <time>2019-06-02T09:34:10Z</time>
      </trkpt>
      <trkpt lat="44.34524" lon="5.44412">
        <ele>642.7</ele>
        <time>2019-06-02T09:34:19Z</time>
      </trkpt>
      <trkpt lat="44.34515" lon="5.44406">
        <ele>643.1</ele>
        <time>2019-06-02T09:34:27Z</time>
      </trkpt>
      <trkpt lat="44.34507" lon="5.44401">
        <ele>643.3</ele>
        <time>2019-06-02T09:34:35Z</time>
      </trkpt>
      <trkpt lat="44.345" lon="5.44392">
        <ele>643.6</ele>
        <time>2019-06-02T09:34:44Z</time>
      </trkpt>
      <trkpt lat="44.34492" lon="5.44386">
        <ele>644</ele>
        <time>2019-06-02T09:34:52Z</time>
      </trkpt>
      <trkpt lat="44.34484" lon="5.44378">
        <ele>644.4</ele>
        <time>2019-06-02T09:35:01Z</time>
      </trkpt>
      <trkpt lat="44.34476" lon="5.44372">
        <ele>644.7</ele>
        <time>2019-06-02T09:35:09Z</time>
      </trkpt>
      <trkpt lat="44.34468" lon="5.44363">
        <ele>645.4</ele>
        <time>2019-06-02T09:35:18Z</time>
      </trkpt>
      <trkpt lat="44.3446" lon="5.44355">
        <ele>645.8</ele>
        <time>2019-06-02T09:35:32Z</time>
      </trkpt>
      <trkpt lat="44.34451" lon="5.44353">
        <ele>646</ele>
        <time>2019-06-02T09:35:41Z</time>
      </trkpt>
      <trkpt lat="44.34441" lon="5.4435">
        <ele>646.7</ele>
        <time>2019-06-02T09:35:49Z</time>
      </trkpt>
      <trkpt lat="44.34431" lon="5.44347">
        <ele>647.5</ele>
        <time>2019-06-02T09:35:58Z</time>
      </trkpt>
      <trkpt lat="44.34421" lon="5.44344">
        <ele>647.9</ele>
        <time>2019-06-02T09:36:06Z</time>
      </trkpt>
      <trkpt lat="44.34412" lon="5.44343">
        <ele>648.1</ele>
        <time>2019-06-02T09:36:15Z</time>
      </trkpt>
      <trkpt lat="44.34403" lon="5.44339">
        <ele>648.3</ele>
        <time>2019-06-02T09:36:23Z</time>
      </trkpt>
      <trkpt lat="44.34394" lon="5.44337">
        <ele>648.6</ele>
        <time>2019-06-02T09:36:35Z</time>
      </trkpt>
      <trkpt lat="44.34385" lon="5.44333">
        <ele>650.1</ele>
        <time>2019-06-02T09:36:44Z</time>
      </trkpt>
      <trkpt lat="44.34376" lon="5.4433">
        <ele>652.8</ele>
        <time>2019-06-02T09:36:54Z</time>
      </trkpt>
      <trkpt lat="44.34367" lon="5.44325">
        <ele>655.1</ele>
        <time>2019-06-02T09:37:02Z</time>
      </trkpt>
      <trkpt lat="44.34359" lon="5.44319">
        <ele>656.6</ele>
        <time>2019-06-02T09:37:10Z</time>
      </trkpt>
      <trkpt lat="44.34349" lon="5.44315">
        <ele>657.5</ele>
        <time>2019-06-02T09:37:18Z</time>
      </trkpt>
      <trkpt lat="44.34339" lon="5.44312">
        <ele>658.2</ele>
        <time>2019-06-02T09:37:26Z</time>
      </trkpt>
      <trkpt lat="44.34331" lon="5.44307">
        <ele>658.7</ele>
        <time>2019-06-02T09:37:33Z</time>
      </trkpt>
      <trkpt lat="44.34322" lon="5.44302">
        <ele>659</ele>
        <time>2019-06-02T09:37:40Z</time>
      </trkpt>
      <trkpt lat="44.34314" lon="5.44296">
        <ele>659.1</ele>
        <time>2019-06-02T09:37:47Z</time>
      </trkpt>
      <trkpt lat="44.34305" lon="5.44292">
        <ele>659.6</ele>
        <time>2019-06-02T09:37:54Z</time>
      </trkpt>
      <trkpt lat="44.34295" lon="5.44288">
        <ele>660.6</ele>
        <time>2019-06-02T09:38:03Z</time>
      </trkpt>
      <trkpt lat="44.34285" lon="5.44285">
        <ele>661.1</ele>
        <time>2019-06-02T09:38:10Z</time>
      </trkpt>
      <trkpt lat="44.34276" lon="5.44286">
        <ele>662.5</ele>
        <time>2019-06-02T09:38:20Z</time>
      </trkpt>
      <trkpt lat="44.34275" lon="5.44299">
        <ele>664.2</ele>
        <time>2019-06-02T09:38:32Z</time>
      </trkpt>
      <trkpt lat="44.34265" lon="5.44299">
        <ele>665.7</ele>
        <time>2019-06-02T09:38:40Z</time>
      </trkpt>
      <trkpt lat="44.34256" lon="5.44294">
        <ele>666.7</ele>
        <time>2019-06-02T09:38:46Z</time>
      </trkpt>
      <trkpt lat="44.34247" lon="5.44289">
        <ele>667.9</ele>
        <time>2019-06-02T09:38:53Z</time>
      </trkpt>
      <trkpt lat="44.34237" lon="5.44287">
        <ele>668.7</ele>
        <time>2019-06-02T09:39:00Z</time>
      </trkpt>
      <trkpt lat="44.34227" lon="5.44287">
        <ele>669.6</ele>
        <time>2019-06-02T09:39:07Z</time>
      </trkpt>
      <trkpt lat="44.34218" lon="5.44285">
        <ele>670.1</ele>
        <time>2019-06-02T09:39:14Z</time>
      </trkpt>
      <trkpt lat="44.34209" lon="5.44284">
        <ele>670.5</ele>
        <time>2019-06-02T09:39:21Z</time>
      </trkpt>
      <trkpt lat="44.34199" lon="5.44281">
        <ele>670.8</ele>
        <time>2019-06-02T09:39:29Z</time>
      </trkpt>
      <trkpt lat="44.34191" lon="5.44277">
        <ele>671</ele>
        <time>2019-06-02T09:39:36Z</time>
      </trkpt>
      <trkpt lat="44.34182" lon="5.44272">
        <ele>671.1</ele>
        <time>2019-06-02T09:39:43Z</time>
      </trkpt>
      <trkpt lat="44.34174" lon="5.44266">
        <ele>671.3</ele>
        <time>2019-06-02T09:39:50Z</time>
      </trkpt>
      <trkpt lat="44.34165" lon="5.44259">
        <ele>671.6</ele>
        <time>2019-06-02T09:39:57Z</time>
      </trkpt>
      <trkpt lat="44.34156" lon="5.44252">
        <ele>671.7</ele>
        <time>2019-06-02T09:40:04Z</time>
      </trkpt>
      <trkpt lat="44.34148" lon="5.44244">
        <ele>672</ele>
        <time>2019-06-02T09:40:11Z</time>
      </trkpt>
      <trkpt lat="44.3414" lon="5.44236">
        <ele>672.2</ele>
        <time>2019-06-02T09:40:18Z</time>
      </trkpt>
      <trkpt lat="44.34132" lon="5.44227">
        <ele>672.3</ele>
        <time>2019-06-02T09:40:25Z</time>
      </trkpt>
      <trkpt lat="44.34141" lon="5.44231">
        <ele>672.1</ele>
        <time>2019-06-02T09:40:47Z</time>
      </trkpt>
      <trkpt lat="44.34149" lon="5.4424">
        <ele>671.8</ele>
        <time>2019-06-02T09:40:54Z</time>
      </trkpt>
      <trkpt lat="44.34157" lon="5.44247">
        <ele>671.8</ele>
        <time>2019-06-02T09:40:59Z</time>
      </trkpt>
      <trkpt lat="44.34166" lon="5.44253">
        <ele>672</ele>
        <time>2019-06-02T09:41:06Z</time>
      </trkpt>
      <trkpt lat="44.34174" lon="5.44259">
        <ele>671.9</ele>
        <time>2019-06-02T09:41:12Z</time>
      </trkpt>
      <trkpt lat="44.34183" lon="5.44265">
        <ele>672.2</ele>
        <time>2019-06-02T09:41:19Z</time>
      </trkpt>
      <trkpt lat="44.34191" lon="5.44272">
        <ele>671.9</ele>
        <time>2019-06-02T09:41:27Z</time>
      </trkpt>
      <trkpt lat="44.34199" lon="5.44278">
        <ele>672</ele>
        <time>2019-06-02T09:41:35Z</time>
      </trkpt>
      <trkpt lat="44.34208" lon="5.44281">
        <ele>672</ele>
        <time>2019-06-02T09:41:42Z</time>
      </trkpt>
      <trkpt lat="44.34218" lon="5.44281">
        <ele>671.8</ele>
        <time>2019-06-02T09:41:49Z</time>
      </trkpt>
      <trkpt lat="44.34228" lon="5.44283">
        <ele>671.5</ele>
        <time>2019-06-02T09:41:56Z</time>
      </trkpt>
      <trkpt lat="44.34238" lon="5.44286">
        <ele>671.3</ele>
        <time>2019-06-02T09:42:03Z</time>
      </trkpt>
      <trkpt lat="44.34247" lon="5.44292">
        <ele>670.9</ele>
        <time>2019-06-02T09:42:10Z</time>
      </trkpt>
      <trkpt lat="44.34254" lon="5.44301">
        <ele>670.7</ele>
        <time>2019-06-02T09:42:17Z</time>
      </trkpt>
      <trkpt lat="44.34258" lon="5.44289">
        <ele>668.1</ele>
        <time>2019-06-02T09:42:46Z</time>
      </trkpt>
      <trkpt lat="44.34267" lon="5.44283">
        <ele>667.1</ele>
        <time>2019-06-02T09:42:57Z</time>
      </trkpt>
      <trkpt lat="44.34272" lon="5.44273">
        <ele>665</ele>
        <time>2019-06-02T09:43:18Z</time>
      </trkpt>
      <trkpt lat="44.34279" lon="5.44265">
        <ele>662.7</ele>
        <time>2019-06-02T09:43:30Z</time>
      </trkpt>
      <trkpt lat="44.34286" lon="5.44257">
        <ele>658.6</ele>
        <time>2019-06-02T09:43:45Z</time>
      </trkpt>
      <trkpt lat="44.34284" lon="5.44243">
        <ele>654.7</ele>
        <time>2019-06-02T09:44:11Z</time>
      </trkpt>
      <trkpt lat="44.34275" lon="5.4424">
        <ele>655.3</ele>
        <time>2019-06-02T09:45:05Z</time>
      </trkpt>
      <trkpt lat="44.34268" lon="5.44232">
        <ele>655.8</ele>
        <time>2019-06-02T09:45:34Z</time>
      </trkpt>
      <trkpt lat="44.3426" lon="5.44224">
        <ele>657.5</ele>
        <time>2019-06-02T09:47:07Z</time>
      </trkpt>
      <trkpt lat="44.34253" lon="5.44217">
        <ele>659.3</ele>
        <time>2019-06-02T09:47:17Z</time>
      </trkpt>
      <trkpt lat="44.34247" lon="5.44207">
        <ele>662.5</ele>
        <time>2019-06-02T09:47:30Z</time>
      </trkpt>
      <trkpt lat="44.34237" lon="5.44205">
        <ele>665.6</ele>
        <time>2019-06-02T09:47:45Z</time>
      </trkpt>
      <trkpt lat="44.34232" lon="5.44215">
        <ele>670.5</ele>
        <time>2019-06-02T09:48:33Z</time>
      </trkpt>
      <trkpt lat="44.34223" lon="5.44216">
        <ele>671.5</ele>
        <time>2019-06-02T09:48:54Z</time>
      </trkpt>
      <trkpt lat="44.34219" lon="5.44204">
        <ele>674.3</ele>
        <time>2019-06-02T09:49:06Z</time>
      </trkpt>
      <trkpt lat="44.34213" lon="5.44193">
        <ele>677.1</ele>
        <time>2019-06-02T09:49:16Z</time>
      </trkpt>
      <trkpt lat="44.34207" lon="5.44183">
        <ele>679.4</ele>
        <time>2019-06-02T09:49:26Z</time>
      </trkpt>
      <trkpt lat="44.34202" lon="5.44173">
        <ele>682.5</ele>
        <time>2019-06-02T09:49:44Z</time>
      </trkpt>
      <trkpt lat="44.34195" lon="5.44164">
        <ele>683.6</ele>
        <time>2019-06-02T09:49:55Z</time>
      </trkpt>
      <trkpt lat="44.34188" lon="5.44154">
        <ele>684.4</ele>
        <time>2019-06-02T09:50:05Z</time>
      </trkpt>
      <trkpt lat="44.34181" lon="5.44145">
        <ele>685.2</ele>
        <time>2019-06-02T09:50:15Z</time>
      </trkpt>
      <trkpt lat="44.34175" lon="5.44136">
        <ele>685.8</ele>
        <time>2019-06-02T09:50:24Z</time>
      </trkpt>
      <trkpt lat="44.34166" lon="5.44129">
        <ele>687</ele>
        <time>2019-06-02T09:50:34Z</time>
      </trkpt>
      <trkpt lat="44.34158" lon="5.44122">
        <ele>688.1</ele>
        <time>2019-06-02T09:50:44Z</time>
      </trkpt>
      <trkpt lat="44.34148" lon="5.4412">
        <ele>689.3</ele>
        <time>2019-06-02T09:50:54Z</time>
      </trkpt>
      <trkpt lat="44.3414" lon="5.44114">
        <ele>690.7</ele>
        <time>2019-06-02T09:51:06Z</time>
      </trkpt>
      <trkpt lat="44.34131" lon="5.44109">
        <ele>692.5</ele>
        <time>2019-06-02T09:51:17Z</time>
      </trkpt>
      <trkpt lat="44.34123" lon="5.44102">
        <ele>693.7</ele>
        <time>2019-06-02T09:51:28Z</time>
      </trkpt>
      <trkpt lat="44.34114" lon="5.44097">
        <ele>694.6</ele>
        <time>2019-06-02T09:51:38Z</time>
      </trkpt>
      <trkpt lat="44.34105" lon="5.44093">
        <ele>695.2</ele>
        <time>2019-06-02T09:51:47Z</time>
      </trkpt>
      <trkpt lat="44.34096" lon="5.44087">
        <ele>695.5</ele>
        <time>2019-06-02T09:51:57Z</time>
      </trkpt>
      <trkpt lat="44.34088" lon="5.4408">
        <ele>696.3</ele>
        <time>2019-06-02T09:52:07Z</time>
      </trkpt>
      <trkpt lat="44.34079" lon="5.44074">
        <ele>698</ele>
        <time>2019-06-02T09:52:18Z</time>
      </trkpt>
      <trkpt lat="44.34067" lon="5.44067">
        <ele>699</ele>
        <time>2019-06-02T09:52:30Z</time>
      </trkpt>
      <trkpt lat="44.34058" lon="5.44059">
        <ele>701</ele>
        <time>2019-06-02T09:52:43Z</time>
      </trkpt>
      <trkpt lat="44.3405" lon="5.44053">
        <ele>704.1</ele>
        <time>2019-06-02T09:52:57Z</time>
      </trkpt>
      <trkpt lat="44.3404" lon="5.44051">
        <ele>706.6</ele>
        <time>2019-06-02T09:53:07Z</time>
      </trkpt>
      <trkpt lat="44.34031" lon="5.44051">
        <ele>708</ele>
        <time>2019-06-02T09:53:16Z</time>
      </trkpt>
      <trkpt lat="44.34019" lon="5.44049">
        <ele>708</ele>
        <time>2019-06-02T09:53:27Z</time>
      </trkpt>
      <trkpt lat="44.34005" lon="5.4405">
        <ele>708</ele>
        <time>2019-06-02T09:53:39Z</time>
      </trkpt>
      <trkpt lat="44.33995" lon="5.44046">
        <ele>708.9</ele>
        <time>2019-06-02T09:53:50Z</time>
      </trkpt>
      <trkpt lat="44.33988" lon="5.44038">
        <ele>710.5</ele>
        <time>2019-06-02T09:54:01Z</time>
      </trkpt>
      <trkpt lat="44.3398" lon="5.4403">
        <ele>711.5</ele>
        <time>2019-06-02T09:54:11Z</time>
      </trkpt>
      <trkpt lat="44.33973" lon="5.44021">
        <ele>712.8</ele>
        <time>2019-06-02T09:54:21Z</time>
      </trkpt>
      <trkpt lat="44.33966" lon="5.44011">
        <ele>714.6</ele>
        <time>2019-06-02T09:54:31Z</time>
      </trkpt>
      <trkpt lat="44.3396" lon="5.44002">
        <ele>716.1</ele>
        <time>2019-06-02T09:54:41Z</time>
      </trkpt>
      <trkpt lat="44.33951" lon="5.43994">
        <ele>717.1</ele>
        <time>2019-06-02T09:54:50Z</time>
      </trkpt>
      <trkpt lat="44.33944" lon="5.43987">
        <ele>718.1</ele>
        <time>2019-06-02T09:54:59Z</time>
      </trkpt>
      <trkpt lat="44.33936" lon="5.43979">
        <ele>719.2</ele>
        <time>2019-06-02T09:55:09Z</time>
      </trkpt>
      <trkpt lat="44.33929" lon="5.4397">
        <ele>720.9</ele>
        <time>2019-06-02T09:55:20Z</time>
      </trkpt>
      <trkpt lat="44.3393" lon="5.43957">
        <ele>722</ele>
        <time>2019-06-02T09:55:30Z</time>
      </trkpt>
      <trkpt lat="44.33928" lon="5.43944">
        <ele>722.7</ele>
        <time>2019-06-02T09:55:39Z</time>
      </trkpt>
      <trkpt lat="44.33924" lon="5.43932">
        <ele>722.2</ele>
        <time>2019-06-02T09:56:01Z</time>
      </trkpt>
      <trkpt lat="44.33919" lon="5.43921">
        <ele>722.1</ele>
        <time>2019-06-02T09:57:00Z</time>
      </trkpt>
      <trkpt lat="44.33914" lon="5.4391">
        <ele>722.8</ele>
        <time>2019-06-02T09:57:23Z</time>
      </trkpt>
      <trkpt lat="44.33915" lon="5.43896">
        <ele>723.2</ele>
        <time>2019-06-02T09:57:34Z</time>
      </trkpt>
      <trkpt lat="44.33917" lon="5.43883">
        <ele>723.9</ele>
        <time>2019-06-02T09:57:44Z</time>
      </trkpt>
      <trkpt lat="44.33914" lon="5.4387">
        <ele>725.1</ele>
        <time>2019-06-02T09:57:58Z</time>
      </trkpt>
      <trkpt lat="44.33906" lon="5.43864">
        <ele>726.7</ele>
        <time>2019-06-02T09:58:11Z</time>
      </trkpt>
      <trkpt lat="44.33897" lon="5.4386">
        <ele>728.3</ele>
        <time>2019-06-02T09:58:22Z</time>
      </trkpt>
      <trkpt lat="44.33889" lon="5.43851">
        <ele>729.7</ele>
        <time>2019-06-02T09:58:33Z</time>
      </trkpt>
      <trkpt lat="44.33882" lon="5.43843">
        <ele>731.5</ele>
        <time>2019-06-02T09:58:44Z</time>
      </trkpt>
      <trkpt lat="44.33875" lon="5.43834">
        <ele>732.8</ele>
        <time>2019-06-02T09:58:54Z</time>
      </trkpt>
      <trkpt lat="44.33869" lon="5.43824">
        <ele>734.9</ele>
        <time>2019-06-02T09:59:08Z</time>
      </trkpt>
      <trkpt lat="44.33863" lon="5.43814">
        <ele>737.6</ele>
        <time>2019-06-02T09:59:28Z</time>
      </trkpt>
      <trkpt lat="44.33857" lon="5.43804">
        <ele>738.7</ele>
        <time>2019-06-02T09:59:37Z</time>
      </trkpt>
      <trkpt lat="44.33852" lon="5.43792">
        <ele>740.2</ele>
        <time>2019-06-02T09:59:47Z</time>
      </trkpt>
      <trkpt lat="44.33846" lon="5.43782">
        <ele>742</ele>
        <time>2019-06-02T09:59:56Z</time>
      </trkpt>
      <trkpt lat="44.33841" lon="5.43771">
        <ele>743.3</ele>
        <time>2019-06-02T10:00:05Z</time>
      </trkpt>
      <trkpt lat="44.33835" lon="5.4376">
        <ele>745.4</ele>
        <time>2019-06-02T10:00:17Z</time>
      </trkpt>
      <trkpt lat="44.33836" lon="5.43747">
        <ele>746.7</ele>
        <time>2019-06-02T10:00:26Z</time>
      </trkpt>
      <trkpt lat="44.33837" lon="5.43734">
        <ele>747.9</ele>
        <time>2019-06-02T10:00:35Z</time>
      </trkpt>
      <trkpt lat="44.33828" lon="5.43733">
        <ele>749.7</ele>
        <time>2019-06-02T10:00:48Z</time>
      </trkpt>
      <trkpt lat="44.33819" lon="5.43736">
        <ele>751.7</ele>
        <time>2019-06-02T10:01:02Z</time>
      </trkpt>
      <trkpt lat="44.3381" lon="5.4374">
        <ele>752.6</ele>
        <time>2019-06-02T10:01:11Z</time>
      </trkpt>
      <trkpt lat="44.338" lon="5.43744">
        <ele>753.4</ele>
        <time>2019-06-02T10:01:20Z</time>
      </trkpt>
      <trkpt lat="44.33791" lon="5.43748">
        <ele>753.9</ele>
        <time>2019-06-02T10:01:27Z</time>
      </trkpt>
      <trkpt lat="44.33783" lon="5.43752">
        <ele>754.1</ele>
        <time>2019-06-02T10:01:34Z</time>
      </trkpt>
      <trkpt lat="44.33773" lon="5.43757">
        <ele>753.9</ele>
        <time>2019-06-02T10:01:42Z</time>
      </trkpt>
      <trkpt lat="44.33765" lon="5.43763">
        <ele>753.9</ele>
        <time>2019-06-02T10:01:50Z</time>
      </trkpt>
      <trkpt lat="44.33757" lon="5.43769">
        <ele>754.4</ele>
        <time>2019-06-02T10:01:58Z</time>
      </trkpt>
      <trkpt lat="44.33748" lon="5.43776">
        <ele>755.1</ele>
        <time>2019-06-02T10:02:07Z</time>
      </trkpt>
      <trkpt lat="44.33738" lon="5.43781">
        <ele>755.7</ele>
        <time>2019-06-02T10:02:15Z</time>
      </trkpt>
      <trkpt lat="44.33729" lon="5.43782">
        <ele>756.4</ele>
        <time>2019-06-02T10:02:24Z</time>
      </trkpt>
      <trkpt lat="44.3372" lon="5.43785">
        <ele>756.8</ele>
        <time>2019-06-02T10:02:31Z</time>
      </trkpt>
      <trkpt lat="44.33711" lon="5.4379">
        <ele>756.6</ele>
        <time>2019-06-02T10:02:38Z</time>
      </trkpt>
      <trkpt lat="44.33703" lon="5.43795">
        <ele>756.6</ele>
        <time>2019-06-02T10:02:45Z</time>
      </trkpt>
      <trkpt lat="44.33694" lon="5.43802">
        <ele>756.5</ele>
        <time>2019-06-02T10:02:52Z</time>
      </trkpt>
      <trkpt lat="44.33687" lon="5.43812">
        <ele>755.9</ele>
        <time>2019-06-02T10:02:59Z</time>
      </trkpt>
      <trkpt lat="44.33682" lon="5.43825">
        <ele>755.3</ele>
        <time>2019-06-02T10:03:06Z</time>
      </trkpt>
      <trkpt lat="44.33678" lon="5.43838">
        <ele>754.9</ele>
        <time>2019-06-02T10:03:13Z</time>
      </trkpt>
      <trkpt lat="44.33674" lon="5.4385">
        <ele>755</ele>
        <time>2019-06-02T10:03:20Z</time>
      </trkpt>
      <trkpt lat="44.33669" lon="5.43863">
        <ele>754.9</ele>
        <time>2019-06-02T10:03:27Z</time>
      </trkpt>
      <trkpt lat="44.33663" lon="5.43874">
        <ele>754.6</ele>
        <time>2019-06-02T10:03:34Z</time>
      </trkpt>
      <trkpt lat="44.33657" lon="5.43884">
        <ele>754.1</ele>
        <time>2019-06-02T10:03:42Z</time>
      </trkpt>
      <trkpt lat="44.33652" lon="5.43897">
        <ele>753.6</ele>
        <time>2019-06-02T10:03:50Z</time>
      </trkpt>
      <trkpt lat="44.33644" lon="5.43905">
        <ele>752.9</ele>
        <time>2019-06-02T10:03:58Z</time>
      </trkpt>
      <trkpt lat="44.33636" lon="5.43912">
        <ele>752.2</ele>
        <time>2019-06-02T10:04:06Z</time>
      </trkpt>
      <trkpt lat="44.33636" lon="5.43926">
        <ele>751.4</ele>
        <time>2019-06-02T10:04:15Z</time>
      </trkpt>
      <trkpt lat="44.33642" lon="5.43935">
        <ele>750.9</ele>
        <time>2019-06-02T10:04:22Z</time>
      </trkpt>
      <trkpt lat="44.33647" lon="5.43946">
        <ele>750.4</ele>
        <time>2019-06-02T10:04:29Z</time>
      </trkpt>
      <trkpt lat="44.33649" lon="5.43959">
        <ele>749.7</ele>
        <time>2019-06-02T10:04:36Z</time>
      </trkpt>
      <trkpt lat="44.33649" lon="5.43972">
        <ele>748.8</ele>
        <time>2019-06-02T10:04:43Z</time>
      </trkpt>
      <trkpt lat="44.33647" lon="5.43985">
        <ele>748.1</ele>
        <time>2019-06-02T10:04:50Z</time>
      </trkpt>
      <trkpt lat="44.33644" lon="5.43998">
        <ele>747.7</ele>
        <time>2019-06-02T10:04:58Z</time>
      </trkpt>
      <trkpt lat="44.33642" lon="5.44011">
        <ele>747.4</ele>
        <time>2019-06-02T10:05:05Z</time>
      </trkpt>
      <trkpt lat="44.33639" lon="5.44023">
        <ele>746.7</ele>
        <time>2019-06-02T10:05:12Z</time>
      </trkpt>
      <trkpt lat="44.33636" lon="5.44035">
        <ele>746.1</ele>
        <time>2019-06-02T10:05:19Z</time>
      </trkpt>
      <trkpt lat="44.33633" lon="5.44048">
        <ele>745.5</ele>
        <time>2019-06-02T10:05:26Z</time>
      </trkpt>
      <trkpt lat="44.33629" lon="5.44061">
        <ele>744.8</ele>
        <time>2019-06-02T10:05:33Z</time>
      </trkpt>
      <trkpt lat="44.33627" lon="5.44073">
        <ele>744.3</ele>
        <time>2019-06-02T10:05:40Z</time>
      </trkpt>
      <trkpt lat="44.33626" lon="5.44086">
        <ele>743.9</ele>
        <time>2019-06-02T10:05:47Z</time>
      </trkpt>
      <trkpt lat="44.33626" lon="5.44099">
        <ele>743.5</ele>
        <time>2019-06-02T10:05:54Z</time>
      </trkpt>
      <trkpt lat="44.33623" lon="5.44111">
        <ele>743</ele>
        <time>2019-06-02T10:06:01Z</time>
      </trkpt>
      <trkpt lat="44.33619" lon="5.44123">
        <ele>742.7</ele>
        <time>2019-06-02T10:06:10Z</time>
      </trkpt>
      <trkpt lat="44.33612" lon="5.4413">
        <ele>742.3</ele>
        <time>2019-06-02T10:06:18Z</time>
      </trkpt>
      <trkpt lat="44.33604" lon="5.44138">
        <ele>742.1</ele>
        <time>2019-06-02T10:06:26Z</time>
      </trkpt>
      <trkpt lat="44.33596" lon="5.44147">
        <ele>742</ele>
        <time>2019-06-02T10:06:35Z</time>
      </trkpt>
      <trkpt lat="44.33587" lon="5.44154">
        <ele>741.8</ele>
        <time>2019-06-02T10:06:43Z</time>
      </trkpt>
      <trkpt lat="44.33578" lon="5.44157">
        <ele>741.5</ele>
        <time>2019-06-02T10:06:51Z</time>
      </trkpt>
      <trkpt lat="44.33568" lon="5.44156">
        <ele>741.3</ele>
        <time>2019-06-02T10:07:00Z</time>
      </trkpt>
      <trkpt lat="44.33565" lon="5.44143">
        <ele>743.3</ele>
        <time>2019-06-02T10:07:38Z</time>
      </trkpt>
      <trkpt lat="44.33559" lon="5.44133">
        <ele>744.5</ele>
        <time>2019-06-02T10:07:54Z</time>
      </trkpt>
      <trkpt lat="44.33553" lon="5.44123">
        <ele>745.3</ele>
        <time>2019-06-02T10:08:04Z</time>
      </trkpt>
      <trkpt lat="44.33549" lon="5.4411">
        <ele>747.4</ele>
        <time>2019-06-02T10:08:41Z</time>
      </trkpt>
      <trkpt lat="44.33549" lon="5.44097">
        <ele>747.9</ele>
        <time>2019-06-02T10:08:50Z</time>
      </trkpt>
      <trkpt lat="44.33547" lon="5.44084">
        <ele>749.2</ele>
        <time>2019-06-02T10:08:59Z</time>
      </trkpt>
      <trkpt lat="44.33543" lon="5.44073">
        <ele>750.5</ele>
        <time>2019-06-02T10:09:09Z</time>
      </trkpt>
      <trkpt lat="44.33538" lon="5.44062">
        <ele>752.5</ele>
        <time>2019-06-02T10:09:19Z</time>
      </trkpt>
      <trkpt lat="44.33533" lon="5.4405">
        <ele>753.9</ele>
        <time>2019-06-02T10:09:29Z</time>
      </trkpt>
      <trkpt lat="44.33529" lon="5.44038">
        <ele>755.4</ele>
        <time>2019-06-02T10:09:39Z</time>
      </trkpt>
      <trkpt lat="44.33525" lon="5.44027">
        <ele>759.1</ele>
        <time>2019-06-02T10:10:19Z</time>
      </trkpt>
      <trkpt lat="44.33521" lon="5.44015">
        <ele>760.1</ele>
        <time>2019-06-02T10:10:31Z</time>
      </trkpt>
      <trkpt lat="44.33518" lon="5.44002">
        <ele>761</ele>
        <time>2019-06-02T10:10:41Z</time>
      </trkpt>
      <trkpt lat="44.33514" lon="5.43991">
        <ele>762.5</ele>
        <time>2019-06-02T10:10:51Z</time>
      </trkpt>
      <trkpt lat="44.33507" lon="5.43981">
        <ele>763.8</ele>
        <time>2019-06-02T10:11:02Z</time>
      </trkpt>
      <trkpt lat="44.33499" lon="5.43974">
        <ele>765.7</ele>
        <time>2019-06-02T10:11:13Z</time>
      </trkpt>
      <trkpt lat="44.33491" lon="5.43967">
        <ele>768.3</ele>
        <time>2019-06-02T10:11:24Z</time>
      </trkpt>
      <trkpt lat="44.33482" lon="5.43962">
        <ele>770.5</ele>
        <time>2019-06-02T10:11:35Z</time>
      </trkpt>
      <trkpt lat="44.33474" lon="5.43955">
        <ele>772.7</ele>
        <time>2019-06-02T10:11:46Z</time>
      </trkpt>
      <trkpt lat="44.33466" lon="5.43949">
        <ele>775</ele>
        <time>2019-06-02T10:11:57Z</time>
      </trkpt>
      <trkpt lat="44.33457" lon="5.43951">
        <ele>778.2</ele>
        <time>2019-06-02T10:12:15Z</time>
      </trkpt>
      <trkpt lat="44.33449" lon="5.43957">
        <ele>779.9</ele>
        <time>2019-06-02T10:12:31Z</time>
      </trkpt>
      <trkpt lat="44.3344" lon="5.43959">
        <ele>782.4</ele>
        <time>2019-06-02T10:14:17Z</time>
      </trkpt>
      <trkpt lat="44.33431" lon="5.4396">
        <ele>783.1</ele>
        <time>2019-06-02T10:14:32Z</time>
      </trkpt>
      <trkpt lat="44.33422" lon="5.43966">
        <ele>784.2</ele>
        <time>2019-06-02T10:14:54Z</time>
      </trkpt>
      <trkpt lat="44.33414" lon="5.43971">
        <ele>784.4</ele>
        <time>2019-06-02T10:15:05Z</time>
      </trkpt>
      <trkpt lat="44.33406" lon="5.43977">
        <ele>784</ele>
        <time>2019-06-02T10:15:15Z</time>
      </trkpt>
      <trkpt lat="44.33412" lon="5.43968">
        <ele>783.6</ele>
        <time>2019-06-02T10:17:08Z</time>
      </trkpt>
      <trkpt lat="44.33404" lon="5.4396">
        <ele>786.1</ele>
        <time>2019-06-02T10:17:40Z</time>
      </trkpt>
      <trkpt lat="44.33395" lon="5.43959">
        <ele>787.6</ele>
        <time>2019-06-02T10:17:52Z</time>
      </trkpt>
      <trkpt lat="44.33385" lon="5.43958">
        <ele>788.9</ele>
        <time>2019-06-02T10:18:03Z</time>
      </trkpt>
      <trkpt lat="44.33376" lon="5.43957">
        <ele>790.4</ele>
        <time>2019-06-02T10:18:15Z</time>
      </trkpt>
      <trkpt lat="44.33385" lon="5.43959">
        <ele>792.2</ele>
        <time>2019-06-02T10:18:55Z</time>
      </trkpt>
      <trkpt lat="44.33395" lon="5.43959">
        <ele>791.9</ele>
        <time>2019-06-02T10:19:06Z</time>
      </trkpt>
      <trkpt lat="44.33404" lon="5.43959">
        <ele>791.2</ele>
        <time>2019-06-02T10:19:16Z</time>
      </trkpt>
      <trkpt lat="44.33413" lon="5.43956">
        <ele>789.9</ele>
        <time>2019-06-02T10:19:46Z</time>
      </trkpt>
      <trkpt lat="44.33423" lon="5.43955">
        <ele>790.3</ele>
        <time>2019-06-02T10:20:17Z</time>
      </trkpt>
      <trkpt lat="44.33429" lon="5.43944">
        <ele>790</ele>
        <time>2019-06-02T10:20:26Z</time>
      </trkpt>
      <trkpt lat="44.33428" lon="5.43931">
        <ele>789.8</ele>
        <time>2019-06-02T10:20:37Z</time>
      </trkpt>
      <trkpt lat="44.33428" lon="5.43917">
        <ele>790.7</ele>
        <time>2019-06-02T10:20:50Z</time>
      </trkpt>
      <trkpt lat="44.33426" lon="5.43905">
        <ele>793.4</ele>
        <time>2019-06-02T10:21:07Z</time>
      </trkpt>
      <trkpt lat="44.3342" lon="5.43896">
        <ele>796.9</ele>
        <time>2019-06-02T10:21:23Z</time>
      </trkpt>
      <trkpt lat="44.33412" lon="5.43888">
        <ele>800.3</ele>
        <time>2019-06-02T10:21:38Z</time>
      </trkpt>
      <trkpt lat="44.33403" lon="5.43888">
        <ele>802.6</ele>
        <time>2019-06-02T10:21:49Z</time>
      </trkpt>
      <trkpt lat="44.33395" lon="5.43881">
        <ele>806</ele>
        <time>2019-06-02T10:22:04Z</time>
      </trkpt>
      <trkpt lat="44.33391" lon="5.4387">
        <ele>809.2</ele>
        <time>2019-06-02T10:22:16Z</time>
      </trkpt>
      <trkpt lat="44.33383" lon="5.43862">
        <ele>813.1</ele>
        <time>2019-06-02T10:22:32Z</time>
      </trkpt>
      <trkpt lat="44.33376" lon="5.43853">
        <ele>815.3</ele>
        <time>2019-06-02T10:22:47Z</time>
      </trkpt>
      <trkpt lat="44.33369" lon="5.43843">
        <ele>816.3</ele>
        <time>2019-06-02T10:22:59Z</time>
      </trkpt>
      <trkpt lat="44.3336" lon="5.4384">
        <ele>819.7</ele>
        <time>2019-06-02T10:23:21Z</time>
      </trkpt>
      <trkpt lat="44.33359" lon="5.43826">
        <ele>821.1</ele>
        <time>2019-06-02T10:23:31Z</time>
      </trkpt>
      <trkpt lat="44.33354" lon="5.43815">
        <ele>822</ele>
        <time>2019-06-02T10:23:40Z</time>
      </trkpt>
      <trkpt lat="44.33352" lon="5.43803">
        <ele>822.8</ele>
        <time>2019-06-02T10:23:48Z</time>
      </trkpt>
      <trkpt lat="44.3335" lon="5.4379">
        <ele>823.3</ele>
        <time>2019-06-02T10:25:43Z</time>
      </trkpt>
      <trkpt lat="44.33345" lon="5.43779">
        <ele>823.5</ele>
        <time>2019-06-02T10:25:53Z</time>
      </trkpt>
      <trkpt lat="44.33337" lon="5.43772">
        <ele>824.9</ele>
        <time>2019-06-02T10:26:07Z</time>
      </trkpt>
      <trkpt lat="44.33332" lon="5.43761">
        <ele>826.1</ele>
        <time>2019-06-02T10:26:17Z</time>
      </trkpt>
      <trkpt lat="44.33335" lon="5.43773">
        <ele>829.7</ele>
        <time>2019-06-02T10:27:45Z</time>
      </trkpt>
      <trkpt lat="44.33343" lon="5.43769">
        <ele>828.6</ele>
        <time>2019-06-02T10:27:55Z</time>
      </trkpt>
      <trkpt lat="44.33344" lon="5.43783">
        <ele>827</ele>
        <time>2019-06-02T10:28:06Z</time>
      </trkpt>
      <trkpt lat="44.33347" lon="5.4377">
        <ele>825.1</ele>
        <time>2019-06-02T10:28:26Z</time>
      </trkpt>
      <trkpt lat="44.33347" lon="5.43756">
        <ele>824.6</ele>
        <time>2019-06-02T10:28:34Z</time>
      </trkpt>
      <trkpt lat="44.33347" lon="5.43743">
        <ele>824.5</ele>
        <time>2019-06-02T10:28:42Z</time>
      </trkpt>
      <trkpt lat="44.33351" lon="5.4373">
        <ele>825.6</ele>
        <time>2019-06-02T10:28:50Z</time>
      </trkpt>
      <trkpt lat="44.33355" lon="5.43719">
        <ele>826.4</ele>
        <time>2019-06-02T10:28:56Z</time>
      </trkpt>
      <trkpt lat="44.33363" lon="5.43708">
        <ele>827.1</ele>
        <time>2019-06-02T10:29:00Z</time>
      </trkpt>
      <trkpt lat="44.3337" lon="5.43699">
        <ele>827.7</ele>
        <time>2019-06-02T10:29:05Z</time>
      </trkpt>
      <trkpt lat="44.33376" lon="5.43689">
        <ele>828.6</ele>
        <time>2019-06-02T10:29:12Z</time>
      </trkpt>
      <trkpt lat="44.33381" lon="5.43678">
        <ele>829.2</ele>
        <time>2019-06-02T10:29:19Z</time>
      </trkpt>
      <trkpt lat="44.33388" lon="5.43668">
        <ele>830.3</ele>
        <time>2019-06-02T10:29:26Z</time>
      </trkpt>
      <trkpt lat="44.33395" lon="5.43658">
        <ele>831.5</ele>
        <time>2019-06-02T10:29:33Z</time>
      </trkpt>
      <trkpt lat="44.33385" lon="5.43662">
        <ele>832.6</ele>
        <time>2019-06-02T10:29:43Z</time>
      </trkpt>
      <trkpt lat="44.33378" lon="5.4367">
        <ele>833.3</ele>
        <time>2019-06-02T10:29:51Z</time>
      </trkpt>
      <trkpt lat="44.33371" lon="5.4368">
        <ele>834</ele>
        <time>2019-06-02T10:29:59Z</time>
      </trkpt>
      <trkpt lat="44.33363" lon="5.43687">
        <ele>834.5</ele>
        <time>2019-06-02T10:30:06Z</time>
      </trkpt>
      <trkpt lat="44.33355" lon="5.43695">
        <ele>834.7</ele>
        <time>2019-06-02T10:30:14Z</time>
      </trkpt>
      <trkpt lat="44.33348" lon="5.43706">
        <ele>835</ele>
        <time>2019-06-02T10:30:23Z</time>
      </trkpt>
      <trkpt lat="44.33344" lon="5.43718">
        <ele>835.1</ele>
        <time>2019-06-02T10:30:31Z</time>
      </trkpt>
      <trkpt lat="44.33339" lon="5.43729">
        <ele>835.2</ele>
        <time>2019-06-02T10:30:39Z</time>
      </trkpt>
      <trkpt lat="44.33334" lon="5.4374">
        <ele>835.5</ele>
        <time>2019-06-02T10:31:42Z</time>
      </trkpt>
      <trkpt lat="44.33325" lon="5.43747">
        <ele>836.3</ele>
        <time>2019-06-02T10:32:32Z</time>
      </trkpt>
      <trkpt lat="44.33316" lon="5.43748">
        <ele>836.9</ele>
        <time>2019-06-02T10:32:43Z</time>
      </trkpt>
      <trkpt lat="44.33306" lon="5.43748">
        <ele>839.4</ele>
        <time>2019-06-02T10:32:58Z</time>
      </trkpt>
      <trkpt lat="44.33297" lon="5.43746">
        <ele>840.9</ele>
        <time>2019-06-02T10:33:06Z</time>
      </trkpt>
      <trkpt lat="44.33286" lon="5.4375">
        <ele>842</ele>
        <time>2019-06-02T10:33:14Z</time>
      </trkpt>
      <trkpt lat="44.33276" lon="5.43756">
        <ele>844</ele>
        <time>2019-06-02T10:33:22Z</time>
      </trkpt>
      <trkpt lat="44.33266" lon="5.43764">
        <ele>845</ele>
        <time>2019-06-02T10:33:30Z</time>
      </trkpt>
      <trkpt lat="44.33259" lon="5.43773">
        <ele>845</ele>
        <time>2019-06-02T10:33:38Z</time>
      </trkpt>
      <trkpt lat="44.33249" lon="5.4378">
        <ele>846</ele>
        <time>2019-06-02T10:33:46Z</time>
      </trkpt>
      <trkpt lat="44.33239" lon="5.43788">
        <ele>846</ele>
        <time>2019-06-02T10:33:54Z</time>
      </trkpt>
      <trkpt lat="44.33229" lon="5.43795">
        <ele>847</ele>
        <time>2019-06-02T10:34:02Z</time>
      </trkpt>
      <trkpt lat="44.3322" lon="5.43802">
        <ele>848</ele>
        <time>2019-06-02T10:34:10Z</time>
      </trkpt>
      <trkpt lat="44.33212" lon="5.43809">
        <ele>848</ele>
        <time>2019-06-02T10:34:18Z</time>
      </trkpt>
      <trkpt lat="44.33203" lon="5.43816">
        <ele>849</ele>
        <time>2019-06-02T10:34:26Z</time>
      </trkpt>
      <trkpt lat="44.33194" lon="5.4382">
        <ele>849</ele>
        <time>2019-06-02T10:34:34Z</time>
      </trkpt>
      <trkpt lat="44.33185" lon="5.43823">
        <ele>850</ele>
        <time>2019-06-02T10:34:42Z</time>
      </trkpt>
      <trkpt lat="44.33175" lon="5.43827">
        <ele>852</ele>
        <time>2019-06-02T10:34:50Z</time>
      </trkpt>
      <trkpt lat="44.33165" lon="5.43828">
        <ele>853</ele>
        <time>2019-06-02T10:34:58Z</time>
      </trkpt>
      <trkpt lat="44.33154" lon="5.43828">
        <ele>854</ele>
        <time>2019-06-02T10:35:06Z</time>
      </trkpt>
      <trkpt lat="44.33143" lon="5.43828">
        <ele>855</ele>
        <time>2019-06-02T10:35:14Z</time>
      </trkpt>
      <trkpt lat="44.33134" lon="5.43827">
        <ele>857</ele>
        <time>2019-06-02T10:35:22Z</time>
      </trkpt>
      <trkpt lat="44.33124" lon="5.43825">
        <ele>858</ele>
        <time>2019-06-02T10:35:30Z</time>
      </trkpt>
      <trkpt lat="44.33115" lon="5.43823">
        <ele>859</ele>
        <time>2019-06-02T10:35:38Z</time>
      </trkpt>
      <trkpt lat="44.33103" lon="5.43826">
        <ele>861</ele>
        <time>2019-06-02T10:35:46Z</time>
      </trkpt>
      <trkpt lat="44.33094" lon="5.43825">
        <ele>864.4</ele>
        <time>2019-06-02T10:35:58Z</time>
      </trkpt>
      <trkpt lat="44.33085" lon="5.43825">
        <ele>866.1</ele>
        <time>2019-06-02T10:36:05Z</time>
      </trkpt>
      <trkpt lat="44.33075" lon="5.43821">
        <ele>867.4</ele>
        <time>2019-06-02T10:36:13Z</time>
      </trkpt>
      <trkpt lat="44.33067" lon="5.43813">
        <ele>869.3</ele>
        <time>2019-06-02T10:36:23Z</time>
      </trkpt>
      <trkpt lat="44.33067" lon="5.438">
        <ele>871.6</ele>
        <time>2019-06-02T10:36:34Z</time>
      </trkpt>
      <trkpt lat="44.33066" lon="5.43786">
        <ele>873.7</ele>
        <time>2019-06-02T10:36:43Z</time>
      </trkpt>
      <trkpt lat="44.33063" lon="5.43774">
        <ele>876.8</ele>
        <time>2019-06-02T10:36:53Z</time>
      </trkpt>
      <trkpt lat="44.33059" lon="5.43762">
        <ele>879.1</ele>
        <time>2019-06-02T10:37:04Z</time>
      </trkpt>
      <trkpt lat="44.33052" lon="5.43753">
        <ele>880.6</ele>
        <time>2019-06-02T10:37:13Z</time>
      </trkpt>
      <trkpt lat="44.33046" lon="5.43743">
        <ele>881.8</ele>
        <time>2019-06-02T10:37:23Z</time>
      </trkpt>
      <trkpt lat="44.33039" lon="5.43731">
        <ele>883</ele>
        <time>2019-06-02T10:37:30Z</time>
      </trkpt>
      <trkpt lat="44.33039" lon="5.43718">
        <ele>884</ele>
        <time>2019-06-02T10:37:36Z</time>
      </trkpt>
      <trkpt lat="44.33038" lon="5.43704">
        <ele>885.2</ele>
        <time>2019-06-02T10:37:43Z</time>
      </trkpt>
      <trkpt lat="44.33034" lon="5.43692">
        <ele>886.2</ele>
        <time>2019-06-02T10:37:50Z</time>
      </trkpt>
      <trkpt lat="44.33029" lon="5.43681">
        <ele>888</ele>
        <time>2019-06-02T10:37:58Z</time>
      </trkpt>
      <trkpt lat="44.33032" lon="5.43667">
        <ele>890.1</ele>
        <time>2019-06-02T10:38:07Z</time>
      </trkpt>
      <trkpt lat="44.3303" lon="5.43655">
        <ele>892</ele>
        <time>2019-06-02T10:38:14Z</time>
      </trkpt>
      <trkpt lat="44.3303" lon="5.43642">
        <ele>893.8</ele>
        <time>2019-06-02T10:38:23Z</time>
      </trkpt>
      <trkpt lat="44.33021" lon="5.43637">
        <ele>895</ele>
        <time>2019-06-02T10:38:33Z</time>
      </trkpt>
      <trkpt lat="44.33014" lon="5.4363">
        <ele>895.6</ele>
        <time>2019-06-02T10:38:39Z</time>
      </trkpt>
      <trkpt lat="44.33007" lon="5.43619">
        <ele>896.8</ele>
        <time>2019-06-02T10:38:48Z</time>
      </trkpt>
      <trkpt lat="44.33001" lon="5.43609">
        <ele>898.2</ele>
        <time>2019-06-02T10:38:57Z</time>
      </trkpt>
      <trkpt lat="44.32995" lon="5.43599">
        <ele>899.4</ele>
        <time>2019-06-02T10:39:04Z</time>
      </trkpt>
      <trkpt lat="44.32987" lon="5.4359">
        <ele>900.7</ele>
        <time>2019-06-02T10:39:13Z</time>
      </trkpt>
      <trkpt lat="44.32981" lon="5.4358">
        <ele>901.4</ele>
        <time>2019-06-02T10:39:19Z</time>
      </trkpt>
      <trkpt lat="44.32974" lon="5.43572">
        <ele>902</ele>
        <time>2019-06-02T10:39:24Z</time>
      </trkpt>
      <trkpt lat="44.32966" lon="5.43564">
        <ele>903.4</ele>
        <time>2019-06-02T10:39:34Z</time>
      </trkpt>
      <trkpt lat="44.32956" lon="5.43562">
        <ele>904.8</ele>
        <time>2019-06-02T10:39:44Z</time>
      </trkpt>
      <trkpt lat="44.32948" lon="5.43555">
        <ele>906.4</ele>
        <time>2019-06-02T10:39:52Z</time>
      </trkpt>
      <trkpt lat="44.32946" lon="5.43542">
        <ele>908.5</ele>
        <time>2019-06-02T10:40:03Z</time>
      </trkpt>
      <trkpt lat="44.32941" lon="5.43531">
        <ele>910.1</ele>
        <time>2019-06-02T10:40:13Z</time>
      </trkpt>
      <trkpt lat="44.32932" lon="5.43528">
        <ele>911.6</ele>
        <time>2019-06-02T10:40:24Z</time>
      </trkpt>
      <trkpt lat="44.32921" lon="5.43522">
        <ele>913.3</ele>
        <time>2019-06-02T10:40:32Z</time>
      </trkpt>
      <trkpt lat="44.32913" lon="5.43513">
        <ele>915.3</ele>
        <time>2019-06-02T10:40:41Z</time>
      </trkpt>
      <trkpt lat="44.32903" lon="5.43508">
        <ele>917</ele>
        <time>2019-06-02T10:40:50Z</time>
      </trkpt>
      <trkpt lat="44.32894" lon="5.43506">
        <ele>917.8</ele>
        <time>2019-06-02T10:40:56Z</time>
      </trkpt>
      <trkpt lat="44.32885" lon="5.43504">
        <ele>918.6</ele>
        <time>2019-06-02T10:41:03Z</time>
      </trkpt>
      <trkpt lat="44.32876" lon="5.43502">
        <ele>919.1</ele>
        <time>2019-06-02T10:41:10Z</time>
      </trkpt>
      <trkpt lat="44.32866" lon="5.43499">
        <ele>919.8</ele>
        <time>2019-06-02T10:41:19Z</time>
      </trkpt>
      <trkpt lat="44.32857" lon="5.43497">
        <ele>920.5</ele>
        <time>2019-06-02T10:41:26Z</time>
      </trkpt>
      <trkpt lat="44.32848" lon="5.43502">
        <ele>921.8</ele>
        <time>2019-06-02T10:41:35Z</time>
      </trkpt>
      <trkpt lat="44.32841" lon="5.43512">
        <ele>923.6</ele>
        <time>2019-06-02T10:41:45Z</time>
      </trkpt>
      <trkpt lat="44.32834" lon="5.43521">
        <ele>926.1</ele>
        <time>2019-06-02T10:41:56Z</time>
      </trkpt>
      <trkpt lat="44.32825" lon="5.43526">
        <ele>927.6</ele>
        <time>2019-06-02T10:42:05Z</time>
      </trkpt>
      <trkpt lat="44.32818" lon="5.43535">
        <ele>928.6</ele>
        <time>2019-06-02T10:42:13Z</time>
      </trkpt>
      <trkpt lat="44.32811" lon="5.43543">
        <ele>929.8</ele>
        <time>2019-06-02T10:42:21Z</time>
      </trkpt>
      <trkpt lat="44.32803" lon="5.43551">
        <ele>930.9</ele>
        <time>2019-06-02T10:42:29Z</time>
      </trkpt>
      <trkpt lat="44.32796" lon="5.43558">
        <ele>931.8</ele>
        <time>2019-06-02T10:42:37Z</time>
      </trkpt>
      <trkpt lat="44.32789" lon="5.43566">
        <ele>932.9</ele>
        <time>2019-06-02T10:42:45Z</time>
      </trkpt>
      <trkpt lat="44.3278" lon="5.43571">
        <ele>934</ele>
        <time>2019-06-02T10:42:53Z</time>
      </trkpt>
      <trkpt lat="44.32771" lon="5.43569">
        <ele>935.4</ele>
        <time>2019-06-02T10:43:02Z</time>
      </trkpt>
      <trkpt lat="44.32761" lon="5.43566">
        <ele>937.2</ele>
        <time>2019-06-02T10:43:13Z</time>
      </trkpt>
      <trkpt lat="44.32752" lon="5.43561">
        <ele>938.3</ele>
        <time>2019-06-02T10:43:21Z</time>
      </trkpt>
      <trkpt lat="44.32745" lon="5.43553">
        <ele>940.5</ele>
        <time>2019-06-02T10:43:34Z</time>
      </trkpt>
      <trkpt lat="44.32736" lon="5.4355">
        <ele>942.2</ele>
        <time>2019-06-02T10:43:42Z</time>
      </trkpt>
      <trkpt lat="44.32727" lon="5.43551">
        <ele>944.1</ele>
        <time>2019-06-02T10:43:49Z</time>
      </trkpt>
      <trkpt lat="44.32718" lon="5.43551">
        <ele>946</ele>
        <time>2019-06-02T10:43:59Z</time>
      </trkpt>
      <trkpt lat="44.32709" lon="5.43547">
        <ele>948.5</ele>
        <time>2019-06-02T10:44:10Z</time>
      </trkpt>
      <trkpt lat="44.32699" lon="5.43546">
        <ele>951.8</ele>
        <time>2019-06-02T10:44:22Z</time>
      </trkpt>
      <trkpt lat="44.3269" lon="5.43543">
        <ele>953.5</ele>
        <time>2019-06-02T10:44:29Z</time>
      </trkpt>
      <trkpt lat="44.32681" lon="5.43537">
        <ele>955.4</ele>
        <time>2019-06-02T10:44:37Z</time>
      </trkpt>
      <trkpt lat="44.32673" lon="5.43532">
        <ele>958</ele>
        <time>2019-06-02T10:44:47Z</time>
      </trkpt>
      <trkpt lat="44.32664" lon="5.43529">
        <ele>959.8</ele>
        <time>2019-06-02T10:44:55Z</time>
      </trkpt>
      <trkpt lat="44.32654" lon="5.43528">
        <ele>961.2</ele>
        <time>2019-06-02T10:45:02Z</time>
      </trkpt>
      <trkpt lat="44.32643" lon="5.43528">
        <ele>962.4</ele>
        <time>2019-06-02T10:45:10Z</time>
      </trkpt>
      <trkpt lat="44.32634" lon="5.43527">
        <ele>963.6</ele>
        <time>2019-06-02T10:45:17Z</time>
      </trkpt>
      <trkpt lat="44.32625" lon="5.43529">
        <ele>964.7</ele>
        <time>2019-06-02T10:45:24Z</time>
      </trkpt>
      <trkpt lat="44.32615" lon="5.43532">
        <ele>965.5</ele>
        <time>2019-06-02T10:45:31Z</time>
      </trkpt>
      <trkpt lat="44.32606" lon="5.43536">
        <ele>967</ele>
        <time>2019-06-02T10:45:38Z</time>
      </trkpt>
      <trkpt lat="44.32598" lon="5.43541">
        <ele>968.8</ele>
        <time>2019-06-02T10:45:46Z</time>
      </trkpt>
      <trkpt lat="44.32589" lon="5.43545">
        <ele>971.3</ele>
        <time>2019-06-02T10:45:56Z</time>
      </trkpt>
      <trkpt lat="44.3258" lon="5.4354">
        <ele>974.9</ele>
        <time>2019-06-02T10:46:11Z</time>
      </trkpt>
      <trkpt lat="44.32571" lon="5.4354">
        <ele>978.5</ele>
        <time>2019-06-02T10:46:49Z</time>
      </trkpt>
      <trkpt lat="44.32564" lon="5.43532">
        <ele>979.3</ele>
        <time>2019-06-02T10:48:17Z</time>
      </trkpt>
      <trkpt lat="44.32572" lon="5.43538">
        <ele>978.3</ele>
        <time>2019-06-02T10:50:06Z</time>
      </trkpt>
      <trkpt lat="44.32581" lon="5.43531">
        <ele>979.4</ele>
        <time>2019-06-02T10:51:18Z</time>
      </trkpt>
      <trkpt lat="44.32574" lon="5.43521">
        <ele>981.2</ele>
        <time>2019-06-02T10:51:31Z</time>
      </trkpt>
      <trkpt lat="44.32567" lon="5.43512">
        <ele>983</ele>
        <time>2019-06-02T10:51:39Z</time>
      </trkpt>
      <trkpt lat="44.32559" lon="5.43505">
        <ele>985.3</ele>
        <time>2019-06-02T10:51:47Z</time>
      </trkpt>
      <trkpt lat="44.32553" lon="5.43494">
        <ele>989.9</ele>
        <time>2019-06-02T10:52:02Z</time>
      </trkpt>
      <trkpt lat="44.32547" lon="5.43484">
        <ele>992.2</ele>
        <time>2019-06-02T10:52:14Z</time>
      </trkpt>
      <trkpt lat="44.3254" lon="5.43476">
        <ele>994.4</ele>
        <time>2019-06-02T10:52:24Z</time>
      </trkpt>
      <trkpt lat="44.32532" lon="5.43469">
        <ele>996.2</ele>
        <time>2019-06-02T10:52:34Z</time>
      </trkpt>
      <trkpt lat="44.32526" lon="5.43458">
        <ele>999.3</ele>
        <time>2019-06-02T10:52:53Z</time>
      </trkpt>
      <trkpt lat="44.32521" lon="5.43448">
        <ele>1001.3</ele>
        <time>2019-06-02T10:53:06Z</time>
      </trkpt>
      <trkpt lat="44.32513" lon="5.4344">
        <ele>1003.6</ele>
        <time>2019-06-02T10:53:17Z</time>
      </trkpt>
      <trkpt lat="44.32505" lon="5.43434">
        <ele>1004.4</ele>
        <time>2019-06-02T10:53:23Z</time>
      </trkpt>
      <trkpt lat="44.32497" lon="5.43425">
        <ele>1006</ele>
        <time>2019-06-02T10:53:32Z</time>
      </trkpt>
      <trkpt lat="44.32489" lon="5.43421">
        <ele>1007.4</ele>
        <time>2019-06-02T10:53:40Z</time>
      </trkpt>
      <trkpt lat="44.3248" lon="5.43416">
        <ele>1010.2</ele>
        <time>2019-06-02T10:53:53Z</time>
      </trkpt>
      <trkpt lat="44.32471" lon="5.43411">
        <ele>1013.8</ele>
        <time>2019-06-02T10:54:06Z</time>
      </trkpt>
      <trkpt lat="44.32462" lon="5.43405">
        <ele>1016</ele>
        <time>2019-06-02T10:54:15Z</time>
      </trkpt>
      <trkpt lat="44.32454" lon="5.43402">
        <ele>1019.3</ele>
        <time>2019-06-02T10:54:28Z</time>
      </trkpt>
      <trkpt lat="44.32445" lon="5.43408">
        <ele>1022.1</ele>
        <time>2019-06-02T10:54:50Z</time>
      </trkpt>
      <trkpt lat="44.32436" lon="5.43405">
        <ele>1022.8</ele>
        <time>2019-06-02T10:55:08Z</time>
      </trkpt>
      <trkpt lat="44.32445" lon="5.43399">
        <ele>1023.5</ele>
        <time>2019-06-02T10:56:52Z</time>
      </trkpt>
      <trkpt lat="44.32454" lon="5.434">
        <ele>1023.3</ele>
        <time>2019-06-02T10:57:02Z</time>
      </trkpt>
      <trkpt lat="44.32463" lon="5.43401">
        <ele>1023.4</ele>
        <time>2019-06-02T10:57:20Z</time>
      </trkpt>
      <trkpt lat="44.32454" lon="5.43398">
        <ele>1025.4</ele>
        <time>2019-06-02T10:58:11Z</time>
      </trkpt>
      <trkpt lat="44.32445" lon="5.43394">
        <ele>1028.2</ele>
        <time>2019-06-02T10:58:27Z</time>
      </trkpt>
      <trkpt lat="44.32436" lon="5.43397">
        <ele>1030.5</ele>
        <time>2019-06-02T10:58:39Z</time>
      </trkpt>
      <trkpt lat="44.3243" lon="5.43387">
        <ele>1033.4</ele>
        <time>2019-06-02T10:58:53Z</time>
      </trkpt>
      <trkpt lat="44.32421" lon="5.43387">
        <ele>1035.6</ele>
        <time>2019-06-02T10:59:04Z</time>
      </trkpt>
      <trkpt lat="44.32412" lon="5.43385">
        <ele>1039.2</ele>
        <time>2019-06-02T10:59:18Z</time>
      </trkpt>
      <trkpt lat="44.32404" lon="5.43378">
        <ele>1040.6</ele>
        <time>2019-06-02T10:59:31Z</time>
      </trkpt>
      <trkpt lat="44.32395" lon="5.43375">
        <ele>1042.6</ele>
        <time>2019-06-02T10:59:45Z</time>
      </trkpt>
      <trkpt lat="44.32386" lon="5.4337">
        <ele>1044.6</ele>
        <time>2019-06-02T10:59:58Z</time>
      </trkpt>
      <trkpt lat="44.32376" lon="5.43367">
        <ele>1047</ele>
        <time>2019-06-02T11:00:09Z</time>
      </trkpt>
      <trkpt lat="44.32367" lon="5.43362">
        <ele>1049.5</ele>
        <time>2019-06-02T11:00:25Z</time>
      </trkpt>
      <trkpt lat="44.32357" lon="5.43358">
        <ele>1051.7</ele>
        <time>2019-06-02T11:00:37Z</time>
      </trkpt>
      <trkpt lat="44.32348" lon="5.43354">
        <ele>1053.7</ele>
        <time>2019-06-02T11:00:49Z</time>
      </trkpt>
      <trkpt lat="44.32339" lon="5.43349">
        <ele>1056.9</ele>
        <time>2019-06-02T11:00:59Z</time>
      </trkpt>
      <trkpt lat="44.3233" lon="5.43342">
        <ele>1060.5</ele>
        <time>2019-06-02T11:01:15Z</time>
      </trkpt>
      <trkpt lat="44.32337" lon="5.43335">
        <ele>1063.9</ele>
        <time>2019-06-02T11:01:38Z</time>
      </trkpt>
      <trkpt lat="44.32347" lon="5.43333">
        <ele>1064.7</ele>
        <time>2019-06-02T11:01:47Z</time>
      </trkpt>
      <trkpt lat="44.32341" lon="5.43322">
        <ele>1071.1</ele>
        <time>2019-06-02T11:02:30Z</time>
      </trkpt>
      <trkpt lat="44.32331" lon="5.4332">
        <ele>1072.7</ele>
        <time>2019-06-02T11:02:40Z</time>
      </trkpt>
      <trkpt lat="44.32322" lon="5.43318">
        <ele>1073.9</ele>
        <time>2019-06-02T11:02:49Z</time>
      </trkpt>
      <trkpt lat="44.32313" lon="5.43315">
        <ele>1075.8</ele>
        <time>2019-06-02T11:02:59Z</time>
      </trkpt>
      <trkpt lat="44.32304" lon="5.43313">
        <ele>1078.4</ele>
        <time>2019-06-02T11:03:13Z</time>
      </trkpt>
      <trkpt lat="44.32295" lon="5.43308">
        <ele>1080.1</ele>
        <time>2019-06-02T11:03:23Z</time>
      </trkpt>
      <trkpt lat="44.32285" lon="5.43303">
        <ele>1081</ele>
        <time>2019-06-02T11:03:33Z</time>
      </trkpt>
      <trkpt lat="44.32273" lon="5.43305">
        <ele>1084</ele>
        <time>2019-06-02T11:03:47Z</time>
      </trkpt>
      <trkpt lat="44.32264" lon="5.43308">
        <ele>1085.7</ele>
        <time>2019-06-02T11:03:53Z</time>
      </trkpt>
      <trkpt lat="44.32256" lon="5.43314">
        <ele>1086.7</ele>
        <time>2019-06-02T11:04:00Z</time>
      </trkpt>
      <trkpt lat="44.3225" lon="5.43324">
        <ele>1087.8</ele>
        <time>2019-06-02T11:04:08Z</time>
      </trkpt>
      <trkpt lat="44.32242" lon="5.43333">
        <ele>1088.7</ele>
        <time>2019-06-02T11:04:16Z</time>
      </trkpt>
      <trkpt lat="44.32237" lon="5.43343">
        <ele>1089.3</ele>
        <time>2019-06-02T11:04:24Z</time>
      </trkpt>
      <trkpt lat="44.32231" lon="5.43354">
        <ele>1090.4</ele>
        <time>2019-06-02T11:04:33Z</time>
      </trkpt>
      <trkpt lat="44.32227" lon="5.43366">
        <ele>1091</ele>
        <time>2019-06-02T11:04:41Z</time>
      </trkpt>
      <trkpt lat="44.32222" lon="5.43377">
        <ele>1091.4</ele>
        <time>2019-06-02T11:04:49Z</time>
      </trkpt>
      <trkpt lat="44.32217" lon="5.4339">
        <ele>1091</ele>
        <time>2019-06-02T11:04:58Z</time>
      </trkpt>
      <trkpt lat="44.322" lon="5.43396">
        <ele>1092</ele>
        <time>2019-06-02T11:05:06Z</time>
      </trkpt>
      <trkpt lat="44.32188" lon="5.43397">
        <ele>1092</ele>
        <time>2019-06-02T11:05:10Z</time>
      </trkpt>
      <trkpt lat="44.32179" lon="5.434">
        <ele>1093</ele>
        <time>2019-06-02T11:05:14Z</time>
      </trkpt>
      <trkpt lat="44.32191" lon="5.43409">
        <ele>1094</ele>
        <time>2019-06-02T11:05:34Z</time>
      </trkpt>
      <trkpt lat="44.32181" lon="5.43413">
        <ele>1095.2</ele>
        <time>2019-06-02T11:05:46Z</time>
      </trkpt>
      <trkpt lat="44.32172" lon="5.43414">
        <ele>1095.7</ele>
        <time>2019-06-02T11:05:51Z</time>
      </trkpt>
      <trkpt lat="44.32163" lon="5.43415">
        <ele>1096.3</ele>
        <time>2019-06-02T11:06:00Z</time>
      </trkpt>
      <trkpt lat="44.32153" lon="5.43409">
        <ele>1096.4</ele>
        <time>2019-06-02T11:06:08Z</time>
      </trkpt>
      <trkpt lat="44.32144" lon="5.43405">
        <ele>1096.6</ele>
        <time>2019-06-02T11:06:14Z</time>
      </trkpt>
      <trkpt lat="44.32136" lon="5.43397">
        <ele>1097</ele>
        <time>2019-06-02T11:06:23Z</time>
      </trkpt>
      <trkpt lat="44.3213" lon="5.43387">
        <ele>1097.4</ele>
        <time>2019-06-02T11:06:31Z</time>
      </trkpt>
      <trkpt lat="44.32125" lon="5.43376">
        <ele>1098.2</ele>
        <time>2019-06-02T11:06:39Z</time>
      </trkpt>
      <trkpt lat="44.32119" lon="5.43366">
        <ele>1099.2</ele>
        <time>2019-06-02T11:06:47Z</time>
      </trkpt>
      <trkpt lat="44.32116" lon="5.43353">
        <ele>1100.5</ele>
        <time>2019-06-02T11:06:59Z</time>
      </trkpt>
      <trkpt lat="44.3211" lon="5.43344">
        <ele>1102</ele>
        <time>2019-06-02T11:07:14Z</time>
      </trkpt>
      <trkpt lat="44.32106" lon="5.43332">
        <ele>1102.7</ele>
        <time>2019-06-02T11:07:45Z</time>
      </trkpt>
      <trkpt lat="44.32103" lon="5.43321">
        <ele>1103.2</ele>
        <time>2019-06-02T11:07:58Z</time>
      </trkpt>
      <trkpt lat="44.32096" lon="5.43311">
        <ele>1104.3</ele>
        <time>2019-06-02T11:08:09Z</time>
      </trkpt>
      <trkpt lat="44.32092" lon="5.43299">
        <ele>1106</ele>
        <time>2019-06-02T11:08:23Z</time>
      </trkpt>
      <trkpt lat="44.32087" lon="5.43287">
        <ele>1107.6</ele>
        <time>2019-06-02T11:08:37Z</time>
      </trkpt>
      <trkpt lat="44.32082" lon="5.43275">
        <ele>1108.2</ele>
        <time>2019-06-02T11:08:47Z</time>
      </trkpt>
      <trkpt lat="44.32076" lon="5.43266">
        <ele>1109</ele>
        <time>2019-06-02T11:08:56Z</time>
      </trkpt>
      <trkpt lat="44.32069" lon="5.43256">
        <ele>1110.3</ele>
        <time>2019-06-02T11:09:06Z</time>
      </trkpt>
      <trkpt lat="44.32061" lon="5.43247">
        <ele>1111.8</ele>
        <time>2019-06-02T11:09:15Z</time>
      </trkpt>
      <trkpt lat="44.32056" lon="5.43236">
        <ele>1113.3</ele>
        <time>2019-06-02T11:09:24Z</time>
      </trkpt>
      <trkpt lat="44.3205" lon="5.43226">
        <ele>1114.2</ele>
        <time>2019-06-02T11:09:33Z</time>
      </trkpt>
      <trkpt lat="44.32045" lon="5.43215">
        <ele>1115.5</ele>
        <time>2019-06-02T11:09:44Z</time>
      </trkpt>
      <trkpt lat="44.32041" lon="5.43202">
        <ele>1117.2</ele>
        <time>2019-06-02T11:09:54Z</time>
      </trkpt>
      <trkpt lat="44.32035" lon="5.43191">
        <ele>1118</ele>
        <time>2019-06-02T11:10:03Z</time>
      </trkpt>
      <trkpt lat="44.32031" lon="5.4318">
        <ele>1119.5</ele>
        <time>2019-06-02T11:10:11Z</time>
      </trkpt>
      <trkpt lat="44.32027" lon="5.43168">
        <ele>1120.8</ele>
        <time>2019-06-02T11:10:21Z</time>
      </trkpt>
      <trkpt lat="44.32022" lon="5.43156">
        <ele>1122.3</ele>
        <time>2019-06-02T11:10:30Z</time>
      </trkpt>
      <trkpt lat="44.3202" lon="5.43143">
        <ele>1124.5</ele>
        <time>2019-06-02T11:10:42Z</time>
      </trkpt>
      <trkpt lat="44.32017" lon="5.4313">
        <ele>1126</ele>
        <time>2019-06-02T11:10:52Z</time>
      </trkpt>
      <trkpt lat="44.32013" lon="5.43117">
        <ele>1127.4</ele>
        <time>2019-06-02T11:11:01Z</time>
      </trkpt>
      <trkpt lat="44.32013" lon="5.43104">
        <ele>1129.5</ele>
        <time>2019-06-02T11:11:12Z</time>
      </trkpt>
      <trkpt lat="44.3201" lon="5.4309">
        <ele>1130.8</ele>
        <time>2019-06-02T11:11:21Z</time>
      </trkpt>
      <trkpt lat="44.3201" lon="5.43076">
        <ele>1132.3</ele>
        <time>2019-06-02T11:11:30Z</time>
      </trkpt>
      <trkpt lat="44.32009" lon="5.43063">
        <ele>1133.2</ele>
        <time>2019-06-02T11:11:38Z</time>
      </trkpt>
      <trkpt lat="44.3201" lon="5.4305">
        <ele>1134.1</ele>
        <time>2019-06-02T11:11:50Z</time>
      </trkpt>
      <trkpt lat="44.32015" lon="5.43039">
        <ele>1134.9</ele>
        <time>2019-06-02T11:12:18Z</time>
      </trkpt>
      <trkpt lat="44.32014" lon="5.43026">
        <ele>1135</ele>
        <time>2019-06-02T11:12:48Z</time>
      </trkpt>
      <trkpt lat="44.32015" lon="5.43013">
        <ele>1134.9</ele>
        <time>2019-06-02T11:12:58Z</time>
      </trkpt>
      <trkpt lat="44.32014" lon="5.43">
        <ele>1134.4</ele>
        <time>2019-06-02T11:13:07Z</time>
      </trkpt>
      <trkpt lat="44.32014" lon="5.42987">
        <ele>1133.9</ele>
        <time>2019-06-02T11:13:17Z</time>
      </trkpt>
      <trkpt lat="44.32014" lon="5.42974">
        <ele>1132.9</ele>
        <time>2019-06-02T11:13:26Z</time>
      </trkpt>
      <trkpt lat="44.32014" lon="5.4296">
        <ele>1131.4</ele>
        <time>2019-06-02T11:14:00Z</time>
      </trkpt>
      <trkpt lat="44.32016" lon="5.42947">
        <ele>1131.2</ele>
        <time>2019-06-02T11:14:08Z</time>
      </trkpt>
      <trkpt lat="44.32015" lon="5.42933">
        <ele>1130.8</ele>
        <time>2019-06-02T11:14:17Z</time>
      </trkpt>
      <trkpt lat="44.32017" lon="5.42921">
        <ele>1130</ele>
        <time>2019-06-02T11:14:26Z</time>
      </trkpt>
      <trkpt lat="44.32016" lon="5.42907">
        <ele>1128.9</ele>
        <time>2019-06-02T11:14:35Z</time>
      </trkpt>
      <trkpt lat="44.32016" lon="5.42895">
        <ele>1127.9</ele>
        <time>2019-06-02T11:14:45Z</time>
      </trkpt>
      <trkpt lat="44.32012" lon="5.42883">
        <ele>1126.3</ele>
        <time>2019-06-02T11:15:05Z</time>
      </trkpt>
      <trkpt lat="44.32011" lon="5.4287">
        <ele>1126.1</ele>
        <time>2019-06-02T11:15:12Z</time>
      </trkpt>
      <trkpt lat="44.3201" lon="5.42857">
        <ele>1125.4</ele>
        <time>2019-06-02T11:15:19Z</time>
      </trkpt>
      <trkpt lat="44.3201" lon="5.42843">
        <ele>1124.9</ele>
        <time>2019-06-02T11:15:26Z</time>
      </trkpt>
      <trkpt lat="44.32011" lon="5.42829">
        <ele>1124.3</ele>
        <time>2019-06-02T11:15:34Z</time>
      </trkpt>
      <trkpt lat="44.32014" lon="5.42816">
        <ele>1123.5</ele>
        <time>2019-06-02T11:15:43Z</time>
      </trkpt>
      <trkpt lat="44.32016" lon="5.42803">
        <ele>1122.4</ele>
        <time>2019-06-02T11:15:52Z</time>
      </trkpt>
      <trkpt lat="44.32014" lon="5.4279">
        <ele>1121.5</ele>
        <time>2019-06-02T11:16:03Z</time>
      </trkpt>
      <trkpt lat="44.32014" lon="5.42777">
        <ele>1121.1</ele>
        <time>2019-06-02T11:16:14Z</time>
      </trkpt>
      <trkpt lat="44.32015" lon="5.42764">
        <ele>1120.5</ele>
        <time>2019-06-02T11:16:23Z</time>
      </trkpt>
      <trkpt lat="44.32014" lon="5.42751">
        <ele>1118.9</ele>
        <time>2019-06-02T11:16:32Z</time>
      </trkpt>
      <trkpt lat="44.32012" lon="5.42738">
        <ele>1117.6</ele>
        <time>2019-06-02T11:16:40Z</time>
      </trkpt>
      <trkpt lat="44.32012" lon="5.42724">
        <ele>1116.4</ele>
        <time>2019-06-02T11:16:48Z</time>
      </trkpt>
      <trkpt lat="44.32013" lon="5.4271">
        <ele>1115.3</ele>
        <time>2019-06-02T11:16:55Z</time>
      </trkpt>
      <trkpt lat="44.32012" lon="5.42697">
        <ele>1114.1</ele>
        <time>2019-06-02T11:17:02Z</time>
      </trkpt>
      <trkpt lat="44.32009" lon="5.42685">
        <ele>1112.6</ele>
        <time>2019-06-02T11:17:08Z</time>
      </trkpt>
      <trkpt lat="44.32006" lon="5.42671">
        <ele>1110.7</ele>
        <time>2019-06-02T11:17:15Z</time>
      </trkpt>
      <trkpt lat="44.32005" lon="5.42658">
        <ele>1109.5</ele>
        <time>2019-06-02T11:17:21Z</time>
      </trkpt>
      <trkpt lat="44.32004" lon="5.42645">
        <ele>1108.5</ele>
        <time>2019-06-02T11:17:27Z</time>
      </trkpt>
      <trkpt lat="44.32004" lon="5.4263">
        <ele>1107.5</ele>
        <time>2019-06-02T11:17:34Z</time>
      </trkpt>
      <trkpt lat="44.32003" lon="5.42617">
        <ele>1106.4</ele>
        <time>2019-06-02T11:17:40Z</time>
      </trkpt>
      <trkpt lat="44.32001" lon="5.42605">
        <ele>1105.5</ele>
        <time>2019-06-02T11:17:46Z</time>
      </trkpt>
      <trkpt lat="44.32" lon="5.42591">
        <ele>1104.8</ele>
        <time>2019-06-02T11:17:53Z</time>
      </trkpt>
      <trkpt lat="44.32001" lon="5.42577">
        <ele>1104.4</ele>
        <time>2019-06-02T11:18:00Z</time>
      </trkpt>
      <trkpt lat="44.32003" lon="5.42564">
        <ele>1104</ele>
        <time>2019-06-02T11:18:07Z</time>
      </trkpt>
      <trkpt lat="44.32007" lon="5.42551">
        <ele>1103.7</ele>
        <time>2019-06-02T11:18:15Z</time>
      </trkpt>
      <trkpt lat="44.32013" lon="5.4254">
        <ele>1103.3</ele>
        <time>2019-06-02T11:18:23Z</time>
      </trkpt>
      <trkpt lat="44.32019" lon="5.4253">
        <ele>1102.8</ele>
        <time>2019-06-02T11:18:31Z</time>
      </trkpt>
      <trkpt lat="44.32025" lon="5.4252">
        <ele>1102.4</ele>
        <time>2019-06-02T11:18:38Z</time>
      </trkpt>
      <trkpt lat="44.32033" lon="5.42511">
        <ele>1101.8</ele>
        <time>2019-06-02T11:18:45Z</time>
      </trkpt>
      <trkpt lat="44.3204" lon="5.42502">
        <ele>1101.5</ele>
        <time>2019-06-02T11:18:52Z</time>
      </trkpt>
      <trkpt lat="44.32046" lon="5.42492">
        <ele>1101.3</ele>
        <time>2019-06-02T11:18:59Z</time>
      </trkpt>
      <trkpt lat="44.32052" lon="5.42482">
        <ele>1101.2</ele>
        <time>2019-06-02T11:19:05Z</time>
      </trkpt>
      <trkpt lat="44.32055" lon="5.4247">
        <ele>1101</ele>
        <time>2019-06-02T11:19:12Z</time>
      </trkpt>
      <trkpt lat="44.32057" lon="5.42456">
        <ele>1100.8</ele>
        <time>2019-06-02T11:19:19Z</time>
      </trkpt>
      <trkpt lat="44.3206" lon="5.42442">
        <ele>1100.7</ele>
        <time>2019-06-02T11:19:26Z</time>
      </trkpt>
      <trkpt lat="44.32063" lon="5.42429">
        <ele>1100.8</ele>
        <time>2019-06-02T11:19:34Z</time>
      </trkpt>
      <trkpt lat="44.32066" lon="5.42416">
        <ele>1101</ele>
        <time>2019-06-02T11:19:41Z</time>
      </trkpt>
      <trkpt lat="44.32069" lon="5.42404">
        <ele>1101.6</ele>
        <time>2019-06-02T11:19:48Z</time>
      </trkpt>
      <trkpt lat="44.32072" lon="5.42392">
        <ele>1102.1</ele>
        <time>2019-06-02T11:19:55Z</time>
      </trkpt>
      <trkpt lat="44.32076" lon="5.42378">
        <ele>1102.8</ele>
        <time>2019-06-02T11:20:03Z</time>
      </trkpt>
      <trkpt lat="44.32082" lon="5.42367">
        <ele>1103.3</ele>
        <time>2019-06-02T11:20:12Z</time>
      </trkpt>
      <trkpt lat="44.3209" lon="5.42361">
        <ele>1103.3</ele>
        <time>2019-06-02T11:20:30Z</time>
      </trkpt>
      <trkpt lat="44.32097" lon="5.42353">
        <ele>1103.5</ele>
        <time>2019-06-02T11:20:59Z</time>
      </trkpt>
      <trkpt lat="44.32104" lon="5.42342">
        <ele>1103.3</ele>
        <time>2019-06-02T11:21:08Z</time>
      </trkpt>
      <trkpt lat="44.32111" lon="5.42333">
        <ele>1102.7</ele>
        <time>2019-06-02T11:21:17Z</time>
      </trkpt>
      <trkpt lat="44.32117" lon="5.42323">
        <ele>1101.9</ele>
        <time>2019-06-02T11:21:26Z</time>
      </trkpt>
      <trkpt lat="44.32113" lon="5.42312">
        <ele>1101.8</ele>
        <time>2019-06-02T11:23:33Z</time>
      </trkpt>
      <trkpt lat="44.32113" lon="5.42298">
        <ele>1101.9</ele>
        <time>2019-06-02T11:23:42Z</time>
      </trkpt>
      <trkpt lat="44.32116" lon="5.42286">
        <ele>1102.1</ele>
        <time>2019-06-02T11:23:52Z</time>
      </trkpt>
      <trkpt lat="44.32112" lon="5.42274">
        <ele>1102.2</ele>
        <time>2019-06-02T11:24:03Z</time>
      </trkpt>
      <trkpt lat="44.32104" lon="5.42268">
        <ele>1102.3</ele>
        <time>2019-06-02T11:24:14Z</time>
      </trkpt>
      <trkpt lat="44.32102" lon="5.42255">
        <ele>1102.5</ele>
        <time>2019-06-02T11:24:22Z</time>
      </trkpt>
      <trkpt lat="44.32105" lon="5.42241">
        <ele>1102.7</ele>
        <time>2019-06-02T11:24:30Z</time>
      </trkpt>
      <trkpt lat="44.32111" lon="5.42231">
        <ele>1103</ele>
        <time>2019-06-02T11:24:38Z</time>
      </trkpt>
      <trkpt lat="44.32113" lon="5.42218">
        <ele>1103.3</ele>
        <time>2019-06-02T11:24:46Z</time>
      </trkpt>
      <trkpt lat="44.32112" lon="5.42206">
        <ele>1103.6</ele>
        <time>2019-06-02T11:24:53Z</time>
      </trkpt>
      <trkpt lat="44.32112" lon="5.42192">
        <ele>1103.7</ele>
        <time>2019-06-02T11:25:01Z</time>
      </trkpt>
      <trkpt lat="44.32114" lon="5.42179">
        <ele>1103.6</ele>
        <time>2019-06-02T11:25:08Z</time>
      </trkpt>
      <trkpt lat="44.32114" lon="5.42164">
        <ele>1103.3</ele>
        <time>2019-06-02T11:25:16Z</time>
      </trkpt>
      <trkpt lat="44.32115" lon="5.42152">
        <ele>1103.2</ele>
        <time>2019-06-02T11:25:22Z</time>
      </trkpt>
      <trkpt lat="44.32115" lon="5.42138">
        <ele>1103</ele>
        <time>2019-06-02T11:25:30Z</time>
      </trkpt>
      <trkpt lat="44.32112" lon="5.42125">
        <ele>1103.1</ele>
        <time>2019-06-02T11:25:40Z</time>
      </trkpt>
      <trkpt lat="44.32115" lon="5.42113">
        <ele>1103.9</ele>
        <time>2019-06-02T11:25:48Z</time>
      </trkpt>
      <trkpt lat="44.32116" lon="5.421">
        <ele>1103.9</ele>
        <time>2019-06-02T11:25:55Z</time>
      </trkpt>
      <trkpt lat="44.3211" lon="5.42089">
        <ele>1103.7</ele>
        <time>2019-06-02T11:26:02Z</time>
      </trkpt>
      <trkpt lat="44.32106" lon="5.42078">
        <ele>1103.6</ele>
        <time>2019-06-02T11:26:10Z</time>
      </trkpt>
      <trkpt lat="44.32105" lon="5.42064">
        <ele>1104.1</ele>
        <time>2019-06-02T11:26:19Z</time>
      </trkpt>
      <trkpt lat="44.32105" lon="5.42051">
        <ele>1105</ele>
        <time>2019-06-02T11:26:27Z</time>
      </trkpt>
      <trkpt lat="44.32106" lon="5.42038">
        <ele>1105.6</ele>
        <time>2019-06-02T11:26:35Z</time>
      </trkpt>
      <trkpt lat="44.32113" lon="5.4203">
        <ele>1106.9</ele>
        <time>2019-06-02T11:27:11Z</time>
      </trkpt>
      <trkpt lat="44.32122" lon="5.42032">
        <ele>1107.1</ele>
        <time>2019-06-02T11:27:21Z</time>
      </trkpt>
      <trkpt lat="44.32131" lon="5.42024">
        <ele>1107.9</ele>
        <time>2019-06-02T11:27:40Z</time>
      </trkpt>
      <trkpt lat="44.32139" lon="5.42017">
        <ele>1108</ele>
        <time>2019-06-02T11:27:49Z</time>
      </trkpt>
      <trkpt lat="44.32148" lon="5.42011">
        <ele>1108</ele>
        <time>2019-06-02T11:27:57Z</time>
      </trkpt>
      <trkpt lat="44.32156" lon="5.42004">
        <ele>1107.9</ele>
        <time>2019-06-02T11:28:04Z</time>
      </trkpt>
      <trkpt lat="44.32164" lon="5.41995">
        <ele>1107.9</ele>
        <time>2019-06-02T11:28:11Z</time>
      </trkpt>
      <trkpt lat="44.32171" lon="5.41987">
        <ele>1107.9</ele>
        <time>2019-06-02T11:28:19Z</time>
      </trkpt>
      <trkpt lat="44.32179" lon="5.41979">
        <ele>1107.9</ele>
        <time>2019-06-02T11:28:26Z</time>
      </trkpt>
      <trkpt lat="44.32187" lon="5.41971">
        <ele>1107.9</ele>
        <time>2019-06-02T11:28:33Z</time>
      </trkpt>
      <trkpt lat="44.32194" lon="5.41962">
        <ele>1107.9</ele>
        <time>2019-06-02T11:28:41Z</time>
      </trkpt>
      <trkpt lat="44.32203" lon="5.41955">
        <ele>1107.9</ele>
        <time>2019-06-02T11:28:49Z</time>
      </trkpt>
      <trkpt lat="44.32211" lon="5.41949">
        <ele>1107.7</ele>
        <time>2019-06-02T11:28:57Z</time>
      </trkpt>
      <trkpt lat="44.3222" lon="5.41944">
        <ele>1107.8</ele>
        <time>2019-06-02T11:29:05Z</time>
      </trkpt>
      <trkpt lat="44.32229" lon="5.4194">
        <ele>1108.2</ele>
        <time>2019-06-02T11:29:12Z</time>
      </trkpt>
      <trkpt lat="44.32238" lon="5.41941">
        <ele>1109.9</ele>
        <time>2019-06-02T11:29:26Z</time>
      </trkpt>
      <trkpt lat="44.32245" lon="5.41949">
        <ele>1112</ele>
        <time>2019-06-02T11:29:38Z</time>
      </trkpt>
      <trkpt lat="44.32252" lon="5.41958">
        <ele>1113.9</ele>
        <time>2019-06-02T11:29:48Z</time>
      </trkpt>
      <trkpt lat="44.32259" lon="5.41968">
        <ele>1115.7</ele>
        <time>2019-06-02T11:29:59Z</time>
      </trkpt>
      <trkpt lat="44.32264" lon="5.41978">
        <ele>1117.3</ele>
        <time>2019-06-02T11:30:09Z</time>
      </trkpt>
      <trkpt lat="44.32269" lon="5.41989">
        <ele>1119.1</ele>
        <time>2019-06-02T11:30:19Z</time>
      </trkpt>
      <trkpt lat="44.32272" lon="5.42002">
        <ele>1120.8</ele>
        <time>2019-06-02T11:30:29Z</time>
      </trkpt>
      <trkpt lat="44.32277" lon="5.42013">
        <ele>1123</ele>
        <time>2019-06-02T11:30:39Z</time>
      </trkpt>
      <trkpt lat="44.32281" lon="5.42025">
        <ele>1124.9</ele>
        <time>2019-06-02T11:30:48Z</time>
      </trkpt>
      <trkpt lat="44.32286" lon="5.42035">
        <ele>1126.1</ele>
        <time>2019-06-02T11:30:57Z</time>
      </trkpt>
      <trkpt lat="44.32293" lon="5.42044">
        <ele>1127.9</ele>
        <time>2019-06-02T11:31:06Z</time>
      </trkpt>
      <trkpt lat="44.32301" lon="5.42054">
        <ele>1130</ele>
        <time>2019-06-02T11:31:16Z</time>
      </trkpt>
      <trkpt lat="44.32308" lon="5.42063">
        <ele>1131.8</ele>
        <time>2019-06-02T11:31:25Z</time>
      </trkpt>
      <trkpt lat="44.32315" lon="5.42071">
        <ele>1133.5</ele>
        <time>2019-06-02T11:31:34Z</time>
      </trkpt>
      <trkpt lat="44.32322" lon="5.4208">
        <ele>1135.2</ele>
        <time>2019-06-02T11:31:44Z</time>
      </trkpt>
      <trkpt lat="44.32329" lon="5.42087">
        <ele>1136.5</ele>
        <time>2019-06-02T11:31:54Z</time>
      </trkpt>
      <trkpt lat="44.32337" lon="5.42095">
        <ele>1137.8</ele>
        <time>2019-06-02T11:32:03Z</time>
      </trkpt>
      <trkpt lat="44.32345" lon="5.42101">
        <ele>1139.6</ele>
        <time>2019-06-02T11:32:13Z</time>
      </trkpt>
      <trkpt lat="44.32352" lon="5.4211">
        <ele>1141.6</ele>
        <time>2019-06-02T11:32:31Z</time>
      </trkpt>
      <trkpt lat="44.32361" lon="5.42117">
        <ele>1142.7</ele>
        <time>2019-06-02T11:32:40Z</time>
      </trkpt>
      <trkpt lat="44.32368" lon="5.42126">
        <ele>1144</ele>
        <time>2019-06-02T11:32:48Z</time>
      </trkpt>
      <trkpt lat="44.32372" lon="5.42139">
        <ele>1145.6</ele>
        <time>2019-06-02T11:32:57Z</time>
      </trkpt>
      <trkpt lat="44.32373" lon="5.42152">
        <ele>1147.2</ele>
        <time>2019-06-02T11:33:07Z</time>
      </trkpt>
      <trkpt lat="44.32373" lon="5.42166">
        <ele>1149.4</ele>
        <time>2019-06-02T11:33:17Z</time>
      </trkpt>
      <trkpt lat="44.3238" lon="5.42175">
        <ele>1151.3</ele>
        <time>2019-06-02T11:33:26Z</time>
      </trkpt>
      <trkpt lat="44.3239" lon="5.42172">
        <ele>1153.3</ele>
        <time>2019-06-02T11:33:36Z</time>
      </trkpt>
      <trkpt lat="44.32396" lon="5.42162">
        <ele>1155.4</ele>
        <time>2019-06-02T11:33:46Z</time>
      </trkpt>
      <trkpt lat="44.324" lon="5.4215">
        <ele>1157.3</ele>
        <time>2019-06-02T11:33:55Z</time>
      </trkpt>
      <trkpt lat="44.32403" lon="5.42139">
        <ele>1158.7</ele>
        <time>2019-06-02T11:34:03Z</time>
      </trkpt>
      <trkpt lat="44.32408" lon="5.42127">
        <ele>1159.8</ele>
        <time>2019-06-02T11:34:12Z</time>
      </trkpt>
      <trkpt lat="44.32411" lon="5.42115">
        <ele>1161</ele>
        <time>2019-06-02T11:34:22Z</time>
      </trkpt>
      <trkpt lat="44.3241" lon="5.42102">
        <ele>1162</ele>
        <time>2019-06-02T11:34:31Z</time>
      </trkpt>
      <trkpt lat="44.32406" lon="5.4209">
        <ele>1163.4</ele>
        <time>2019-06-02T11:34:40Z</time>
      </trkpt>
      <trkpt lat="44.32405" lon="5.42076">
        <ele>1165.1</ele>
        <time>2019-06-02T11:34:51Z</time>
      </trkpt>
      <trkpt lat="44.32407" lon="5.42063">
        <ele>1166.7</ele>
        <time>2019-06-02T11:35:01Z</time>
      </trkpt>
      <trkpt lat="44.32409" lon="5.4205">
        <ele>1168.6</ele>
        <time>2019-06-02T11:35:14Z</time>
      </trkpt>
      <trkpt lat="44.32407" lon="5.42037">
        <ele>1169.9</ele>
        <time>2019-06-02T11:35:42Z</time>
      </trkpt>
      <trkpt lat="44.32407" lon="5.42025">
        <ele>1169.2</ele>
        <time>2019-06-02T11:38:26Z</time>
      </trkpt>
      <trkpt lat="44.324" lon="5.42032">
        <ele>1169.5</ele>
        <time>2019-06-02T11:39:15Z</time>
      </trkpt>
      <trkpt lat="44.32392" lon="5.42039">
        <ele>1168.6</ele>
        <time>2019-06-02T11:40:16Z</time>
      </trkpt>
      <trkpt lat="44.32384" lon="5.42032">
        <ele>1169</ele>
        <time>2019-06-02T11:43:29Z</time>
      </trkpt>
      <trkpt lat="44.32393" lon="5.42034">
        <ele>1169.8</ele>
        <time>2019-06-02T11:45:43Z</time>
      </trkpt>
      <trkpt lat="44.32397" lon="5.42045">
        <ele>1170.2</ele>
        <time>2019-06-02T11:53:11Z</time>
      </trkpt>
      <trkpt lat="44.32389" lon="5.4205">
        <ele>1170.6</ele>
        <time>2019-06-02T11:58:57Z</time>
      </trkpt>
      <trkpt lat="44.32389" lon="5.42037">
        <ele>1171</ele>
        <time>2019-06-02T12:00:00Z</time>
      </trkpt>
      <trkpt lat="44.32395" lon="5.42029">
        <ele>1170.4</ele>
        <time>2019-06-02T12:01:27Z</time>
      </trkpt>
      <trkpt lat="44.32399" lon="5.4204">
        <ele>1170.7</ele>
        <time>2019-06-02T12:03:19Z</time>
      </trkpt>
      <trkpt lat="44.32391" lon="5.42043">
        <ele>1170.9</ele>
        <time>2019-06-02T12:07:27Z</time>
      </trkpt>
      <trkpt lat="44.32383" lon="5.42036">
        <ele>1171.3</ele>
        <time>2019-06-02T12:07:52Z</time>
      </trkpt>
      <trkpt lat="44.32391" lon="5.42042">
        <ele>1171.3</ele>
        <time>2019-06-02T12:10:03Z</time>
      </trkpt>
      <trkpt lat="44.324" lon="5.42043">
        <ele>1170.9</ele>
        <time>2019-06-02T12:10:45Z</time>
      </trkpt>
      <trkpt lat="44.32396" lon="5.42032">
        <ele>1171.3</ele>
        <time>2019-06-02T12:11:36Z</time>
      </trkpt>
      <trkpt lat="44.32389" lon="5.42024">
        <ele>1171.3</ele>
        <time>2019-06-02T12:12:08Z</time>
      </trkpt>
      <trkpt lat="44.32393" lon="5.42035">
        <ele>1171.5</ele>
        <time>2019-06-02T12:12:58Z</time>
      </trkpt>
      <trkpt lat="44.32399" lon="5.42043">
        <ele>1171.9</ele>
        <time>2019-06-02T12:13:45Z</time>
      </trkpt>
      <trkpt lat="44.32407" lon="5.42051">
        <ele>1171</ele>
        <time>2019-06-02T12:15:20Z</time>
      </trkpt>
      <trkpt lat="44.324" lon="5.42043">
        <ele>1171.7</ele>
        <time>2019-06-02T12:16:11Z</time>
      </trkpt>
      <trkpt lat="44.32401" lon="5.4203">
        <ele>1171.3</ele>
        <time>2019-06-02T12:27:52Z</time>
      </trkpt>
      <trkpt lat="44.32404" lon="5.42018">
        <ele>1171.2</ele>
        <time>2019-06-02T12:29:56Z</time>
      </trkpt>
      <trkpt lat="44.324" lon="5.4203">
        <ele>1174.5</ele>
        <time>2019-06-02T12:37:20Z</time>
      </trkpt>
      <trkpt lat="44.32406" lon="5.4204">
        <ele>1175.1</ele>
        <time>2019-06-02T12:37:46Z</time>
      </trkpt>
      <trkpt lat="44.32399" lon="5.42032">
        <ele>1178.2</ele>
        <time>2019-06-02T12:40:14Z</time>
      </trkpt>
      <trkpt lat="44.32392" lon="5.42024">
        <ele>1178.9</ele>
        <time>2019-06-02T12:40:54Z</time>
      </trkpt>
      <trkpt lat="44.324" lon="5.42017">
        <ele>1179.8</ele>
        <time>2019-06-02T12:42:26Z</time>
      </trkpt>
      <trkpt lat="44.32408" lon="5.4201">
        <ele>1179.8</ele>
        <time>2019-06-02T12:42:38Z</time>
      </trkpt>
      <trkpt lat="44.32415" lon="5.42">
        <ele>1179</ele>
        <time>2019-06-02T12:42:52Z</time>
      </trkpt>
      <trkpt lat="44.32422" lon="5.4199">
        <ele>1177.7</ele>
        <time>2019-06-02T12:43:03Z</time>
      </trkpt>
      <trkpt lat="44.32428" lon="5.41981">
        <ele>1175.9</ele>
        <time>2019-06-02T12:43:14Z</time>
      </trkpt>
      <trkpt lat="44.32435" lon="5.41972">
        <ele>1175</ele>
        <time>2019-06-02T12:43:23Z</time>
      </trkpt>
      <trkpt lat="44.32442" lon="5.41964">
        <ele>1173.9</ele>
        <time>2019-06-02T12:43:31Z</time>
      </trkpt>
      <trkpt lat="44.32449" lon="5.41956">
        <ele>1173.2</ele>
        <time>2019-06-02T12:43:40Z</time>
      </trkpt>
      <trkpt lat="44.32457" lon="5.41949">
        <ele>1171.4</ele>
        <time>2019-06-02T12:43:50Z</time>
      </trkpt>
      <trkpt lat="44.32465" lon="5.41943">
        <ele>1170</ele>
        <time>2019-06-02T12:44:01Z</time>
      </trkpt>
      <trkpt lat="44.32475" lon="5.41939">
        <ele>1168.4</ele>
        <time>2019-06-02T12:44:12Z</time>
      </trkpt>
      <trkpt lat="44.32484" lon="5.41935">
        <ele>1167</ele>
        <time>2019-06-02T12:44:22Z</time>
      </trkpt>
      <trkpt lat="44.32492" lon="5.41928">
        <ele>1165.8</ele>
        <time>2019-06-02T12:44:31Z</time>
      </trkpt>
      <trkpt lat="44.32501" lon="5.41921">
        <ele>1163.9</ele>
        <time>2019-06-02T12:44:41Z</time>
      </trkpt>
      <trkpt lat="44.32509" lon="5.41916">
        <ele>1163</ele>
        <time>2019-06-02T12:44:50Z</time>
      </trkpt>
      <trkpt lat="44.32517" lon="5.41911">
        <ele>1162</ele>
        <time>2019-06-02T12:44:59Z</time>
      </trkpt>
      <trkpt lat="44.32526" lon="5.41905">
        <ele>1160.8</ele>
        <time>2019-06-02T12:45:09Z</time>
      </trkpt>
      <trkpt lat="44.32535" lon="5.41899">
        <ele>1159.5</ele>
        <time>2019-06-02T12:45:19Z</time>
      </trkpt>
      <trkpt lat="44.32544" lon="5.41896">
        <ele>1158.2</ele>
        <time>2019-06-02T12:45:28Z</time>
      </trkpt>
      <trkpt lat="44.32553" lon="5.41893">
        <ele>1156.6</ele>
        <time>2019-06-02T12:45:39Z</time>
      </trkpt>
      <trkpt lat="44.32563" lon="5.41891">
        <ele>1155.3</ele>
        <time>2019-06-02T12:45:48Z</time>
      </trkpt>
      <trkpt lat="44.32572" lon="5.41887">
        <ele>1153.9</ele>
        <time>2019-06-02T12:45:57Z</time>
      </trkpt>
      <trkpt lat="44.32581" lon="5.41883">
        <ele>1152.4</ele>
        <time>2019-06-02T12:46:06Z</time>
      </trkpt>
      <trkpt lat="44.3259" lon="5.41878">
        <ele>1150.7</ele>
        <time>2019-06-02T12:46:20Z</time>
      </trkpt>
      <trkpt lat="44.32598" lon="5.41874">
        <ele>1148.6</ele>
        <time>2019-06-02T12:46:54Z</time>
      </trkpt>
      <trkpt lat="44.32607" lon="5.41871">
        <ele>1148.7</ele>
        <time>2019-06-02T12:47:11Z</time>
      </trkpt>
      <trkpt lat="44.32617" lon="5.41866">
        <ele>1148.8</ele>
        <time>2019-06-02T12:47:20Z</time>
      </trkpt>
      <trkpt lat="44.32624" lon="5.41859">
        <ele>1149</ele>
        <time>2019-06-02T12:47:30Z</time>
      </trkpt>
      <trkpt lat="44.32631" lon="5.4185">
        <ele>1148.7</ele>
        <time>2019-06-02T12:47:40Z</time>
      </trkpt>
      <trkpt lat="44.32638" lon="5.41841">
        <ele>1148.3</ele>
        <time>2019-06-02T12:47:51Z</time>
      </trkpt>
      <trkpt lat="44.32642" lon="5.41829">
        <ele>1147.5</ele>
        <time>2019-06-02T12:48:03Z</time>
      </trkpt>
      <trkpt lat="44.32646" lon="5.41818">
        <ele>1146.2</ele>
        <time>2019-06-02T12:48:15Z</time>
      </trkpt>
      <trkpt lat="44.32652" lon="5.41807">
        <ele>1144.9</ele>
        <time>2019-06-02T12:48:26Z</time>
      </trkpt>
      <trkpt lat="44.32658" lon="5.41796">
        <ele>1143.7</ele>
        <time>2019-06-02T12:48:37Z</time>
      </trkpt>
      <trkpt lat="44.32662" lon="5.41784">
        <ele>1142.4</ele>
        <time>2019-06-02T12:48:47Z</time>
      </trkpt>
      <trkpt lat="44.32666" lon="5.41772">
        <ele>1141.3</ele>
        <time>2019-06-02T12:48:57Z</time>
      </trkpt>
      <trkpt lat="44.32672" lon="5.41761">
        <ele>1140.4</ele>
        <time>2019-06-02T12:49:07Z</time>
      </trkpt>
      <trkpt lat="44.32677" lon="5.41751">
        <ele>1139.5</ele>
        <time>2019-06-02T12:49:18Z</time>
      </trkpt>
      <trkpt lat="44.32683" lon="5.4174">
        <ele>1138.4</ele>
        <time>2019-06-02T12:49:27Z</time>
      </trkpt>
      <trkpt lat="44.32688" lon="5.41729">
        <ele>1137.2</ele>
        <time>2019-06-02T12:49:36Z</time>
      </trkpt>
      <trkpt lat="44.32695" lon="5.41719">
        <ele>1136.6</ele>
        <time>2019-06-02T12:49:45Z</time>
      </trkpt>
      <trkpt lat="44.327" lon="5.41708">
        <ele>1135.6</ele>
        <time>2019-06-02T12:49:55Z</time>
      </trkpt>
      <trkpt lat="44.32706" lon="5.41698">
        <ele>1134.4</ele>
        <time>2019-06-02T12:50:04Z</time>
      </trkpt>
      <trkpt lat="44.32712" lon="5.41688">
        <ele>1133.5</ele>
        <time>2019-06-02T12:50:13Z</time>
      </trkpt>
      <trkpt lat="44.32718" lon="5.41678">
        <ele>1132.8</ele>
        <time>2019-06-02T12:50:22Z</time>
      </trkpt>
      <trkpt lat="44.32724" lon="5.41668">
        <ele>1132.2</ele>
        <time>2019-06-02T12:50:30Z</time>
      </trkpt>
      <trkpt lat="44.32729" lon="5.41657">
        <ele>1131.3</ele>
        <time>2019-06-02T12:50:47Z</time>
      </trkpt>
      <trkpt lat="44.32737" lon="5.41652">
        <ele>1130.8</ele>
        <time>2019-06-02T12:51:00Z</time>
      </trkpt>
      <trkpt lat="44.32745" lon="5.41645">
        <ele>1130.2</ele>
        <time>2019-06-02T12:51:11Z</time>
      </trkpt>
      <trkpt lat="44.32754" lon="5.41639">
        <ele>1129.1</ele>
        <time>2019-06-02T12:51:30Z</time>
      </trkpt>
      <trkpt lat="44.32763" lon="5.41632">
        <ele>1128.9</ele>
        <time>2019-06-02T12:51:39Z</time>
      </trkpt>
      <trkpt lat="44.3277" lon="5.41624">
        <ele>1128.7</ele>
        <time>2019-06-02T12:51:47Z</time>
      </trkpt>
      <trkpt lat="44.32777" lon="5.41616">
        <ele>1128.1</ele>
        <time>2019-06-02T12:51:55Z</time>
      </trkpt>
      <trkpt lat="44.32784" lon="5.41607">
        <ele>1127.6</ele>
        <time>2019-06-02T12:52:02Z</time>
      </trkpt>
      <trkpt lat="44.32792" lon="5.41599">
        <ele>1126.7</ele>
        <time>2019-06-02T12:52:10Z</time>
      </trkpt>
      <trkpt lat="44.32799" lon="5.4159">
        <ele>1126</ele>
        <time>2019-06-02T12:52:18Z</time>
      </trkpt>
      <trkpt lat="44.32807" lon="5.41583">
        <ele>1125.4</ele>
        <time>2019-06-02T12:52:27Z</time>
      </trkpt>
      <trkpt lat="44.32815" lon="5.41577">
        <ele>1124.1</ele>
        <time>2019-06-02T12:52:36Z</time>
      </trkpt>
      <trkpt lat="44.32824" lon="5.41573">
        <ele>1123.8</ele>
        <time>2019-06-02T12:52:45Z</time>
      </trkpt>
      <trkpt lat="44.32833" lon="5.4157">
        <ele>1122.9</ele>
        <time>2019-06-02T12:52:55Z</time>
      </trkpt>
      <trkpt lat="44.32843" lon="5.41567">
        <ele>1122.1</ele>
        <time>2019-06-02T12:53:05Z</time>
      </trkpt>
      <trkpt lat="44.32853" lon="5.41565">
        <ele>1121.4</ele>
        <time>2019-06-02T12:53:14Z</time>
      </trkpt>
      <trkpt lat="44.32862" lon="5.41563">
        <ele>1120.9</ele>
        <time>2019-06-02T12:53:22Z</time>
      </trkpt>
      <trkpt lat="44.32872" lon="5.41564">
        <ele>1120.4</ele>
        <time>2019-06-02T12:53:29Z</time>
      </trkpt>
      <trkpt lat="44.32881" lon="5.41563">
        <ele>1120</ele>
        <time>2019-06-02T12:53:37Z</time>
      </trkpt>
      <trkpt lat="44.3289" lon="5.41561">
        <ele>1119.4</ele>
        <time>2019-06-02T12:54:01Z</time>
      </trkpt>
      <trkpt lat="44.32898" lon="5.41556">
        <ele>1120.3</ele>
        <time>2019-06-02T12:55:35Z</time>
      </trkpt>
      <trkpt lat="44.32907" lon="5.41554">
        <ele>1120.2</ele>
        <time>2019-06-02T12:56:05Z</time>
      </trkpt>
      <trkpt lat="44.32916" lon="5.41551">
        <ele>1119.8</ele>
        <time>2019-06-02T12:56:15Z</time>
      </trkpt>
      <trkpt lat="44.32924" lon="5.41542">
        <ele>1119.1</ele>
        <time>2019-06-02T12:56:23Z</time>
      </trkpt>
      <trkpt lat="44.32932" lon="5.41534">
        <ele>1118.8</ele>
        <time>2019-06-02T12:56:31Z</time>
      </trkpt>
      <trkpt lat="44.32941" lon="5.4153">
        <ele>1118.3</ele>
        <time>2019-06-02T12:56:40Z</time>
      </trkpt>
      <trkpt lat="44.3295" lon="5.41525">
        <ele>1117.6</ele>
        <time>2019-06-02T12:56:48Z</time>
      </trkpt>
      <trkpt lat="44.3296" lon="5.41523">
        <ele>1117.3</ele>
        <time>2019-06-02T12:56:55Z</time>
      </trkpt>
      <trkpt lat="44.3297" lon="5.41521">
        <ele>1117.1</ele>
        <time>2019-06-02T12:57:03Z</time>
      </trkpt>
      <trkpt lat="44.32979" lon="5.41522">
        <ele>1116.8</ele>
        <time>2019-06-02T12:57:09Z</time>
      </trkpt>
      <trkpt lat="44.32989" lon="5.41522">
        <ele>1115.9</ele>
        <time>2019-06-02T12:57:17Z</time>
      </trkpt>
      <trkpt lat="44.32999" lon="5.4152">
        <ele>1115.1</ele>
        <time>2019-06-02T12:57:24Z</time>
      </trkpt>
      <trkpt lat="44.33008" lon="5.41521">
        <ele>1114.2</ele>
        <time>2019-06-02T12:57:31Z</time>
      </trkpt>
      <trkpt lat="44.33017" lon="5.41524">
        <ele>1113.5</ele>
        <time>2019-06-02T12:57:38Z</time>
      </trkpt>
      <trkpt lat="44.33026" lon="5.41527">
        <ele>1112.6</ele>
        <time>2019-06-02T12:57:45Z</time>
      </trkpt>
      <trkpt lat="44.33036" lon="5.41529">
        <ele>1111.5</ele>
        <time>2019-06-02T12:57:54Z</time>
      </trkpt>
      <trkpt lat="44.33045" lon="5.41527">
        <ele>1110.8</ele>
        <time>2019-06-02T12:58:03Z</time>
      </trkpt>
      <trkpt lat="44.33054" lon="5.41525">
        <ele>1109.8</ele>
        <time>2019-06-02T12:58:11Z</time>
      </trkpt>
      <trkpt lat="44.33064" lon="5.41525">
        <ele>1109</ele>
        <time>2019-06-02T12:58:19Z</time>
      </trkpt>
      <trkpt lat="44.33074" lon="5.41524">
        <ele>1108.3</ele>
        <time>2019-06-02T12:58:28Z</time>
      </trkpt>
      <trkpt lat="44.33082" lon="5.41516">
        <ele>1108.1</ele>
        <time>2019-06-02T12:58:36Z</time>
      </trkpt>
      <trkpt lat="44.33089" lon="5.41507">
        <ele>1107.7</ele>
        <time>2019-06-02T12:58:44Z</time>
      </trkpt>
      <trkpt lat="44.33094" lon="5.41495">
        <ele>1106.9</ele>
        <time>2019-06-02T12:58:52Z</time>
      </trkpt>
      <trkpt lat="44.331" lon="5.41485">
        <ele>1106.1</ele>
        <time>2019-06-02T12:58:58Z</time>
      </trkpt>
      <trkpt lat="44.33107" lon="5.41476">
        <ele>1105.3</ele>
        <time>2019-06-02T12:59:04Z</time>
      </trkpt>
      <trkpt lat="44.33113" lon="5.41465">
        <ele>1104.3</ele>
        <time>2019-06-02T12:59:11Z</time>
      </trkpt>
      <trkpt lat="44.33119" lon="5.41455">
        <ele>1103.5</ele>
        <time>2019-06-02T12:59:17Z</time>
      </trkpt>
      <trkpt lat="44.33125" lon="5.41444">
        <ele>1102.8</ele>
        <time>2019-06-02T12:59:24Z</time>
      </trkpt>
      <trkpt lat="44.33132" lon="5.41434">
        <ele>1102.3</ele>
        <time>2019-06-02T12:59:31Z</time>
      </trkpt>
      <trkpt lat="44.33139" lon="5.41424">
        <ele>1101.8</ele>
        <time>2019-06-02T12:59:38Z</time>
      </trkpt>
      <trkpt lat="44.33146" lon="5.41415">
        <ele>1101</ele>
        <time>2019-06-02T12:59:46Z</time>
      </trkpt>
      <trkpt lat="44.33153" lon="5.41406">
        <ele>1100.2</ele>
        <time>2019-06-02T12:59:53Z</time>
      </trkpt>
      <trkpt lat="44.3316" lon="5.41395">
        <ele>1099.6</ele>
        <time>2019-06-02T13:00:01Z</time>
      </trkpt>
      <trkpt lat="44.33167" lon="5.41385">
        <ele>1099.3</ele>
        <time>2019-06-02T13:00:08Z</time>
      </trkpt>
      <trkpt lat="44.33175" lon="5.41378">
        <ele>1099.1</ele>
        <time>2019-06-02T13:00:14Z</time>
      </trkpt>
      <trkpt lat="44.33184" lon="5.41372">
        <ele>1098.9</ele>
        <time>2019-06-02T13:00:21Z</time>
      </trkpt>
      <trkpt lat="44.33193" lon="5.41369">
        <ele>1098.3</ele>
        <time>2019-06-02T13:00:28Z</time>
      </trkpt>
      <trkpt lat="44.33203" lon="5.4137">
        <ele>1097.8</ele>
        <time>2019-06-02T13:00:35Z</time>
      </trkpt>
      <trkpt lat="44.33213" lon="5.41371">
        <ele>1096.9</ele>
        <time>2019-06-02T13:00:42Z</time>
      </trkpt>
      <trkpt lat="44.3322" lon="5.41364">
        <ele>1095.8</ele>
        <time>2019-06-02T13:00:50Z</time>
      </trkpt>
      <trkpt lat="44.33227" lon="5.41355">
        <ele>1095.1</ele>
        <time>2019-06-02T13:00:57Z</time>
      </trkpt>
      <trkpt lat="44.33234" lon="5.41345">
        <ele>1094.1</ele>
        <time>2019-06-02T13:01:06Z</time>
      </trkpt>
      <trkpt lat="44.33243" lon="5.4134">
        <ele>1092.7</ele>
        <time>2019-06-02T13:01:15Z</time>
      </trkpt>
      <trkpt lat="44.33254" lon="5.41338">
        <ele>1091.9</ele>
        <time>2019-06-02T13:01:22Z</time>
      </trkpt>
      <trkpt lat="44.33263" lon="5.4134">
        <ele>1091.4</ele>
        <time>2019-06-02T13:01:28Z</time>
      </trkpt>
      <trkpt lat="44.33272" lon="5.41342">
        <ele>1091</ele>
        <time>2019-06-02T13:01:33Z</time>
      </trkpt>
      <trkpt lat="44.33281" lon="5.41345">
        <ele>1090.3</ele>
        <time>2019-06-02T13:01:39Z</time>
      </trkpt>
      <trkpt lat="44.33291" lon="5.41343">
        <ele>1089.6</ele>
        <time>2019-06-02T13:01:46Z</time>
      </trkpt>
      <trkpt lat="44.33299" lon="5.41336">
        <ele>1088.8</ele>
        <time>2019-06-02T13:01:54Z</time>
      </trkpt>
      <trkpt lat="44.33309" lon="5.41332">
        <ele>1087.7</ele>
        <time>2019-06-02T13:02:02Z</time>
      </trkpt>
      <trkpt lat="44.33318" lon="5.41329">
        <ele>1086.6</ele>
        <time>2019-06-02T13:02:09Z</time>
      </trkpt>
      <trkpt lat="44.33328" lon="5.41327">
        <ele>1084.9</ele>
        <time>2019-06-02T13:02:18Z</time>
      </trkpt>
      <trkpt lat="44.33337" lon="5.41323">
        <ele>1083.8</ele>
        <time>2019-06-02T13:02:27Z</time>
      </trkpt>
      <trkpt lat="44.33346" lon="5.41319">
        <ele>1082.7</ele>
        <time>2019-06-02T13:02:35Z</time>
      </trkpt>
      <trkpt lat="44.33356" lon="5.41315">
        <ele>1081.4</ele>
        <time>2019-06-02T13:02:43Z</time>
      </trkpt>
      <trkpt lat="44.33366" lon="5.41316">
        <ele>1080.3</ele>
        <time>2019-06-02T13:02:51Z</time>
      </trkpt>
      <trkpt lat="44.33375" lon="5.41318">
        <ele>1079.1</ele>
        <time>2019-06-02T13:02:58Z</time>
      </trkpt>
      <trkpt lat="44.33384" lon="5.4132">
        <ele>1078.1</ele>
        <time>2019-06-02T13:03:08Z</time>
      </trkpt>
      <trkpt lat="44.33393" lon="5.41322">
        <ele>1076.1</ele>
        <time>2019-06-02T13:03:47Z</time>
      </trkpt>
      <trkpt lat="44.33403" lon="5.41322">
        <ele>1078.8</ele>
        <time>2019-06-02T13:05:53Z</time>
      </trkpt>
      <trkpt lat="44.33412" lon="5.41326">
        <ele>1078.5</ele>
        <time>2019-06-02T13:06:05Z</time>
      </trkpt>
      <trkpt lat="44.33421" lon="5.41331">
        <ele>1077.9</ele>
        <time>2019-06-02T13:06:17Z</time>
      </trkpt>
      <trkpt lat="44.3343" lon="5.41337">
        <ele>1076.8</ele>
        <time>2019-06-02T13:06:26Z</time>
      </trkpt>
      <trkpt lat="44.33439" lon="5.41342">
        <ele>1075.8</ele>
        <time>2019-06-02T13:06:35Z</time>
      </trkpt>
      <trkpt lat="44.33447" lon="5.41347">
        <ele>1074.8</ele>
        <time>2019-06-02T13:06:43Z</time>
      </trkpt>
      <trkpt lat="44.33456" lon="5.41354">
        <ele>1074.1</ele>
        <time>2019-06-02T13:06:50Z</time>
      </trkpt>
      <trkpt lat="44.33465" lon="5.41359">
        <ele>1073.2</ele>
        <time>2019-06-02T13:06:57Z</time>
      </trkpt>
      <trkpt lat="44.33473" lon="5.41367">
        <ele>1072.3</ele>
        <time>2019-06-02T13:07:05Z</time>
      </trkpt>
      <trkpt lat="44.3348" lon="5.41375">
        <ele>1071.6</ele>
        <time>2019-06-02T13:07:12Z</time>
      </trkpt>
      <trkpt lat="44.33485" lon="5.41387">
        <ele>1070.6</ele>
        <time>2019-06-02T13:07:20Z</time>
      </trkpt>
      <trkpt lat="44.33487" lon="5.414">
        <ele>1069.5</ele>
        <time>2019-06-02T13:07:27Z</time>
      </trkpt>
      <trkpt lat="44.33491" lon="5.41412">
        <ele>1068.7</ele>
        <time>2019-06-02T13:07:34Z</time>
      </trkpt>
      <trkpt lat="44.33499" lon="5.41418">
        <ele>1067.2</ele>
        <time>2019-06-02T13:07:45Z</time>
      </trkpt>
      <trkpt lat="44.33508" lon="5.41416">
        <ele>1065.8</ele>
        <time>2019-06-02T13:07:55Z</time>
      </trkpt>
      <trkpt lat="44.33519" lon="5.41416">
        <ele>1064.7</ele>
        <time>2019-06-02T13:08:03Z</time>
      </trkpt>
      <trkpt lat="44.33517" lon="5.41429">
        <ele>1063</ele>
        <time>2019-06-02T13:08:16Z</time>
      </trkpt>
      <trkpt lat="44.33508" lon="5.41433">
        <ele>1061.6</ele>
        <time>2019-06-02T13:08:26Z</time>
      </trkpt>
      <trkpt lat="44.33499" lon="5.41431">
        <ele>1060.3</ele>
        <time>2019-06-02T13:08:38Z</time>
      </trkpt>
      <trkpt lat="44.3349" lon="5.41424">
        <ele>1059.1</ele>
        <time>2019-06-02T13:08:47Z</time>
      </trkpt>
      <trkpt lat="44.33483" lon="5.41416">
        <ele>1058.1</ele>
        <time>2019-06-02T13:08:55Z</time>
      </trkpt>
      <trkpt lat="44.33476" lon="5.41407">
        <ele>1057</ele>
        <time>2019-06-02T13:09:03Z</time>
      </trkpt>
      <trkpt lat="44.33466" lon="5.41402">
        <ele>1055.8</ele>
        <time>2019-06-02T13:09:12Z</time>
      </trkpt>
      <trkpt lat="44.33456" lon="5.414">
        <ele>1054.2</ele>
        <time>2019-06-02T13:09:20Z</time>
      </trkpt>
      <trkpt lat="44.33446" lon="5.41399">
        <ele>1053.1</ele>
        <time>2019-06-02T13:09:28Z</time>
      </trkpt>
      <trkpt lat="44.33437" lon="5.41401">
        <ele>1051.7</ele>
        <time>2019-06-02T13:09:35Z</time>
      </trkpt>
      <trkpt lat="44.33427" lon="5.41404">
        <ele>1050.6</ele>
        <time>2019-06-02T13:09:42Z</time>
      </trkpt>
      <trkpt lat="44.33418" lon="5.41407">
        <ele>1049.7</ele>
        <time>2019-06-02T13:09:49Z</time>
      </trkpt>
      <trkpt lat="44.33409" lon="5.41407">
        <ele>1049.1</ele>
        <time>2019-06-02T13:09:56Z</time>
      </trkpt>
      <trkpt lat="44.33399" lon="5.41406">
        <ele>1047.7</ele>
        <time>2019-06-02T13:10:05Z</time>
      </trkpt>
      <trkpt lat="44.33389" lon="5.41411">
        <ele>1046.6</ele>
        <time>2019-06-02T13:10:13Z</time>
      </trkpt>
      <trkpt lat="44.33381" lon="5.41419">
        <ele>1045.2</ele>
        <time>2019-06-02T13:10:20Z</time>
      </trkpt>
      <trkpt lat="44.33372" lon="5.41423">
        <ele>1044</ele>
        <time>2019-06-02T13:10:27Z</time>
      </trkpt>
      <trkpt lat="44.33362" lon="5.41426">
        <ele>1043.2</ele>
        <time>2019-06-02T13:10:34Z</time>
      </trkpt>
      <trkpt lat="44.33353" lon="5.4143">
        <ele>1042</ele>
        <time>2019-06-02T13:10:41Z</time>
      </trkpt>
      <trkpt lat="44.33345" lon="5.41435">
        <ele>1040.9</ele>
        <time>2019-06-02T13:10:48Z</time>
      </trkpt>
      <trkpt lat="44.33339" lon="5.41446">
        <ele>1039.8</ele>
        <time>2019-06-02T13:10:58Z</time>
      </trkpt>
      <trkpt lat="44.33332" lon="5.41456">
        <ele>1038.8</ele>
        <time>2019-06-02T13:11:06Z</time>
      </trkpt>
      <trkpt lat="44.33325" lon="5.41466">
        <ele>1037.4</ele>
        <time>2019-06-02T13:11:14Z</time>
      </trkpt>
      <trkpt lat="44.33317" lon="5.41473">
        <ele>1036.4</ele>
        <time>2019-06-02T13:11:21Z</time>
      </trkpt>
      <trkpt lat="44.33309" lon="5.4148">
        <ele>1035.4</ele>
        <time>2019-06-02T13:11:28Z</time>
      </trkpt>
      <trkpt lat="44.33302" lon="5.41488">
        <ele>1034.1</ele>
        <time>2019-06-02T13:11:35Z</time>
      </trkpt>
      <trkpt lat="44.33295" lon="5.41496">
        <ele>1033</ele>
        <time>2019-06-02T13:11:42Z</time>
      </trkpt>
      <trkpt lat="44.33287" lon="5.41503">
        <ele>1032.2</ele>
        <time>2019-06-02T13:11:49Z</time>
      </trkpt>
      <trkpt lat="44.33279" lon="5.4151">
        <ele>1031.3</ele>
        <time>2019-06-02T13:11:56Z</time>
      </trkpt>
      <trkpt lat="44.3327" lon="5.41517">
        <ele>1030.3</ele>
        <time>2019-06-02T13:12:04Z</time>
      </trkpt>
      <trkpt lat="44.33261" lon="5.41522">
        <ele>1029.6</ele>
        <time>2019-06-02T13:12:11Z</time>
      </trkpt>
      <trkpt lat="44.33253" lon="5.41527">
        <ele>1028.6</ele>
        <time>2019-06-02T13:12:19Z</time>
      </trkpt>
      <trkpt lat="44.33247" lon="5.41537">
        <ele>1027.7</ele>
        <time>2019-06-02T13:12:27Z</time>
      </trkpt>
      <trkpt lat="44.33254" lon="5.41544">
        <ele>1026</ele>
        <time>2019-06-02T13:12:35Z</time>
      </trkpt>
      <trkpt lat="44.33263" lon="5.41542">
        <ele>1024</ele>
        <time>2019-06-02T13:12:46Z</time>
      </trkpt>
      <trkpt lat="44.33273" lon="5.41544">
        <ele>1024.1</ele>
        <time>2019-06-02T13:12:55Z</time>
      </trkpt>
      <trkpt lat="44.33282" lon="5.41547">
        <ele>1023</ele>
        <time>2019-06-02T13:13:02Z</time>
      </trkpt>
      <trkpt lat="44.33291" lon="5.41547">
        <ele>1022.3</ele>
        <time>2019-06-02T13:13:09Z</time>
      </trkpt>
      <trkpt lat="44.33301" lon="5.41544">
        <ele>1021.5</ele>
        <time>2019-06-02T13:13:17Z</time>
      </trkpt>
      <trkpt lat="44.3331" lon="5.41539">
        <ele>1021</ele>
        <time>2019-06-02T13:13:25Z</time>
      </trkpt>
      <trkpt lat="44.33318" lon="5.41532">
        <ele>1020.7</ele>
        <time>2019-06-02T13:13:33Z</time>
      </trkpt>
      <trkpt lat="44.33327" lon="5.41528">
        <ele>1020.5</ele>
        <time>2019-06-02T13:13:41Z</time>
      </trkpt>
      <trkpt lat="44.33336" lon="5.41529">
        <ele>1020.4</ele>
        <time>2019-06-02T13:13:50Z</time>
      </trkpt>
      <trkpt lat="44.33346" lon="5.41525">
        <ele>1020.2</ele>
        <time>2019-06-02T13:13:59Z</time>
      </trkpt>
      <trkpt lat="44.33351" lon="5.41514">
        <ele>1019.7</ele>
        <time>2019-06-02T13:14:07Z</time>
      </trkpt>
      <trkpt lat="44.33358" lon="5.41504">
        <ele>1019.4</ele>
        <time>2019-06-02T13:14:14Z</time>
      </trkpt>
      <trkpt lat="44.33366" lon="5.41496">
        <ele>1019.1</ele>
        <time>2019-06-02T13:14:21Z</time>
      </trkpt>
      <trkpt lat="44.33376" lon="5.41493">
        <ele>1018.8</ele>
        <time>2019-06-02T13:14:28Z</time>
      </trkpt>
      <trkpt lat="44.33385" lon="5.41495">
        <ele>1018.6</ele>
        <time>2019-06-02T13:14:36Z</time>
      </trkpt>
      <trkpt lat="44.33395" lon="5.41499">
        <ele>1018.1</ele>
        <time>2019-06-02T13:14:43Z</time>
      </trkpt>
      <trkpt lat="44.33404" lon="5.41505">
        <ele>1017.6</ele>
        <time>2019-06-02T13:14:50Z</time>
      </trkpt>
      <trkpt lat="44.33413" lon="5.41509">
        <ele>1017.1</ele>
        <time>2019-06-02T13:14:57Z</time>
      </trkpt>
      <trkpt lat="44.33422" lon="5.41513">
        <ele>1016.5</ele>
        <time>2019-06-02T13:15:04Z</time>
      </trkpt>
      <trkpt lat="44.33432" lon="5.41516">
        <ele>1016</ele>
        <time>2019-06-02T13:15:11Z</time>
      </trkpt>
      <trkpt lat="44.33442" lon="5.41519">
        <ele>1015.3</ele>
        <time>2019-06-02T13:15:18Z</time>
      </trkpt>
      <trkpt lat="44.33451" lon="5.41522">
        <ele>1014.6</ele>
        <time>2019-06-02T13:15:25Z</time>
      </trkpt>
      <trkpt lat="44.3346" lon="5.41526">
        <ele>1014.1</ele>
        <time>2019-06-02T13:15:31Z</time>
      </trkpt>
      <trkpt lat="44.33469" lon="5.41531">
        <ele>1013.7</ele>
        <time>2019-06-02T13:15:37Z</time>
      </trkpt>
      <trkpt lat="44.33477" lon="5.4154">
        <ele>1012.7</ele>
        <time>2019-06-02T13:15:44Z</time>
      </trkpt>
      <trkpt lat="44.33484" lon="5.41551">
        <ele>1011.7</ele>
        <time>2019-06-02T13:15:51Z</time>
      </trkpt>
      <trkpt lat="44.3349" lon="5.41562">
        <ele>1010.9</ele>
        <time>2019-06-02T13:15:58Z</time>
      </trkpt>
      <trkpt lat="44.33496" lon="5.41574">
        <ele>1010.1</ele>
        <time>2019-06-02T13:16:05Z</time>
      </trkpt>
      <trkpt lat="44.33503" lon="5.41583">
        <ele>1009.3</ele>
        <time>2019-06-02T13:16:12Z</time>
      </trkpt>
      <trkpt lat="44.33513" lon="5.41585">
        <ele>1008.1</ele>
        <time>2019-06-02T13:16:20Z</time>
      </trkpt>
      <trkpt lat="44.33522" lon="5.41586">
        <ele>1007.4</ele>
        <time>2019-06-02T13:16:27Z</time>
      </trkpt>
      <trkpt lat="44.3353" lon="5.41589">
        <ele>1006.9</ele>
        <time>2019-06-02T13:16:33Z</time>
      </trkpt>
      <trkpt lat="44.33539" lon="5.41595">
        <ele>1006.3</ele>
        <time>2019-06-02T13:16:40Z</time>
      </trkpt>
      <trkpt lat="44.33548" lon="5.41601">
        <ele>1005.4</ele>
        <time>2019-06-02T13:16:46Z</time>
      </trkpt>
      <trkpt lat="44.33556" lon="5.41607">
        <ele>1004.5</ele>
        <time>2019-06-02T13:16:52Z</time>
      </trkpt>
      <trkpt lat="44.33566" lon="5.41612">
        <ele>1003.7</ele>
        <time>2019-06-02T13:16:59Z</time>
      </trkpt>
      <trkpt lat="44.33574" lon="5.41619">
        <ele>1002.9</ele>
        <time>2019-06-02T13:17:07Z</time>
      </trkpt>
      <trkpt lat="44.33583" lon="5.41619">
        <ele>1001.9</ele>
        <time>2019-06-02T13:17:16Z</time>
      </trkpt>
      <trkpt lat="44.33592" lon="5.41614">
        <ele>1001</ele>
        <time>2019-06-02T13:17:27Z</time>
      </trkpt>
      <trkpt lat="44.33601" lon="5.41609">
        <ele>1000.3</ele>
        <time>2019-06-02T13:17:35Z</time>
      </trkpt>
      <trkpt lat="44.3361" lon="5.41604">
        <ele>999.8</ele>
        <time>2019-06-02T13:17:42Z</time>
      </trkpt>
      <trkpt lat="44.3362" lon="5.416">
        <ele>999.1</ele>
        <time>2019-06-02T13:17:50Z</time>
      </trkpt>
      <trkpt lat="44.33628" lon="5.41593">
        <ele>998.8</ele>
        <time>2019-06-02T13:17:56Z</time>
      </trkpt>
      <trkpt lat="44.33634" lon="5.41581">
        <ele>998.2</ele>
        <time>2019-06-02T13:18:03Z</time>
      </trkpt>
      <trkpt lat="44.33639" lon="5.4157">
        <ele>997.7</ele>
        <time>2019-06-02T13:18:11Z</time>
      </trkpt>
      <trkpt lat="44.33645" lon="5.4156">
        <ele>997.1</ele>
        <time>2019-06-02T13:18:19Z</time>
      </trkpt>
      <trkpt lat="44.33652" lon="5.41552">
        <ele>996.5</ele>
        <time>2019-06-02T13:18:27Z</time>
      </trkpt>
      <trkpt lat="44.33661" lon="5.41551">
        <ele>995.4</ele>
        <time>2019-06-02T13:18:41Z</time>
      </trkpt>
      <trkpt lat="44.33669" lon="5.41559">
        <ele>995.2</ele>
        <time>2019-06-02T13:19:00Z</time>
      </trkpt>
      <trkpt lat="44.33678" lon="5.41556">
        <ele>994.6</ele>
        <time>2019-06-02T13:19:42Z</time>
      </trkpt>
      <trkpt lat="44.33687" lon="5.41554">
        <ele>994.5</ele>
        <time>2019-06-02T13:19:57Z</time>
      </trkpt>
      <trkpt lat="44.33697" lon="5.41557">
        <ele>994.4</ele>
        <time>2019-06-02T13:20:07Z</time>
      </trkpt>
      <trkpt lat="44.33706" lon="5.41559">
        <ele>994.2</ele>
        <time>2019-06-02T13:20:16Z</time>
      </trkpt>
      <trkpt lat="44.33715" lon="5.41561">
        <ele>993.5</ele>
        <time>2019-06-02T13:20:24Z</time>
      </trkpt>
      <trkpt lat="44.33725" lon="5.41563">
        <ele>992.7</ele>
        <time>2019-06-02T13:20:33Z</time>
      </trkpt>
      <trkpt lat="44.33733" lon="5.41558">
        <ele>991.2</ele>
        <time>2019-06-02T13:20:46Z</time>
      </trkpt>
      <trkpt lat="44.33738" lon="5.41547">
        <ele>990.5</ele>
        <time>2019-06-02T13:20:56Z</time>
      </trkpt>
      <trkpt lat="44.33743" lon="5.41536">
        <ele>990</ele>
        <time>2019-06-02T13:21:03Z</time>
      </trkpt>
      <trkpt lat="44.33748" lon="5.41525">
        <ele>989.5</ele>
        <time>2019-06-02T13:21:08Z</time>
      </trkpt>
      <trkpt lat="44.33754" lon="5.41514">
        <ele>989</ele>
        <time>2019-06-02T13:21:14Z</time>
      </trkpt>
      <trkpt lat="44.33761" lon="5.41507">
        <ele>988.4</ele>
        <time>2019-06-02T13:21:21Z</time>
      </trkpt>
      <trkpt lat="44.3377" lon="5.4151">
        <ele>988</ele>
        <time>2019-06-02T13:21:27Z</time>
      </trkpt>
      <trkpt lat="44.33777" lon="5.4152">
        <ele>987.9</ele>
        <time>2019-06-02T13:21:32Z</time>
      </trkpt>
      <trkpt lat="44.33783" lon="5.41529">
        <ele>987.8</ele>
        <time>2019-06-02T13:21:38Z</time>
      </trkpt>
      <trkpt lat="44.33789" lon="5.41539">
        <ele>987.4</ele>
        <time>2019-06-02T13:21:45Z</time>
      </trkpt>
      <trkpt lat="44.33794" lon="5.4155">
        <ele>986.8</ele>
        <time>2019-06-02T13:21:53Z</time>
      </trkpt>
      <trkpt lat="44.33801" lon="5.4156">
        <ele>985.7</ele>
        <time>2019-06-02T13:22:11Z</time>
      </trkpt>
      <trkpt lat="44.33809" lon="5.41567">
        <ele>984.5</ele>
        <time>2019-06-02T13:22:20Z</time>
      </trkpt>
      <trkpt lat="44.33815" lon="5.41577">
        <ele>982.9</ele>
        <time>2019-06-02T13:22:29Z</time>
      </trkpt>
      <trkpt lat="44.3382" lon="5.41587">
        <ele>981.4</ele>
        <time>2019-06-02T13:22:37Z</time>
      </trkpt>
      <trkpt lat="44.33827" lon="5.41597">
        <ele>979.3</ele>
        <time>2019-06-02T13:22:47Z</time>
      </trkpt>
      <trkpt lat="44.33833" lon="5.41607">
        <ele>977.2</ele>
        <time>2019-06-02T13:22:57Z</time>
      </trkpt>
      <trkpt lat="44.33839" lon="5.41617">
        <ele>975.3</ele>
        <time>2019-06-02T13:23:06Z</time>
      </trkpt>
      <trkpt lat="44.33844" lon="5.41628">
        <ele>973.2</ele>
        <time>2019-06-02T13:23:15Z</time>
      </trkpt>
      <trkpt lat="44.33848" lon="5.4164">
        <ele>971.5</ele>
        <time>2019-06-02T13:23:23Z</time>
      </trkpt>
      <trkpt lat="44.33854" lon="5.41651">
        <ele>969.5</ele>
        <time>2019-06-02T13:23:31Z</time>
      </trkpt>
      <trkpt lat="44.33861" lon="5.4166">
        <ele>967.6</ele>
        <time>2019-06-02T13:23:38Z</time>
      </trkpt>
      <trkpt lat="44.33869" lon="5.41669">
        <ele>966</ele>
        <time>2019-06-02T13:23:45Z</time>
      </trkpt>
      <trkpt lat="44.33877" lon="5.41676">
        <ele>964.3</ele>
        <time>2019-06-02T13:23:52Z</time>
      </trkpt>
      <trkpt lat="44.33885" lon="5.41684">
        <ele>963</ele>
        <time>2019-06-02T13:24:00Z</time>
      </trkpt>
      <trkpt lat="44.33893" lon="5.41692">
        <ele>961.7</ele>
        <time>2019-06-02T13:24:09Z</time>
      </trkpt>
      <trkpt lat="44.339" lon="5.41702">
        <ele>960.5</ele>
        <time>2019-06-02T13:24:17Z</time>
      </trkpt>
      <trkpt lat="44.33908" lon="5.41709">
        <ele>959.1</ele>
        <time>2019-06-02T13:24:24Z</time>
      </trkpt>
      <trkpt lat="44.33916" lon="5.41715">
        <ele>957.5</ele>
        <time>2019-06-02T13:24:33Z</time>
      </trkpt>
      <trkpt lat="44.33926" lon="5.41716">
        <ele>955.9</ele>
        <time>2019-06-02T13:24:42Z</time>
      </trkpt>
      <trkpt lat="44.33935" lon="5.4172">
        <ele>954.5</ele>
        <time>2019-06-02T13:24:51Z</time>
      </trkpt>
      <trkpt lat="44.33944" lon="5.41723">
        <ele>953.2</ele>
        <time>2019-06-02T13:25:00Z</time>
      </trkpt>
      <trkpt lat="44.33953" lon="5.41729">
        <ele>951.7</ele>
        <time>2019-06-02T13:25:07Z</time>
      </trkpt>
      <trkpt lat="44.33962" lon="5.41736">
        <ele>950.4</ele>
        <time>2019-06-02T13:25:14Z</time>
      </trkpt>
      <trkpt lat="44.3397" lon="5.41742">
        <ele>949.1</ele>
        <time>2019-06-02T13:25:20Z</time>
      </trkpt>
      <trkpt lat="44.33978" lon="5.4175">
        <ele>947.6</ele>
        <time>2019-06-02T13:25:27Z</time>
      </trkpt>
      <trkpt lat="44.33986" lon="5.41756">
        <ele>945.6</ele>
        <time>2019-06-02T13:25:34Z</time>
      </trkpt>
      <trkpt lat="44.33996" lon="5.4176">
        <ele>941.1</ele>
        <time>2019-06-02T13:26:27Z</time>
      </trkpt>
      <trkpt lat="44.34005" lon="5.41765">
        <ele>940.8</ele>
        <time>2019-06-02T13:26:33Z</time>
      </trkpt>
      <trkpt lat="44.34014" lon="5.41766">
        <ele>940.4</ele>
        <time>2019-06-02T13:26:40Z</time>
      </trkpt>
      <trkpt lat="44.34023" lon="5.41763">
        <ele>939.9</ele>
        <time>2019-06-02T13:26:47Z</time>
      </trkpt>
      <trkpt lat="44.34031" lon="5.41757">
        <ele>939.3</ele>
        <time>2019-06-02T13:26:55Z</time>
      </trkpt>
      <trkpt lat="44.34039" lon="5.41749">
        <ele>938.1</ele>
        <time>2019-06-02T13:27:07Z</time>
      </trkpt>
      <trkpt lat="44.34048" lon="5.41744">
        <ele>937.6</ele>
        <time>2019-06-02T13:27:16Z</time>
      </trkpt>
      <trkpt lat="44.34057" lon="5.41741">
        <ele>936.9</ele>
        <time>2019-06-02T13:27:23Z</time>
      </trkpt>
      <trkpt lat="44.34066" lon="5.41738">
        <ele>936</ele>
        <time>2019-06-02T13:27:29Z</time>
      </trkpt>
      <trkpt lat="44.34076" lon="5.41736">
        <ele>935.4</ele>
        <time>2019-06-02T13:27:35Z</time>
      </trkpt>
      <trkpt lat="44.34086" lon="5.41736">
        <ele>934.8</ele>
        <time>2019-06-02T13:27:41Z</time>
      </trkpt>
      <trkpt lat="44.34095" lon="5.41735">
        <ele>934.3</ele>
        <time>2019-06-02T13:27:47Z</time>
      </trkpt>
      <trkpt lat="44.34105" lon="5.41732">
        <ele>933.5</ele>
        <time>2019-06-02T13:27:55Z</time>
      </trkpt>
      <trkpt lat="44.34114" lon="5.41727">
        <ele>932.6</ele>
        <time>2019-06-02T13:28:02Z</time>
      </trkpt>
      <trkpt lat="44.34122" lon="5.41723">
        <ele>932</ele>
        <time>2019-06-02T13:28:08Z</time>
      </trkpt>
      <trkpt lat="44.34132" lon="5.41721">
        <ele>931</ele>
        <time>2019-06-02T13:28:15Z</time>
      </trkpt>
      <trkpt lat="44.34143" lon="5.41717">
        <ele>930.1</ele>
        <time>2019-06-02T13:28:21Z</time>
      </trkpt>
      <trkpt lat="44.34152" lon="5.41714">
        <ele>929.3</ele>
        <time>2019-06-02T13:28:27Z</time>
      </trkpt>
      <trkpt lat="44.34162" lon="5.41713">
        <ele>928.5</ele>
        <time>2019-06-02T13:28:34Z</time>
      </trkpt>
      <trkpt lat="44.34172" lon="5.41712">
        <ele>927.9</ele>
        <time>2019-06-02T13:28:41Z</time>
      </trkpt>
      <trkpt lat="44.34181" lon="5.4171">
        <ele>926.8</ele>
        <time>2019-06-02T13:28:51Z</time>
      </trkpt>
      <trkpt lat="44.34191" lon="5.41706">
        <ele>926.1</ele>
        <time>2019-06-02T13:28:59Z</time>
      </trkpt>
      <trkpt lat="44.34201" lon="5.41705">
        <ele>925.8</ele>
        <time>2019-06-02T13:29:05Z</time>
      </trkpt>
      <trkpt lat="44.34211" lon="5.41704">
        <ele>925.3</ele>
        <time>2019-06-02T13:29:11Z</time>
      </trkpt>
      <trkpt lat="44.34221" lon="5.41703">
        <ele>924.5</ele>
        <time>2019-06-02T13:29:17Z</time>
      </trkpt>
      <trkpt lat="44.34229" lon="5.41696">
        <ele>923.7</ele>
        <time>2019-06-02T13:29:24Z</time>
      </trkpt>
      <trkpt lat="44.34235" lon="5.41685">
        <ele>923.1</ele>
        <time>2019-06-02T13:29:31Z</time>
      </trkpt>
      <trkpt lat="44.3424" lon="5.41674">
        <ele>922.5</ele>
        <time>2019-06-02T13:29:37Z</time>
      </trkpt>
      <trkpt lat="44.34244" lon="5.41662">
        <ele>921.7</ele>
        <time>2019-06-02T13:29:44Z</time>
      </trkpt>
      <trkpt lat="44.34249" lon="5.41651">
        <ele>921</ele>
        <time>2019-06-02T13:29:51Z</time>
      </trkpt>
      <trkpt lat="44.34257" lon="5.41643">
        <ele>920.6</ele>
        <time>2019-06-02T13:29:58Z</time>
      </trkpt>
      <trkpt lat="44.34261" lon="5.4163">
        <ele>919.9</ele>
        <time>2019-06-02T13:30:04Z</time>
      </trkpt>
      <trkpt lat="44.34265" lon="5.41618">
        <ele>919.2</ele>
        <time>2019-06-02T13:30:09Z</time>
      </trkpt>
      <trkpt lat="44.34268" lon="5.41604">
        <ele>918.7</ele>
        <time>2019-06-02T13:30:14Z</time>
      </trkpt>
      <trkpt lat="44.34271" lon="5.41592">
        <ele>918.3</ele>
        <time>2019-06-02T13:30:18Z</time>
      </trkpt>
      <trkpt lat="44.34273" lon="5.41578">
        <ele>917.8</ele>
        <time>2019-06-02T13:30:23Z</time>
      </trkpt>
      <trkpt lat="44.34279" lon="5.41566">
        <ele>917.3</ele>
        <time>2019-06-02T13:30:28Z</time>
      </trkpt>
      <trkpt lat="44.3428" lon="5.41552">
        <ele>916.8</ele>
        <time>2019-06-02T13:30:34Z</time>
      </trkpt>
      <trkpt lat="44.34286" lon="5.4154">
        <ele>916.3</ele>
        <time>2019-06-02T13:30:41Z</time>
      </trkpt>
      <trkpt lat="44.34294" lon="5.41532">
        <ele>915.5</ele>
        <time>2019-06-02T13:30:50Z</time>
      </trkpt>
      <trkpt lat="44.34303" lon="5.4153">
        <ele>914.9</ele>
        <time>2019-06-02T13:30:56Z</time>
      </trkpt>
      <trkpt lat="44.34312" lon="5.41531">
        <ele>913.9</ele>
        <time>2019-06-02T13:31:02Z</time>
      </trkpt>
      <trkpt lat="44.34321" lon="5.41529">
        <ele>913</ele>
        <time>2019-06-02T13:31:09Z</time>
      </trkpt>
      <trkpt lat="44.34331" lon="5.41525">
        <ele>912</ele>
        <time>2019-06-02T13:31:17Z</time>
      </trkpt>
      <trkpt lat="44.3434" lon="5.4152">
        <ele>910.4</ele>
        <time>2019-06-02T13:31:25Z</time>
      </trkpt>
      <trkpt lat="44.34349" lon="5.41515">
        <ele>909.2</ele>
        <time>2019-06-02T13:31:33Z</time>
      </trkpt>
      <trkpt lat="44.34357" lon="5.41508">
        <ele>908.1</ele>
        <time>2019-06-02T13:31:41Z</time>
      </trkpt>
      <trkpt lat="44.34363" lon="5.41497">
        <ele>907.4</ele>
        <time>2019-06-02T13:31:48Z</time>
      </trkpt>
      <trkpt lat="44.34365" lon="5.41483">
        <ele>906.6</ele>
        <time>2019-06-02T13:31:53Z</time>
      </trkpt>
      <trkpt lat="44.34368" lon="5.41471">
        <ele>906</ele>
        <time>2019-06-02T13:31:57Z</time>
      </trkpt>
      <trkpt lat="44.34373" lon="5.4146">
        <ele>905.4</ele>
        <time>2019-06-02T13:32:03Z</time>
      </trkpt>
      <trkpt lat="44.34382" lon="5.41453">
        <ele>904.8</ele>
        <time>2019-06-02T13:32:09Z</time>
      </trkpt>
      <trkpt lat="44.34391" lon="5.41447">
        <ele>904.3</ele>
        <time>2019-06-02T13:32:15Z</time>
      </trkpt>
      <trkpt lat="44.34399" lon="5.41439">
        <ele>903.7</ele>
        <time>2019-06-02T13:32:21Z</time>
      </trkpt>
      <trkpt lat="44.34407" lon="5.41431">
        <ele>902.8</ele>
        <time>2019-06-02T13:32:27Z</time>
      </trkpt>
      <trkpt lat="44.34415" lon="5.41421">
        <ele>902.1</ele>
        <time>2019-06-02T13:32:34Z</time>
      </trkpt>
      <trkpt lat="44.34423" lon="5.41414">
        <ele>901.1</ele>
        <time>2019-06-02T13:32:40Z</time>
      </trkpt>
      <trkpt lat="44.34432" lon="5.41407">
        <ele>900.1</ele>
        <time>2019-06-02T13:32:46Z</time>
      </trkpt>
      <trkpt lat="44.34442" lon="5.41402">
        <ele>899.3</ele>
        <time>2019-06-02T13:32:52Z</time>
      </trkpt>
      <trkpt lat="44.34452" lon="5.41399">
        <ele>898.6</ele>
        <time>2019-06-02T13:32:58Z</time>
      </trkpt>
      <trkpt lat="44.34463" lon="5.41396">
        <ele>898</ele>
        <time>2019-06-02T13:33:04Z</time>
      </trkpt>
      <trkpt lat="44.34473" lon="5.41394">
        <ele>896.9</ele>
        <time>2019-06-02T13:33:10Z</time>
      </trkpt>
      <trkpt lat="44.34484" lon="5.41393">
        <ele>895.9</ele>
        <time>2019-06-02T13:33:16Z</time>
      </trkpt>
      <trkpt lat="44.34493" lon="5.41393">
        <ele>895.2</ele>
        <time>2019-06-02T13:33:21Z</time>
      </trkpt>
      <trkpt lat="44.34503" lon="5.41392">
        <ele>894.5</ele>
        <time>2019-06-02T13:33:27Z</time>
      </trkpt>
      <trkpt lat="44.34513" lon="5.41392">
        <ele>893.8</ele>
        <time>2019-06-02T13:33:33Z</time>
      </trkpt>
      <trkpt lat="44.34522" lon="5.41394">
        <ele>892.8</ele>
        <time>2019-06-02T13:33:40Z</time>
      </trkpt>
      <trkpt lat="44.3453" lon="5.41403">
        <ele>891.6</ele>
        <time>2019-06-02T13:33:47Z</time>
      </trkpt>
      <trkpt lat="44.34535" lon="5.41414">
        <ele>890.2</ele>
        <time>2019-06-02T13:33:55Z</time>
      </trkpt>
      <trkpt lat="44.34539" lon="5.41426">
        <ele>888.3</ele>
        <time>2019-06-02T13:34:04Z</time>
      </trkpt>
      <trkpt lat="44.34543" lon="5.41439">
        <ele>886.3</ele>
        <time>2019-06-02T13:34:12Z</time>
      </trkpt>
      <trkpt lat="44.34545" lon="5.41453">
        <ele>884.8</ele>
        <time>2019-06-02T13:34:20Z</time>
      </trkpt>
      <trkpt lat="44.34546" lon="5.41467">
        <ele>883.5</ele>
        <time>2019-06-02T13:34:27Z</time>
      </trkpt>
      <trkpt lat="44.34546" lon="5.4148">
        <ele>882.6</ele>
        <time>2019-06-02T13:34:33Z</time>
      </trkpt>
      <trkpt lat="44.34547" lon="5.41495">
        <ele>881.3</ele>
        <time>2019-06-02T13:34:40Z</time>
      </trkpt>
      <trkpt lat="44.34551" lon="5.41506">
        <ele>880.1</ele>
        <time>2019-06-02T13:34:46Z</time>
      </trkpt>
      <trkpt lat="44.34561" lon="5.4151">
        <ele>878.7</ele>
        <time>2019-06-02T13:34:53Z</time>
      </trkpt>
      <trkpt lat="44.34571" lon="5.41506">
        <ele>877.5</ele>
        <time>2019-06-02T13:35:00Z</time>
      </trkpt>
      <trkpt lat="44.3458" lon="5.41504">
        <ele>876.2</ele>
        <time>2019-06-02T13:35:07Z</time>
      </trkpt>
      <trkpt lat="44.34588" lon="5.41511">
        <ele>875.3</ele>
        <time>2019-06-02T13:35:13Z</time>
      </trkpt>
      <trkpt lat="44.34594" lon="5.41521">
        <ele>874.1</ele>
        <time>2019-06-02T13:35:20Z</time>
      </trkpt>
      <trkpt lat="44.34599" lon="5.41532">
        <ele>872.6</ele>
        <time>2019-06-02T13:35:27Z</time>
      </trkpt>
      <trkpt lat="44.34604" lon="5.41542">
        <ele>871.7</ele>
        <time>2019-06-02T13:35:33Z</time>
      </trkpt>
      <trkpt lat="44.34611" lon="5.41551">
        <ele>871</ele>
        <time>2019-06-02T13:35:39Z</time>
      </trkpt>
      <trkpt lat="44.34618" lon="5.4156">
        <ele>870.2</ele>
        <time>2019-06-02T13:35:45Z</time>
      </trkpt>
      <trkpt lat="44.34625" lon="5.4157">
        <ele>869.5</ele>
        <time>2019-06-02T13:35:51Z</time>
      </trkpt>
      <trkpt lat="44.34631" lon="5.4158">
        <ele>868.3</ele>
        <time>2019-06-02T13:35:57Z</time>
      </trkpt>
      <trkpt lat="44.34638" lon="5.41589">
        <ele>867.5</ele>
        <time>2019-06-02T13:36:04Z</time>
      </trkpt>
      <trkpt lat="44.34645" lon="5.41598">
        <ele>867.1</ele>
        <time>2019-06-02T13:36:10Z</time>
      </trkpt>
      <trkpt lat="44.34652" lon="5.41607">
        <ele>866.7</ele>
        <time>2019-06-02T13:36:16Z</time>
      </trkpt>
      <trkpt lat="44.34658" lon="5.41617">
        <ele>866.2</ele>
        <time>2019-06-02T13:36:23Z</time>
      </trkpt>
      <trkpt lat="44.34663" lon="5.41629">
        <ele>865.5</ele>
        <time>2019-06-02T13:36:30Z</time>
      </trkpt>
      <trkpt lat="44.3467" lon="5.41639">
        <ele>864.5</ele>
        <time>2019-06-02T13:36:36Z</time>
      </trkpt>
      <trkpt lat="44.34679" lon="5.41643">
        <ele>863.6</ele>
        <time>2019-06-02T13:36:44Z</time>
      </trkpt>
      <trkpt lat="44.34687" lon="5.41651">
        <ele>862.6</ele>
        <time>2019-06-02T13:36:51Z</time>
      </trkpt>
      <trkpt lat="44.34695" lon="5.41659">
        <ele>861.8</ele>
        <time>2019-06-02T13:36:57Z</time>
      </trkpt>
      <trkpt lat="44.34703" lon="5.41668">
        <ele>860.9</ele>
        <time>2019-06-02T13:37:02Z</time>
      </trkpt>
      <trkpt lat="44.3471" lon="5.41676">
        <ele>860</ele>
        <time>2019-06-02T13:37:08Z</time>
      </trkpt>
      <trkpt lat="44.34717" lon="5.41684">
        <ele>859.2</ele>
        <time>2019-06-02T13:37:14Z</time>
      </trkpt>
      <trkpt lat="44.34725" lon="5.41693">
        <ele>858.4</ele>
        <time>2019-06-02T13:37:20Z</time>
      </trkpt>
      <trkpt lat="44.34732" lon="5.41702">
        <ele>857.7</ele>
        <time>2019-06-02T13:37:26Z</time>
      </trkpt>
      <trkpt lat="44.3474" lon="5.4171">
        <ele>857.1</ele>
        <time>2019-06-02T13:37:32Z</time>
      </trkpt>
      <trkpt lat="44.34747" lon="5.41719">
        <ele>856.2</ele>
        <time>2019-06-02T13:37:38Z</time>
      </trkpt>
      <trkpt lat="44.34754" lon="5.41728">
        <ele>855.2</ele>
        <time>2019-06-02T13:37:46Z</time>
      </trkpt>
      <trkpt lat="44.34759" lon="5.41739">
        <ele>853.6</ele>
        <time>2019-06-02T13:38:07Z</time>
      </trkpt>
      <trkpt lat="44.34765" lon="5.4175">
        <ele>853.1</ele>
        <time>2019-06-02T13:38:13Z</time>
      </trkpt>
      <trkpt lat="44.3477" lon="5.41761">
        <ele>852.7</ele>
        <time>2019-06-02T13:38:19Z</time>
      </trkpt>
      <trkpt lat="44.34776" lon="5.41772">
        <ele>851.9</ele>
        <time>2019-06-02T13:38:25Z</time>
      </trkpt>
      <trkpt lat="44.34782" lon="5.41782">
        <ele>851.1</ele>
        <time>2019-06-02T13:38:31Z</time>
      </trkpt>
      <trkpt lat="44.34789" lon="5.41791">
        <ele>850.4</ele>
        <time>2019-06-02T13:38:37Z</time>
      </trkpt>
      <trkpt lat="44.34795" lon="5.418">
        <ele>849.7</ele>
        <time>2019-06-02T13:38:43Z</time>
      </trkpt>
      <trkpt lat="44.34802" lon="5.41809">
        <ele>848.8</ele>
        <time>2019-06-02T13:38:49Z</time>
      </trkpt>
      <trkpt lat="44.34807" lon="5.41821">
        <ele>848.1</ele>
        <time>2019-06-02T13:38:55Z</time>
      </trkpt>
      <trkpt lat="44.34812" lon="5.41832">
        <ele>847.3</ele>
        <time>2019-06-02T13:39:01Z</time>
      </trkpt>
      <trkpt lat="44.34818" lon="5.41842">
        <ele>846.6</ele>
        <time>2019-06-02T13:39:07Z</time>
      </trkpt>
      <trkpt lat="44.34823" lon="5.41853">
        <ele>846.1</ele>
        <time>2019-06-02T13:39:13Z</time>
      </trkpt>
      <trkpt lat="44.34829" lon="5.41864">
        <ele>845.6</ele>
        <time>2019-06-02T13:39:19Z</time>
      </trkpt>
      <trkpt lat="44.34833" lon="5.41876">
        <ele>845.2</ele>
        <time>2019-06-02T13:39:25Z</time>
      </trkpt>
      <trkpt lat="44.34838" lon="5.41887">
        <ele>844.5</ele>
        <time>2019-06-02T13:39:31Z</time>
      </trkpt>
      <trkpt lat="44.34843" lon="5.41899">
        <ele>843.9</ele>
        <time>2019-06-02T13:39:37Z</time>
      </trkpt>
      <trkpt lat="44.34847" lon="5.41911">
        <ele>843.4</ele>
        <time>2019-06-02T13:39:43Z</time>
      </trkpt>
      <trkpt lat="44.34853" lon="5.41922">
        <ele>842.5</ele>
        <time>2019-06-02T13:39:51Z</time>
      </trkpt>
      <trkpt lat="44.3486" lon="5.41933">
        <ele>841.8</ele>
        <time>2019-06-02T13:39:58Z</time>
      </trkpt>
      <trkpt lat="44.34866" lon="5.41944">
        <ele>841.4</ele>
        <time>2019-06-02T13:40:04Z</time>
      </trkpt>
      <trkpt lat="44.34873" lon="5.41952">
        <ele>841</ele>
        <time>2019-06-02T13:40:10Z</time>
      </trkpt>
      <trkpt lat="44.34881" lon="5.41957">
        <ele>840.8</ele>
        <time>2019-06-02T13:40:16Z</time>
      </trkpt>
      <trkpt lat="44.34891" lon="5.41959">
        <ele>840.8</ele>
        <time>2019-06-02T13:40:22Z</time>
      </trkpt>
      <trkpt lat="44.349" lon="5.41958">
        <ele>840.9</ele>
        <time>2019-06-02T13:40:28Z</time>
      </trkpt>
      <trkpt lat="44.34909" lon="5.41955">
        <ele>841</ele>
        <time>2019-06-02T13:40:35Z</time>
      </trkpt>
      <trkpt lat="44.34918" lon="5.41948">
        <ele>841.1</ele>
        <time>2019-06-02T13:40:44Z</time>
      </trkpt>
      <trkpt lat="44.34925" lon="5.4194">
        <ele>841.7</ele>
        <time>2019-06-02T13:40:52Z</time>
      </trkpt>
      <trkpt lat="44.34933" lon="5.41932">
        <ele>842.2</ele>
        <time>2019-06-02T13:40:59Z</time>
      </trkpt>
      <trkpt lat="44.34941" lon="5.41925">
        <ele>842.7</ele>
        <time>2019-06-02T13:41:06Z</time>
      </trkpt>
      <trkpt lat="44.34948" lon="5.41915">
        <ele>843.4</ele>
        <time>2019-06-02T13:41:17Z</time>
      </trkpt>
      <trkpt lat="44.34957" lon="5.4191">
        <ele>843.9</ele>
        <time>2019-06-02T13:41:24Z</time>
      </trkpt>
      <trkpt lat="44.34966" lon="5.41904">
        <ele>844.3</ele>
        <time>2019-06-02T13:41:32Z</time>
      </trkpt>
      <trkpt lat="44.34977" lon="5.41902">
        <ele>844.5</ele>
        <time>2019-06-02T13:41:38Z</time>
      </trkpt>
      <trkpt lat="44.34986" lon="5.41898">
        <ele>844.7</ele>
        <time>2019-06-02T13:41:44Z</time>
      </trkpt>
      <trkpt lat="44.34995" lon="5.41896">
        <ele>844.8</ele>
        <time>2019-06-02T13:41:50Z</time>
      </trkpt>
      <trkpt lat="44.35005" lon="5.41893">
        <ele>844.7</ele>
        <time>2019-06-02T13:41:56Z</time>
      </trkpt>
      <trkpt lat="44.35014" lon="5.41891">
        <ele>844.6</ele>
        <time>2019-06-02T13:42:02Z</time>
      </trkpt>
      <trkpt lat="44.35024" lon="5.41888">
        <ele>844.6</ele>
        <time>2019-06-02T13:42:08Z</time>
      </trkpt>
      <trkpt lat="44.35033" lon="5.41884">
        <ele>844.6</ele>
        <time>2019-06-02T13:42:15Z</time>
      </trkpt>
      <trkpt lat="44.35042" lon="5.41883">
        <ele>844.6</ele>
        <time>2019-06-02T13:42:22Z</time>
      </trkpt>
      <trkpt lat="44.35051" lon="5.41886">
        <ele>844.5</ele>
        <time>2019-06-02T13:42:27Z</time>
      </trkpt>
      <trkpt lat="44.35061" lon="5.41886">
        <ele>844.3</ele>
        <time>2019-06-02T13:42:32Z</time>
      </trkpt>
      <trkpt lat="44.35071" lon="5.41888">
        <ele>844.1</ele>
        <time>2019-06-02T13:42:37Z</time>
      </trkpt>
      <trkpt lat="44.3508" lon="5.4189">
        <ele>844</ele>
        <time>2019-06-02T13:42:42Z</time>
      </trkpt>
      <trkpt lat="44.35089" lon="5.41892">
        <ele>844.2</ele>
        <time>2019-06-02T13:42:47Z</time>
      </trkpt>
      <trkpt lat="44.35098" lon="5.41892">
        <ele>845.3</ele>
        <time>2019-06-02T13:43:01Z</time>
      </trkpt>
      <trkpt lat="44.35102" lon="5.4188">
        <ele>845.6</ele>
        <time>2019-06-02T13:43:20Z</time>
      </trkpt>
      <trkpt lat="44.35108" lon="5.4187">
        <ele>845.7</ele>
        <time>2019-06-02T13:43:27Z</time>
      </trkpt>
      <trkpt lat="44.35115" lon="5.41859">
        <ele>845.6</ele>
        <time>2019-06-02T13:43:35Z</time>
      </trkpt>
      <trkpt lat="44.35117" lon="5.41847">
        <ele>845.4</ele>
        <time>2019-06-02T13:44:05Z</time>
      </trkpt>
      <trkpt lat="44.35111" lon="5.41858">
        <ele>845.5</ele>
        <time>2019-06-02T13:45:04Z</time>
      </trkpt>
      <trkpt lat="44.35107" lon="5.41871">
        <ele>845.7</ele>
        <time>2019-06-02T13:45:13Z</time>
      </trkpt>
      <trkpt lat="44.35105" lon="5.41883">
        <ele>845.7</ele>
        <time>2019-06-02T13:45:21Z</time>
      </trkpt>
      <trkpt lat="44.35109" lon="5.41895">
        <ele>845.7</ele>
        <time>2019-06-02T13:45:36Z</time>
      </trkpt>
      <trkpt lat="44.35119" lon="5.41896">
        <ele>846.3</ele>
        <time>2019-06-02T13:45:45Z</time>
      </trkpt>
      <trkpt lat="44.35127" lon="5.41892">
        <ele>849.4</ele>
        <time>2019-06-02T13:46:52Z</time>
      </trkpt>
      <trkpt lat="44.35136" lon="5.41895">
        <ele>849.3</ele>
        <time>2019-06-02T13:47:11Z</time>
      </trkpt>
      <trkpt lat="44.35143" lon="5.41887">
        <ele>849.7</ele>
        <time>2019-06-02T13:47:29Z</time>
      </trkpt>
      <trkpt lat="44.35149" lon="5.41876">
        <ele>849.8</ele>
        <time>2019-06-02T13:47:38Z</time>
      </trkpt>
      <trkpt lat="44.35156" lon="5.41886">
        <ele>853.6</ele>
        <time>2019-06-02T13:48:18Z</time>
      </trkpt>
      <trkpt lat="44.35164" lon="5.4188">
        <ele>856</ele>
        <time>2019-06-02T13:48:32Z</time>
      </trkpt>
      <trkpt lat="44.35168" lon="5.41869">
        <ele>857.5</ele>
        <time>2019-06-02T13:48:44Z</time>
      </trkpt>
      <trkpt lat="44.35177" lon="5.41865">
        <ele>859.2</ele>
        <time>2019-06-02T13:49:30Z</time>
      </trkpt>
      <trkpt lat="44.35185" lon="5.41872">
        <ele>859.3</ele>
        <time>2019-06-02T13:49:39Z</time>
      </trkpt>
      <trkpt lat="44.35179" lon="5.41881">
        <ele>859.4</ele>
        <time>2019-06-02T13:50:22Z</time>
      </trkpt>
      <trkpt lat="44.35172" lon="5.4189">
        <ele>859.4</ele>
        <time>2019-06-02T13:50:29Z</time>
      </trkpt>
      <trkpt lat="44.35173" lon="5.41903">
        <ele>859</ele>
        <time>2019-06-02T13:50:39Z</time>
      </trkpt>
      <trkpt lat="44.35177" lon="5.41914">
        <ele>858.7</ele>
        <time>2019-06-02T13:50:48Z</time>
      </trkpt>
      <trkpt lat="44.35168" lon="5.41912">
        <ele>857.3</ele>
        <time>2019-06-02T13:51:55Z</time>
      </trkpt>
      <trkpt lat="44.35167" lon="5.41899">
        <ele>857.5</ele>
        <time>2019-06-02T13:54:26Z</time>
      </trkpt>
      <trkpt lat="44.35164" lon="5.41887">
        <ele>858.6</ele>
        <time>2019-06-02T13:54:56Z</time>
      </trkpt>
      <trkpt lat="44.3516" lon="5.41875">
        <ele>856.8</ele>
        <time>2019-06-02T13:55:28Z</time>
      </trkpt>
      <trkpt lat="44.35152" lon="5.41869">
        <ele>856</ele>
        <time>2019-06-02T13:55:43Z</time>
      </trkpt>
      <trkpt lat="44.35144" lon="5.41864">
        <ele>855</ele>
        <time>2019-06-02T13:55:53Z</time>
      </trkpt>
      <trkpt lat="44.35144" lon="5.41851">
        <ele>854.1</ele>
        <time>2019-06-02T13:56:02Z</time>
      </trkpt>
      <trkpt lat="44.35147" lon="5.41839">
        <ele>853.4</ele>
        <time>2019-06-02T13:56:09Z</time>
      </trkpt>
      <trkpt lat="44.35149" lon="5.41825">
        <ele>851.8</ele>
        <time>2019-06-02T13:56:19Z</time>
      </trkpt>
      <trkpt lat="44.35144" lon="5.41814">
        <ele>849.7</ele>
        <time>2019-06-02T13:56:31Z</time>
      </trkpt>
      <trkpt lat="44.35136" lon="5.41804">
        <ele>848.4</ele>
        <time>2019-06-02T13:56:38Z</time>
      </trkpt>
      <trkpt lat="44.3514" lon="5.41792">
        <ele>846.6</ele>
        <time>2019-06-02T13:56:47Z</time>
      </trkpt>
      <trkpt lat="44.35147" lon="5.41783">
        <ele>845.2</ele>
        <time>2019-06-02T13:56:56Z</time>
      </trkpt>
      <trkpt lat="44.35154" lon="5.41773">
        <ele>843.7</ele>
        <time>2019-06-02T13:57:04Z</time>
      </trkpt>
      <trkpt lat="44.3516" lon="5.41763">
        <ele>842.8</ele>
        <time>2019-06-02T13:57:11Z</time>
      </trkpt>
      <trkpt lat="44.35165" lon="5.41751">
        <ele>840.6</ele>
        <time>2019-06-02T13:57:27Z</time>
      </trkpt>
      <trkpt lat="44.35173" lon="5.41746">
        <ele>838.8</ele>
        <time>2019-06-02T13:57:39Z</time>
      </trkpt>
      <trkpt lat="44.35182" lon="5.41741">
        <ele>837.6</ele>
        <time>2019-06-02T13:57:49Z</time>
      </trkpt>
      <trkpt lat="44.3519" lon="5.41733">
        <ele>836.9</ele>
        <time>2019-06-02T13:57:57Z</time>
      </trkpt>
      <trkpt lat="44.35198" lon="5.41726">
        <ele>836.4</ele>
        <time>2019-06-02T13:58:05Z</time>
      </trkpt>
      <trkpt lat="44.35207" lon="5.41719">
        <ele>835.5</ele>
        <time>2019-06-02T13:58:12Z</time>
      </trkpt>
      <trkpt lat="44.35216" lon="5.41716">
        <ele>834.6</ele>
        <time>2019-06-02T13:58:20Z</time>
      </trkpt>
      <trkpt lat="44.35226" lon="5.41713">
        <ele>834</ele>
        <time>2019-06-02T13:58:27Z</time>
      </trkpt>
      <trkpt lat="44.35235" lon="5.41712">
        <ele>833.3</ele>
        <time>2019-06-02T13:58:34Z</time>
      </trkpt>
      <trkpt lat="44.35245" lon="5.41712">
        <ele>832.8</ele>
        <time>2019-06-02T13:58:41Z</time>
      </trkpt>
      <trkpt lat="44.35254" lon="5.41709">
        <ele>832</ele>
        <time>2019-06-02T13:58:48Z</time>
      </trkpt>
      <trkpt lat="44.35263" lon="5.41704">
        <ele>831.3</ele>
        <time>2019-06-02T13:58:55Z</time>
      </trkpt>
      <trkpt lat="44.35271" lon="5.41697">
        <ele>830.4</ele>
        <time>2019-06-02T13:59:03Z</time>
      </trkpt>
      <trkpt lat="44.35278" lon="5.41686">
        <ele>829.8</ele>
        <time>2019-06-02T13:59:10Z</time>
      </trkpt>
      <trkpt lat="44.35284" lon="5.41676">
        <ele>829.1</ele>
        <time>2019-06-02T13:59:16Z</time>
      </trkpt>
      <trkpt lat="44.3529" lon="5.41666">
        <ele>828.3</ele>
        <time>2019-06-02T13:59:23Z</time>
      </trkpt>
      <trkpt lat="44.353" lon="5.41665">
        <ele>827.8</ele>
        <time>2019-06-02T13:59:30Z</time>
      </trkpt>
      <trkpt lat="44.35309" lon="5.4167">
        <ele>826.6</ele>
        <time>2019-06-02T13:59:37Z</time>
      </trkpt>
      <trkpt lat="44.35319" lon="5.41676">
        <ele>825.7</ele>
        <time>2019-06-02T13:59:44Z</time>
      </trkpt>
      <trkpt lat="44.35327" lon="5.41681">
        <ele>825.1</ele>
        <time>2019-06-02T13:59:50Z</time>
      </trkpt>
      <trkpt lat="44.35336" lon="5.41686">
        <ele>824.3</ele>
        <time>2019-06-02T13:59:57Z</time>
      </trkpt>
      <trkpt lat="44.35345" lon="5.41694">
        <ele>823.4</ele>
        <time>2019-06-02T14:00:04Z</time>
      </trkpt>
      <trkpt lat="44.35352" lon="5.41702">
        <ele>822.7</ele>
        <time>2019-06-02T14:00:10Z</time>
      </trkpt>
      <trkpt lat="44.35359" lon="5.41711">
        <ele>822</ele>
        <time>2019-06-02T14:00:16Z</time>
      </trkpt>
      <trkpt lat="44.35366" lon="5.41719">
        <ele>821.5</ele>
        <time>2019-06-02T14:00:22Z</time>
      </trkpt>
      <trkpt lat="44.35373" lon="5.41728">
        <ele>821</ele>
        <time>2019-06-02T14:00:28Z</time>
      </trkpt>
      <trkpt lat="44.35382" lon="5.41734">
        <ele>820.5</ele>
        <time>2019-06-02T14:00:35Z</time>
      </trkpt>
      <trkpt lat="44.3539" lon="5.41741">
        <ele>819.6</ele>
        <time>2019-06-02T14:00:42Z</time>
      </trkpt>
      <trkpt lat="44.35397" lon="5.4175">
        <ele>818.7</ele>
        <time>2019-06-02T14:00:49Z</time>
      </trkpt>
      <trkpt lat="44.35402" lon="5.41762">
        <ele>817.7</ele>
        <time>2019-06-02T14:00:58Z</time>
      </trkpt>
      <trkpt lat="44.35405" lon="5.41774">
        <ele>816.8</ele>
        <time>2019-06-02T14:01:08Z</time>
      </trkpt>
      <trkpt lat="44.3541" lon="5.41787">
        <ele>814.3</ele>
        <time>2019-06-02T14:01:36Z</time>
      </trkpt>
      <trkpt lat="44.35412" lon="5.418">
        <ele>813.6</ele>
        <time>2019-06-02T14:01:46Z</time>
      </trkpt>
      <trkpt lat="44.35413" lon="5.41814">
        <ele>813</ele>
        <time>2019-06-02T14:01:55Z</time>
      </trkpt>
      <trkpt lat="44.35412" lon="5.41828">
        <ele>812</ele>
        <time>2019-06-02T14:02:05Z</time>
      </trkpt>
      <trkpt lat="44.35412" lon="5.41842">
        <ele>811.1</ele>
        <time>2019-06-02T14:02:13Z</time>
      </trkpt>
      <trkpt lat="44.3541" lon="5.41855">
        <ele>810.4</ele>
        <time>2019-06-02T14:02:20Z</time>
      </trkpt>
      <trkpt lat="44.35409" lon="5.41868">
        <ele>809.8</ele>
        <time>2019-06-02T14:02:27Z</time>
      </trkpt>
      <trkpt lat="44.35407" lon="5.41882">
        <ele>809.2</ele>
        <time>2019-06-02T14:02:35Z</time>
      </trkpt>
      <trkpt lat="44.35408" lon="5.41896">
        <ele>808.8</ele>
        <time>2019-06-02T14:02:43Z</time>
      </trkpt>
      <trkpt lat="44.35411" lon="5.41909">
        <ele>808.2</ele>
        <time>2019-06-02T14:02:50Z</time>
      </trkpt>
      <trkpt lat="44.35417" lon="5.41919">
        <ele>807.6</ele>
        <time>2019-06-02T14:02:56Z</time>
      </trkpt>
      <trkpt lat="44.35426" lon="5.41925">
        <ele>806.8</ele>
        <time>2019-06-02T14:03:03Z</time>
      </trkpt>
      <trkpt lat="44.35435" lon="5.41928">
        <ele>805.7</ele>
        <time>2019-06-02T14:03:10Z</time>
      </trkpt>
      <trkpt lat="44.35439" lon="5.4194">
        <ele>803.4</ele>
        <time>2019-06-02T14:03:46Z</time>
      </trkpt>
      <trkpt lat="44.35429" lon="5.4194">
        <ele>803.3</ele>
        <time>2019-06-02T14:03:57Z</time>
      </trkpt>
      <trkpt lat="44.35421" lon="5.41934">
        <ele>803.8</ele>
        <time>2019-06-02T14:04:18Z</time>
      </trkpt>
      <trkpt lat="44.35415" lon="5.41926">
        <ele>804</ele>
        <time>2019-06-02T14:04:28Z</time>
      </trkpt>
      <trkpt lat="44.35423" lon="5.41929">
        <ele>804.2</ele>
        <time>2019-06-02T14:04:51Z</time>
      </trkpt>
      <trkpt lat="44.35433" lon="5.41935">
        <ele>804.1</ele>
        <time>2019-06-02T14:04:58Z</time>
      </trkpt>
      <trkpt lat="44.35443" lon="5.41937">
        <ele>804</ele>
        <time>2019-06-02T14:05:05Z</time>
      </trkpt>
      <trkpt lat="44.35452" lon="5.41935">
        <ele>803.6</ele>
        <time>2019-06-02T14:05:12Z</time>
      </trkpt>
      <trkpt lat="44.35461" lon="5.41932">
        <ele>803</ele>
        <time>2019-06-02T14:05:19Z</time>
      </trkpt>
      <trkpt lat="44.3547" lon="5.41929">
        <ele>802.3</ele>
        <time>2019-06-02T14:05:26Z</time>
      </trkpt>
      <trkpt lat="44.3548" lon="5.41926">
        <ele>801.7</ele>
        <time>2019-06-02T14:05:33Z</time>
      </trkpt>
      <trkpt lat="44.35489" lon="5.41923">
        <ele>800.9</ele>
        <time>2019-06-02T14:05:40Z</time>
      </trkpt>
      <trkpt lat="44.35498" lon="5.41921">
        <ele>800.2</ele>
        <time>2019-06-02T14:05:47Z</time>
      </trkpt>
      <trkpt lat="44.35507" lon="5.41917">
        <ele>799.1</ele>
        <time>2019-06-02T14:05:54Z</time>
      </trkpt>
      <trkpt lat="44.35516" lon="5.41912">
        <ele>798.2</ele>
        <time>2019-06-02T14:06:01Z</time>
      </trkpt>
      <trkpt lat="44.35526" lon="5.41908">
        <ele>797.6</ele>
        <time>2019-06-02T14:06:08Z</time>
      </trkpt>
      <trkpt lat="44.35535" lon="5.41909">
        <ele>796.9</ele>
        <time>2019-06-02T14:06:16Z</time>
      </trkpt>
      <trkpt lat="44.35526" lon="5.41913">
        <ele>796.1</ele>
        <time>2019-06-02T14:06:24Z</time>
      </trkpt>
      <trkpt lat="44.35517" lon="5.41915">
        <ele>795.5</ele>
        <time>2019-06-02T14:06:30Z</time>
      </trkpt>
      <trkpt lat="44.35508" lon="5.41915">
        <ele>795</ele>
        <time>2019-06-02T14:06:36Z</time>
      </trkpt>
      <trkpt lat="44.35499" lon="5.41918">
        <ele>794.2</ele>
        <time>2019-06-02T14:06:43Z</time>
      </trkpt>
      <trkpt lat="44.35489" lon="5.41921">
        <ele>793.2</ele>
        <time>2019-06-02T14:06:50Z</time>
      </trkpt>
      <trkpt lat="44.3548" lon="5.41924">
        <ele>792.1</ele>
        <time>2019-06-02T14:06:57Z</time>
      </trkpt>
      <trkpt lat="44.3547" lon="5.4193">
        <ele>790.8</ele>
        <time>2019-06-02T14:07:05Z</time>
      </trkpt>
      <trkpt lat="44.35462" lon="5.41938">
        <ele>789.8</ele>
        <time>2019-06-02T14:07:12Z</time>
      </trkpt>
      <trkpt lat="44.35454" lon="5.41944">
        <ele>788.9</ele>
        <time>2019-06-02T14:07:19Z</time>
      </trkpt>
      <trkpt lat="44.35446" lon="5.41951">
        <ele>788</ele>
        <time>2019-06-02T14:07:26Z</time>
      </trkpt>
      <trkpt lat="44.35438" lon="5.41958">
        <ele>787.2</ele>
        <time>2019-06-02T14:07:32Z</time>
      </trkpt>
      <trkpt lat="44.35429" lon="5.41965">
        <ele>786.4</ele>
        <time>2019-06-02T14:07:38Z</time>
      </trkpt>
      <trkpt lat="44.3542" lon="5.4197">
        <ele>785.7</ele>
        <time>2019-06-02T14:07:44Z</time>
      </trkpt>
      <trkpt lat="44.35411" lon="5.41974">
        <ele>785.1</ele>
        <time>2019-06-02T14:07:51Z</time>
      </trkpt>
      <trkpt lat="44.35403" lon="5.41978">
        <ele>783.7</ele>
        <time>2019-06-02T14:08:02Z</time>
      </trkpt>
      <trkpt lat="44.35394" lon="5.41983">
        <ele>782.5</ele>
        <time>2019-06-02T14:08:13Z</time>
      </trkpt>
      <trkpt lat="44.35399" lon="5.41993">
        <ele>781.7</ele>
        <time>2019-06-02T14:08:20Z</time>
      </trkpt>
      <trkpt lat="44.35406" lon="5.42003">
        <ele>780.8</ele>
        <time>2019-06-02T14:08:26Z</time>
      </trkpt>
      <trkpt lat="44.35413" lon="5.42014">
        <ele>779.9</ele>
        <time>2019-06-02T14:08:32Z</time>
      </trkpt>
      <trkpt lat="44.35418" lon="5.42026">
        <ele>779</ele>
        <time>2019-06-02T14:08:38Z</time>
      </trkpt>
      <trkpt lat="44.35421" lon="5.42038">
        <ele>777.8</ele>
        <time>2019-06-02T14:08:44Z</time>
      </trkpt>
      <trkpt lat="44.35426" lon="5.4205">
        <ele>776.7</ele>
        <time>2019-06-02T14:08:50Z</time>
      </trkpt>
      <trkpt lat="44.3543" lon="5.42061">
        <ele>775.7</ele>
        <time>2019-06-02T14:08:56Z</time>
      </trkpt>
      <trkpt lat="44.35435" lon="5.42073">
        <ele>774.7</ele>
        <time>2019-06-02T14:09:03Z</time>
      </trkpt>
      <trkpt lat="44.35435" lon="5.42087">
        <ele>773.4</ele>
        <time>2019-06-02T14:09:19Z</time>
      </trkpt>
      <trkpt lat="44.35439" lon="5.42099">
        <ele>772.5</ele>
        <time>2019-06-02T14:09:26Z</time>
      </trkpt>
      <trkpt lat="44.35448" lon="5.42094">
        <ele>770.2</ele>
        <time>2019-06-02T14:09:42Z</time>
      </trkpt>
      <trkpt lat="44.35458" lon="5.42092">
        <ele>769.6</ele>
        <time>2019-06-02T14:09:49Z</time>
      </trkpt>
      <trkpt lat="44.35467" lon="5.4209">
        <ele>769.1</ele>
        <time>2019-06-02T14:09:57Z</time>
      </trkpt>
      <trkpt lat="44.35476" lon="5.42094">
        <ele>768.9</ele>
        <time>2019-06-02T14:10:04Z</time>
      </trkpt>
      <trkpt lat="44.35485" lon="5.42099">
        <ele>768.5</ele>
        <time>2019-06-02T14:10:11Z</time>
      </trkpt>
      <trkpt lat="44.35493" lon="5.42106">
        <ele>768</ele>
        <time>2019-06-02T14:10:18Z</time>
      </trkpt>
      <trkpt lat="44.35501" lon="5.42113">
        <ele>767.3</ele>
        <time>2019-06-02T14:10:25Z</time>
      </trkpt>
      <trkpt lat="44.35509" lon="5.42121">
        <ele>766.7</ele>
        <time>2019-06-02T14:10:32Z</time>
      </trkpt>
      <trkpt lat="44.35519" lon="5.42122">
        <ele>766.2</ele>
        <time>2019-06-02T14:10:39Z</time>
      </trkpt>
      <trkpt lat="44.35529" lon="5.42121">
        <ele>765.3</ele>
        <time>2019-06-02T14:10:46Z</time>
      </trkpt>
      <trkpt lat="44.35539" lon="5.42123">
        <ele>764.2</ele>
        <time>2019-06-02T14:10:53Z</time>
      </trkpt>
      <trkpt lat="44.35546" lon="5.42132">
        <ele>761.9</ele>
        <time>2019-06-02T14:11:08Z</time>
      </trkpt>
      <trkpt lat="44.35552" lon="5.42142">
        <ele>761.6</ele>
        <time>2019-06-02T14:11:14Z</time>
      </trkpt>
      <trkpt lat="44.35561" lon="5.4215">
        <ele>760.9</ele>
        <time>2019-06-02T14:11:21Z</time>
      </trkpt>
      <trkpt lat="44.3557" lon="5.42155">
        <ele>760.2</ele>
        <time>2019-06-02T14:11:28Z</time>
      </trkpt>
      <trkpt lat="44.35579" lon="5.42157">
        <ele>759.5</ele>
        <time>2019-06-02T14:11:34Z</time>
      </trkpt>
      <trkpt lat="44.35589" lon="5.42158">
        <ele>758.8</ele>
        <time>2019-06-02T14:11:41Z</time>
      </trkpt>
      <trkpt lat="44.35598" lon="5.42158">
        <ele>758.3</ele>
        <time>2019-06-02T14:11:47Z</time>
      </trkpt>
      <trkpt lat="44.35608" lon="5.42155">
        <ele>757.4</ele>
        <time>2019-06-02T14:11:53Z</time>
      </trkpt>
      <trkpt lat="44.35617" lon="5.42153">
        <ele>756.6</ele>
        <time>2019-06-02T14:11:59Z</time>
      </trkpt>
      <trkpt lat="44.35627" lon="5.4215">
        <ele>755.8</ele>
        <time>2019-06-02T14:12:06Z</time>
      </trkpt>
      <trkpt lat="44.35636" lon="5.42147">
        <ele>754.9</ele>
        <time>2019-06-02T14:12:13Z</time>
      </trkpt>
      <trkpt lat="44.35646" lon="5.42144">
        <ele>754</ele>
        <time>2019-06-02T14:12:20Z</time>
      </trkpt>
      <trkpt lat="44.35656" lon="5.42142">
        <ele>753.4</ele>
        <time>2019-06-02T14:12:26Z</time>
      </trkpt>
      <trkpt lat="44.35665" lon="5.4214">
        <ele>752.9</ele>
        <time>2019-06-02T14:12:32Z</time>
      </trkpt>
      <trkpt lat="44.35673" lon="5.42136">
        <ele>752</ele>
        <time>2019-06-02T14:12:38Z</time>
      </trkpt>
      <trkpt lat="44.35683" lon="5.42135">
        <ele>751.2</ele>
        <time>2019-06-02T14:12:44Z</time>
      </trkpt>
      <trkpt lat="44.35693" lon="5.42133">
        <ele>750.1</ele>
        <time>2019-06-02T14:12:51Z</time>
      </trkpt>
      <trkpt lat="44.35703" lon="5.42131">
        <ele>749</ele>
        <time>2019-06-02T14:12:58Z</time>
      </trkpt>
      <trkpt lat="44.35712" lon="5.42128">
        <ele>748.1</ele>
        <time>2019-06-02T14:13:05Z</time>
      </trkpt>
      <trkpt lat="44.35721" lon="5.42125">
        <ele>747.2</ele>
        <time>2019-06-02T14:13:12Z</time>
      </trkpt>
      <trkpt lat="44.3573" lon="5.42121">
        <ele>746.2</ele>
        <time>2019-06-02T14:13:19Z</time>
      </trkpt>
      <trkpt lat="44.35722" lon="5.42129">
        <ele>743.3</ele>
        <time>2019-06-02T14:13:45Z</time>
      </trkpt>
      <trkpt lat="44.35713" lon="5.42132">
        <ele>743</ele>
        <time>2019-06-02T14:13:51Z</time>
      </trkpt>
      <trkpt lat="44.35704" lon="5.42136">
        <ele>742.6</ele>
        <time>2019-06-02T14:13:57Z</time>
      </trkpt>
      <trkpt lat="44.35694" lon="5.42141">
        <ele>741.9</ele>
        <time>2019-06-02T14:14:04Z</time>
      </trkpt>
      <trkpt lat="44.35686" lon="5.42147">
        <ele>741.4</ele>
        <time>2019-06-02T14:14:10Z</time>
      </trkpt>
      <trkpt lat="44.35677" lon="5.42152">
        <ele>740.9</ele>
        <time>2019-06-02T14:14:16Z</time>
      </trkpt>
      <trkpt lat="44.35669" lon="5.42158">
        <ele>740</ele>
        <time>2019-06-02T14:14:23Z</time>
      </trkpt>
      <trkpt lat="44.3566" lon="5.42166">
        <ele>738.9</ele>
        <time>2019-06-02T14:14:30Z</time>
      </trkpt>
      <trkpt lat="44.35652" lon="5.42175">
        <ele>738.3</ele>
        <time>2019-06-02T14:14:37Z</time>
      </trkpt>
      <trkpt lat="44.35644" lon="5.42182">
        <ele>737.6</ele>
        <time>2019-06-02T14:14:44Z</time>
      </trkpt>
      <trkpt lat="44.35637" lon="5.42191">
        <ele>737.2</ele>
        <time>2019-06-02T14:14:51Z</time>
      </trkpt>
      <trkpt lat="44.3563" lon="5.422">
        <ele>736.6</ele>
        <time>2019-06-02T14:14:57Z</time>
      </trkpt>
      <trkpt lat="44.35624" lon="5.4221">
        <ele>735.9</ele>
        <time>2019-06-02T14:15:04Z</time>
      </trkpt>
      <trkpt lat="44.3563" lon="5.4222">
        <ele>735.1</ele>
        <time>2019-06-02T14:15:11Z</time>
      </trkpt>
      <trkpt lat="44.35639" lon="5.4222">
        <ele>734.4</ele>
        <time>2019-06-02T14:15:18Z</time>
      </trkpt>
      <trkpt lat="44.35649" lon="5.42219">
        <ele>733.4</ele>
        <time>2019-06-02T14:15:25Z</time>
      </trkpt>
      <trkpt lat="44.35658" lon="5.42219">
        <ele>732.7</ele>
        <time>2019-06-02T14:15:31Z</time>
      </trkpt>
      <trkpt lat="44.35667" lon="5.42219">
        <ele>732.1</ele>
        <time>2019-06-02T14:15:37Z</time>
      </trkpt>
      <trkpt lat="44.35676" lon="5.42218">
        <ele>731.7</ele>
        <time>2019-06-02T14:15:43Z</time>
      </trkpt>
      <trkpt lat="44.35686" lon="5.42215">
        <ele>731.2</ele>
        <time>2019-06-02T14:15:50Z</time>
      </trkpt>
      <trkpt lat="44.35695" lon="5.42211">
        <ele>730.1</ele>
        <time>2019-06-02T14:15:57Z</time>
      </trkpt>
      <trkpt lat="44.35704" lon="5.42207">
        <ele>729.2</ele>
        <time>2019-06-02T14:16:05Z</time>
      </trkpt>
      <trkpt lat="44.35714" lon="5.42203">
        <ele>728.3</ele>
        <time>2019-06-02T14:16:13Z</time>
      </trkpt>
      <trkpt lat="44.35722" lon="5.42199">
        <ele>727.6</ele>
        <time>2019-06-02T14:16:19Z</time>
      </trkpt>
      <trkpt lat="44.35732" lon="5.42196">
        <ele>727</ele>
        <time>2019-06-02T14:16:25Z</time>
      </trkpt>
      <trkpt lat="44.35742" lon="5.42191">
        <ele>726.3</ele>
        <time>2019-06-02T14:16:32Z</time>
      </trkpt>
      <trkpt lat="44.35751" lon="5.42188">
        <ele>725.7</ele>
        <time>2019-06-02T14:16:38Z</time>
      </trkpt>
      <trkpt lat="44.35761" lon="5.42184">
        <ele>724.9</ele>
        <time>2019-06-02T14:16:45Z</time>
      </trkpt>
      <trkpt lat="44.3577" lon="5.42177">
        <ele>724.2</ele>
        <time>2019-06-02T14:16:52Z</time>
      </trkpt>
      <trkpt lat="44.35762" lon="5.42185">
        <ele>722.2</ele>
        <time>2019-06-02T14:17:11Z</time>
      </trkpt>
      <trkpt lat="44.35752" lon="5.42186">
        <ele>721.1</ele>
        <time>2019-06-02T14:17:18Z</time>
      </trkpt>
      <trkpt lat="44.35743" lon="5.42186">
        <ele>720.3</ele>
        <time>2019-06-02T14:17:24Z</time>
      </trkpt>
      <trkpt lat="44.35733" lon="5.42189">
        <ele>719.5</ele>
        <time>2019-06-02T14:17:31Z</time>
      </trkpt>
      <trkpt lat="44.35725" lon="5.42195">
        <ele>718.6</ele>
        <time>2019-06-02T14:17:40Z</time>
      </trkpt>
      <trkpt lat="44.3572" lon="5.42206">
        <ele>718.1</ele>
        <time>2019-06-02T14:17:47Z</time>
      </trkpt>
      <trkpt lat="44.35719" lon="5.42218">
        <ele>717.3</ele>
        <time>2019-06-02T14:17:53Z</time>
      </trkpt>
      <trkpt lat="44.35719" lon="5.42232">
        <ele>716.3</ele>
        <time>2019-06-02T14:18:01Z</time>
      </trkpt>
      <trkpt lat="44.35727" lon="5.42241">
        <ele>715.2</ele>
        <time>2019-06-02T14:18:10Z</time>
      </trkpt>
      <trkpt lat="44.35736" lon="5.42239">
        <ele>714</ele>
        <time>2019-06-02T14:18:21Z</time>
      </trkpt>
      <trkpt lat="44.35746" lon="5.42239">
        <ele>712.7</ele>
        <time>2019-06-02T14:18:29Z</time>
      </trkpt>
      <trkpt lat="44.35754" lon="5.42244">
        <ele>711.1</ele>
        <time>2019-06-02T14:18:43Z</time>
      </trkpt>
      <trkpt lat="44.35763" lon="5.42246">
        <ele>710.5</ele>
        <time>2019-06-02T14:18:51Z</time>
      </trkpt>
      <trkpt lat="44.35772" lon="5.42248">
        <ele>709.3</ele>
        <time>2019-06-02T14:18:59Z</time>
      </trkpt>
      <trkpt lat="44.35783" lon="5.42251">
        <ele>707.5</ele>
        <time>2019-06-02T14:19:07Z</time>
      </trkpt>
      <trkpt lat="44.35791" lon="5.42258">
        <ele>705.9</ele>
        <time>2019-06-02T14:19:14Z</time>
      </trkpt>
      <trkpt lat="44.358" lon="5.42265">
        <ele>704.3</ele>
        <time>2019-06-02T14:19:21Z</time>
      </trkpt>
      <trkpt lat="44.35809" lon="5.4227">
        <ele>703.1</ele>
        <time>2019-06-02T14:19:28Z</time>
      </trkpt>
      <trkpt lat="44.35818" lon="5.42277">
        <ele>701.9</ele>
        <time>2019-06-02T14:19:35Z</time>
      </trkpt>
      <trkpt lat="44.35826" lon="5.42282">
        <ele>700.8</ele>
        <time>2019-06-02T14:19:41Z</time>
      </trkpt>
      <trkpt lat="44.35836" lon="5.42287">
        <ele>699.5</ele>
        <time>2019-06-02T14:19:48Z</time>
      </trkpt>
      <trkpt lat="44.35845" lon="5.42293">
        <ele>698.4</ele>
        <time>2019-06-02T14:19:55Z</time>
      </trkpt>
      <trkpt lat="44.35854" lon="5.42299">
        <ele>697</ele>
        <time>2019-06-02T14:20:01Z</time>
      </trkpt>
      <trkpt lat="44.35862" lon="5.42306">
        <ele>696.6</ele>
        <time>2019-06-02T14:20:08Z</time>
      </trkpt>
      <trkpt lat="44.35871" lon="5.42311">
        <ele>695.4</ele>
        <time>2019-06-02T14:20:16Z</time>
      </trkpt>
      <trkpt lat="44.35881" lon="5.42314">
        <ele>694.7</ele>
        <time>2019-06-02T14:20:23Z</time>
      </trkpt>
      <trkpt lat="44.35889" lon="5.42317">
        <ele>694.3</ele>
        <time>2019-06-02T14:20:29Z</time>
      </trkpt>
      <trkpt lat="44.35899" lon="5.42321">
        <ele>693.7</ele>
        <time>2019-06-02T14:20:36Z</time>
      </trkpt>
      <trkpt lat="44.35909" lon="5.42325">
        <ele>693</ele>
        <time>2019-06-02T14:20:43Z</time>
      </trkpt>
      <trkpt lat="44.35917" lon="5.42333">
        <ele>692.2</ele>
        <time>2019-06-02T14:20:49Z</time>
      </trkpt>
      <trkpt lat="44.35924" lon="5.42342">
        <ele>691.2</ele>
        <time>2019-06-02T14:20:55Z</time>
      </trkpt>
      <trkpt lat="44.35931" lon="5.4235">
        <ele>690.5</ele>
        <time>2019-06-02T14:21:00Z</time>
      </trkpt>
      <trkpt lat="44.35938" lon="5.42359">
        <ele>689.3</ele>
        <time>2019-06-02T14:21:06Z</time>
      </trkpt>
      <trkpt lat="44.35945" lon="5.4237">
        <ele>688.3</ele>
        <time>2019-06-02T14:21:12Z</time>
      </trkpt>
      <trkpt lat="44.35951" lon="5.4238">
        <ele>687.7</ele>
        <time>2019-06-02T14:21:18Z</time>
      </trkpt>
      <trkpt lat="44.35957" lon="5.42391">
        <ele>687.1</ele>
        <time>2019-06-02T14:21:24Z</time>
      </trkpt>
      <trkpt lat="44.35962" lon="5.42401">
        <ele>686</ele>
        <time>2019-06-02T14:21:31Z</time>
      </trkpt>
      <trkpt lat="44.35966" lon="5.42414">
        <ele>685.4</ele>
        <time>2019-06-02T14:21:38Z</time>
      </trkpt>
      <trkpt lat="44.35966" lon="5.42428">
        <ele>684.3</ele>
        <time>2019-06-02T14:21:47Z</time>
      </trkpt>
      <trkpt lat="44.35967" lon="5.42442">
        <ele>683</ele>
        <time>2019-06-02T14:21:55Z</time>
      </trkpt>
      <trkpt lat="44.35968" lon="5.42455">
        <ele>681.9</ele>
        <time>2019-06-02T14:22:02Z</time>
      </trkpt>
      <trkpt lat="44.35971" lon="5.42469">
        <ele>680.9</ele>
        <time>2019-06-02T14:22:09Z</time>
      </trkpt>
      <trkpt lat="44.35973" lon="5.42482">
        <ele>680.1</ele>
        <time>2019-06-02T14:22:15Z</time>
      </trkpt>
      <trkpt lat="44.35975" lon="5.42494">
        <ele>679.3</ele>
        <time>2019-06-02T14:22:21Z</time>
      </trkpt>
      <trkpt lat="44.35977" lon="5.42507">
        <ele>678.7</ele>
        <time>2019-06-02T14:22:27Z</time>
      </trkpt>
      <trkpt lat="44.3598" lon="5.42521">
        <ele>677.6</ele>
        <time>2019-06-02T14:22:34Z</time>
      </trkpt>
      <trkpt lat="44.35984" lon="5.42536">
        <ele>676.5</ele>
        <time>2019-06-02T14:22:42Z</time>
      </trkpt>
      <trkpt lat="44.35988" lon="5.42548">
        <ele>675.3</ele>
        <time>2019-06-02T14:22:48Z</time>
      </trkpt>
      <trkpt lat="44.35993" lon="5.4256">
        <ele>674.4</ele>
        <time>2019-06-02T14:22:54Z</time>
      </trkpt>
      <trkpt lat="44.35999" lon="5.42571">
        <ele>673.7</ele>
        <time>2019-06-02T14:22:59Z</time>
      </trkpt>
      <trkpt lat="44.36005" lon="5.42582">
        <ele>673.1</ele>
        <time>2019-06-02T14:23:04Z</time>
      </trkpt>
      <trkpt lat="44.36011" lon="5.42592">
        <ele>672.4</ele>
        <time>2019-06-02T14:23:09Z</time>
      </trkpt>
      <trkpt lat="44.36017" lon="5.42603">
        <ele>671.6</ele>
        <time>2019-06-02T14:23:15Z</time>
      </trkpt>
      <trkpt lat="44.36023" lon="5.42614">
        <ele>671.1</ele>
        <time>2019-06-02T14:23:21Z</time>
      </trkpt>
      <trkpt lat="44.36028" lon="5.42625">
        <ele>670.5</ele>
        <time>2019-06-02T14:23:27Z</time>
      </trkpt>
      <trkpt lat="44.36033" lon="5.42637">
        <ele>669.6</ele>
        <time>2019-06-02T14:23:33Z</time>
      </trkpt>
      <trkpt lat="44.3604" lon="5.42646">
        <ele>668.8</ele>
        <time>2019-06-02T14:23:39Z</time>
      </trkpt>
      <trkpt lat="44.36048" lon="5.42656">
        <ele>667.9</ele>
        <time>2019-06-02T14:23:46Z</time>
      </trkpt>
      <trkpt lat="44.36056" lon="5.42663">
        <ele>667.1</ele>
        <time>2019-06-02T14:23:52Z</time>
      </trkpt>
      <trkpt lat="44.36065" lon="5.42669">
        <ele>666.4</ele>
        <time>2019-06-02T14:23:58Z</time>
      </trkpt>
      <trkpt lat="44.36074" lon="5.42674">
        <ele>665.8</ele>
        <time>2019-06-02T14:24:04Z</time>
      </trkpt>
      <trkpt lat="44.36083" lon="5.42679">
        <ele>665.1</ele>
        <time>2019-06-02T14:24:10Z</time>
      </trkpt>
      <trkpt lat="44.36092" lon="5.42685">
        <ele>664.4</ele>
        <time>2019-06-02T14:24:16Z</time>
      </trkpt>
      <trkpt lat="44.36101" lon="5.42691">
        <ele>664</ele>
        <time>2019-06-02T14:24:22Z</time>
      </trkpt>
      <trkpt lat="44.36109" lon="5.42698">
        <ele>663.6</ele>
        <time>2019-06-02T14:24:28Z</time>
      </trkpt>
      <trkpt lat="44.36118" lon="5.42703">
        <ele>662.9</ele>
        <time>2019-06-02T14:24:34Z</time>
      </trkpt>
      <trkpt lat="44.36127" lon="5.42708">
        <ele>662.2</ele>
        <time>2019-06-02T14:24:41Z</time>
      </trkpt>
      <trkpt lat="44.36136" lon="5.42713">
        <ele>661.2</ele>
        <time>2019-06-02T14:24:47Z</time>
      </trkpt>
      <trkpt lat="44.36144" lon="5.42719">
        <ele>660.5</ele>
        <time>2019-06-02T14:24:53Z</time>
      </trkpt>
      <trkpt lat="44.36153" lon="5.42726">
        <ele>659.9</ele>
        <time>2019-06-02T14:25:00Z</time>
      </trkpt>
      <trkpt lat="44.36161" lon="5.42731">
        <ele>659.1</ele>
        <time>2019-06-02T14:25:07Z</time>
      </trkpt>
      <trkpt lat="44.3617" lon="5.42738">
        <ele>658.3</ele>
        <time>2019-06-02T14:25:14Z</time>
      </trkpt>
      <trkpt lat="44.36179" lon="5.42743">
        <ele>657.7</ele>
        <time>2019-06-02T14:25:20Z</time>
      </trkpt>
      <trkpt lat="44.36188" lon="5.42749">
        <ele>656.8</ele>
        <time>2019-06-02T14:25:27Z</time>
      </trkpt>
      <trkpt lat="44.36198" lon="5.42753">
        <ele>656.4</ele>
        <time>2019-06-02T14:25:33Z</time>
      </trkpt>
      <trkpt lat="44.36206" lon="5.42756">
        <ele>656</ele>
        <time>2019-06-02T14:25:39Z</time>
      </trkpt>
      <trkpt lat="44.36215" lon="5.42761">
        <ele>655.8</ele>
        <time>2019-06-02T14:25:45Z</time>
      </trkpt>
      <trkpt lat="44.36224" lon="5.42767">
        <ele>655.1</ele>
        <time>2019-06-02T14:25:52Z</time>
      </trkpt>
      <trkpt lat="44.36232" lon="5.42774">
        <ele>654.6</ele>
        <time>2019-06-02T14:25:59Z</time>
      </trkpt>
      <trkpt lat="44.36241" lon="5.42783">
        <ele>654.2</ele>
        <time>2019-06-02T14:26:06Z</time>
      </trkpt>
      <trkpt lat="44.36249" lon="5.42792">
        <ele>653.5</ele>
        <time>2019-06-02T14:26:13Z</time>
      </trkpt>
      <trkpt lat="44.36257" lon="5.42801">
        <ele>652.6</ele>
        <time>2019-06-02T14:26:20Z</time>
      </trkpt>
      <trkpt lat="44.36265" lon="5.42808">
        <ele>652</ele>
        <time>2019-06-02T14:26:26Z</time>
      </trkpt>
      <trkpt lat="44.36274" lon="5.42814">
        <ele>651.5</ele>
        <time>2019-06-02T14:26:32Z</time>
      </trkpt>
      <trkpt lat="44.36283" lon="5.42819">
        <ele>650.9</ele>
        <time>2019-06-02T14:26:38Z</time>
      </trkpt>
      <trkpt lat="44.36291" lon="5.42825">
        <ele>650.4</ele>
        <time>2019-06-02T14:26:44Z</time>
      </trkpt>
      <trkpt lat="44.36299" lon="5.42832">
        <ele>650</ele>
        <time>2019-06-02T14:26:50Z</time>
      </trkpt>
      <trkpt lat="44.36307" lon="5.42841">
        <ele>649.3</ele>
        <time>2019-06-02T14:26:57Z</time>
      </trkpt>
      <trkpt lat="44.36314" lon="5.42851">
        <ele>648.7</ele>
        <time>2019-06-02T14:27:04Z</time>
      </trkpt>
      <trkpt lat="44.36322" lon="5.42861">
        <ele>647.8</ele>
        <time>2019-06-02T14:27:11Z</time>
      </trkpt>
      <trkpt lat="44.36329" lon="5.42869">
        <ele>647.2</ele>
        <time>2019-06-02T14:27:17Z</time>
      </trkpt>
      <trkpt lat="44.36336" lon="5.42878">
        <ele>646.3</ele>
        <time>2019-06-02T14:27:23Z</time>
      </trkpt>
      <trkpt lat="44.36343" lon="5.42886">
        <ele>645.6</ele>
        <time>2019-06-02T14:27:29Z</time>
      </trkpt>
      <trkpt lat="44.36351" lon="5.42896">
        <ele>645.1</ele>
        <time>2019-06-02T14:27:36Z</time>
      </trkpt>
      <trkpt lat="44.36358" lon="5.42907">
        <ele>644.5</ele>
        <time>2019-06-02T14:27:43Z</time>
      </trkpt>
      <trkpt lat="44.36365" lon="5.42918">
        <ele>643.9</ele>
        <time>2019-06-02T14:27:50Z</time>
      </trkpt>
      <trkpt lat="44.36372" lon="5.42928">
        <ele>643.2</ele>
        <time>2019-06-02T14:27:57Z</time>
      </trkpt>
      <trkpt lat="44.36379" lon="5.42936">
        <ele>642.5</ele>
        <time>2019-06-02T14:28:03Z</time>
      </trkpt>
      <trkpt lat="44.36388" lon="5.42942">
        <ele>641.8</ele>
        <time>2019-06-02T14:28:10Z</time>
      </trkpt>
      <trkpt lat="44.36395" lon="5.42951">
        <ele>641.1</ele>
        <time>2019-06-02T14:28:17Z</time>
      </trkpt>
      <trkpt lat="44.36403" lon="5.42959">
        <ele>640.2</ele>
        <time>2019-06-02T14:28:24Z</time>
      </trkpt>
      <trkpt lat="44.36411" lon="5.42967">
        <ele>639</ele>
        <time>2019-06-02T14:28:31Z</time>
      </trkpt>
      <trkpt lat="44.3642" lon="5.42975">
        <ele>638.2</ele>
        <time>2019-06-02T14:28:38Z</time>
      </trkpt>
      <trkpt lat="44.36428" lon="5.42982">
        <ele>637.8</ele>
        <time>2019-06-02T14:28:45Z</time>
      </trkpt>
      <trkpt lat="44.36437" lon="5.42989">
        <ele>637.2</ele>
        <time>2019-06-02T14:28:52Z</time>
      </trkpt>
      <trkpt lat="44.36445" lon="5.42995">
        <ele>636.3</ele>
        <time>2019-06-02T14:28:59Z</time>
      </trkpt>
      <trkpt lat="44.36454" lon="5.43002">
        <ele>635.4</ele>
        <time>2019-06-02T14:29:06Z</time>
      </trkpt>
      <trkpt lat="44.36463" lon="5.4301">
        <ele>634.7</ele>
        <time>2019-06-02T14:29:14Z</time>
      </trkpt>
      <trkpt lat="44.3647" lon="5.43019">
        <ele>634.1</ele>
        <time>2019-06-02T14:29:21Z</time>
      </trkpt>
      <trkpt lat="44.36477" lon="5.43027">
        <ele>633.2</ele>
        <time>2019-06-02T14:29:28Z</time>
      </trkpt>
      <trkpt lat="44.36484" lon="5.43039">
        <ele>632.4</ele>
        <time>2019-06-02T14:29:35Z</time>
      </trkpt>
      <trkpt lat="44.36489" lon="5.43049">
        <ele>631.6</ele>
        <time>2019-06-02T14:29:41Z</time>
      </trkpt>
      <trkpt lat="44.36493" lon="5.43061">
        <ele>630.8</ele>
        <time>2019-06-02T14:29:48Z</time>
      </trkpt>
      <trkpt lat="44.36496" lon="5.43073">
        <ele>630.2</ele>
        <time>2019-06-02T14:29:55Z</time>
      </trkpt>
      <trkpt lat="44.36497" lon="5.43086">
        <ele>629.5</ele>
        <time>2019-06-02T14:30:02Z</time>
      </trkpt>
      <trkpt lat="44.365" lon="5.43099">
        <ele>628.9</ele>
        <time>2019-06-02T14:30:09Z</time>
      </trkpt>
      <trkpt lat="44.36503" lon="5.43112">
        <ele>628.1</ele>
        <time>2019-06-02T14:30:16Z</time>
      </trkpt>
      <trkpt lat="44.36506" lon="5.43125">
        <ele>627.4</ele>
        <time>2019-06-02T14:30:23Z</time>
      </trkpt>
      <trkpt lat="44.3651" lon="5.43137">
        <ele>626.9</ele>
        <time>2019-06-02T14:30:29Z</time>
      </trkpt>
      <trkpt lat="44.36513" lon="5.43149">
        <ele>626.7</ele>
        <time>2019-06-02T14:30:35Z</time>
      </trkpt>
      <trkpt lat="44.36515" lon="5.43162">
        <ele>626.4</ele>
        <time>2019-06-02T14:30:42Z</time>
      </trkpt>
      <trkpt lat="44.36516" lon="5.43176">
        <ele>625.9</ele>
        <time>2019-06-02T14:30:49Z</time>
      </trkpt>
      <trkpt lat="44.36516" lon="5.43189">
        <ele>625.2</ele>
        <time>2019-06-02T14:30:56Z</time>
      </trkpt>
      <trkpt lat="44.36517" lon="5.43202">
        <ele>624.8</ele>
        <time>2019-06-02T14:31:03Z</time>
      </trkpt>
      <trkpt lat="44.36522" lon="5.43215">
        <ele>624.5</ele>
        <time>2019-06-02T14:31:10Z</time>
      </trkpt>
      <trkpt lat="44.36528" lon="5.43226">
        <ele>624.4</ele>
        <time>2019-06-02T14:31:16Z</time>
      </trkpt>
      <trkpt lat="44.36535" lon="5.43234">
        <ele>624.1</ele>
        <time>2019-06-02T14:31:22Z</time>
      </trkpt>
      <trkpt lat="44.36545" lon="5.43238">
        <ele>623.2</ele>
        <time>2019-06-02T14:31:29Z</time>
      </trkpt>
      <trkpt lat="44.36554" lon="5.43244">
        <ele>622.6</ele>
        <time>2019-06-02T14:31:36Z</time>
      </trkpt>
      <trkpt lat="44.36563" lon="5.43248">
        <ele>622.3</ele>
        <time>2019-06-02T14:31:43Z</time>
      </trkpt>
      <trkpt lat="44.36572" lon="5.43256">
        <ele>621.5</ele>
        <time>2019-06-02T14:31:50Z</time>
      </trkpt>
      <trkpt lat="44.36581" lon="5.43263">
        <ele>620.8</ele>
        <time>2019-06-02T14:31:57Z</time>
      </trkpt>
      <trkpt lat="44.36588" lon="5.43271">
        <ele>620.2</ele>
        <time>2019-06-02T14:32:04Z</time>
      </trkpt>
      <trkpt lat="44.36596" lon="5.43281">
        <ele>619.7</ele>
        <time>2019-06-02T14:32:11Z</time>
      </trkpt>
      <trkpt lat="44.36603" lon="5.43289">
        <ele>618.9</ele>
        <time>2019-06-02T14:32:17Z</time>
      </trkpt>
      <trkpt lat="44.36611" lon="5.43296">
        <ele>618.1</ele>
        <time>2019-06-02T14:32:23Z</time>
      </trkpt>
      <trkpt lat="44.36619" lon="5.43303">
        <ele>617.4</ele>
        <time>2019-06-02T14:32:30Z</time>
      </trkpt>
      <trkpt lat="44.36627" lon="5.43312">
        <ele>616.5</ele>
        <time>2019-06-02T14:32:37Z</time>
      </trkpt>
      <trkpt lat="44.36634" lon="5.43322">
        <ele>615.3</ele>
        <time>2019-06-02T14:32:44Z</time>
      </trkpt>
      <trkpt lat="44.36642" lon="5.43332">
        <ele>614.2</ele>
        <time>2019-06-02T14:32:51Z</time>
      </trkpt>
      <trkpt lat="44.36649" lon="5.4334">
        <ele>613.5</ele>
        <time>2019-06-02T14:32:57Z</time>
      </trkpt>
      <trkpt lat="44.36657" lon="5.43349">
        <ele>612.9</ele>
        <time>2019-06-02T14:33:04Z</time>
      </trkpt>
      <trkpt lat="44.36665" lon="5.43357">
        <ele>612.4</ele>
        <time>2019-06-02T14:33:11Z</time>
      </trkpt>
      <trkpt lat="44.36674" lon="5.43364">
        <ele>611.9</ele>
        <time>2019-06-02T14:33:18Z</time>
      </trkpt>
      <trkpt lat="44.36681" lon="5.43371">
        <ele>611.3</ele>
        <time>2019-06-02T14:33:24Z</time>
      </trkpt>
      <trkpt lat="44.36689" lon="5.43378">
        <ele>610.8</ele>
        <time>2019-06-02T14:33:30Z</time>
      </trkpt>
      <trkpt lat="44.36697" lon="5.43384">
        <ele>610.1</ele>
        <time>2019-06-02T14:33:36Z</time>
      </trkpt>
      <trkpt lat="44.36706" lon="5.43391">
        <ele>609.5</ele>
        <time>2019-06-02T14:33:43Z</time>
      </trkpt>
      <trkpt lat="44.36714" lon="5.43399">
        <ele>608.8</ele>
        <time>2019-06-02T14:33:50Z</time>
      </trkpt>
      <trkpt lat="44.36722" lon="5.43406">
        <ele>608</ele>
        <time>2019-06-02T14:33:57Z</time>
      </trkpt>
      <trkpt lat="44.3673" lon="5.43414">
        <ele>607.3</ele>
        <time>2019-06-02T14:34:04Z</time>
      </trkpt>
      <trkpt lat="44.36738" lon="5.4342">
        <ele>606.3</ele>
        <time>2019-06-02T14:34:12Z</time>
      </trkpt>
      <trkpt lat="44.36747" lon="5.43428">
        <ele>605.5</ele>
        <time>2019-06-02T14:34:19Z</time>
      </trkpt>
      <trkpt lat="44.36757" lon="5.43433">
        <ele>605.1</ele>
        <time>2019-06-02T14:34:26Z</time>
      </trkpt>
      <trkpt lat="44.36766" lon="5.43436">
        <ele>604.5</ele>
        <time>2019-06-02T14:34:33Z</time>
      </trkpt>
      <trkpt lat="44.36776" lon="5.4344">
        <ele>603.4</ele>
        <time>2019-06-02T14:34:41Z</time>
      </trkpt>
      <trkpt lat="44.36785" lon="5.43446">
        <ele>602.7</ele>
        <time>2019-06-02T14:34:48Z</time>
      </trkpt>
      <trkpt lat="44.36793" lon="5.43452">
        <ele>602.2</ele>
        <time>2019-06-02T14:34:54Z</time>
      </trkpt>
      <trkpt lat="44.368" lon="5.4346">
        <ele>601.8</ele>
        <time>2019-06-02T14:35:00Z</time>
      </trkpt>
      <trkpt lat="44.36806" lon="5.43469">
        <ele>601.2</ele>
        <time>2019-06-02T14:35:06Z</time>
      </trkpt>
      <trkpt lat="44.36812" lon="5.43482">
        <ele>600.7</ele>
        <time>2019-06-02T14:35:12Z</time>
      </trkpt>
      <trkpt lat="44.36816" lon="5.43494">
        <ele>600.3</ele>
        <time>2019-06-02T14:35:18Z</time>
      </trkpt>
      <trkpt lat="44.36818" lon="5.43508">
        <ele>600</ele>
        <time>2019-06-02T14:35:25Z</time>
      </trkpt>
      <trkpt lat="44.36816" lon="5.43522">
        <ele>599.9</ele>
        <time>2019-06-02T14:35:33Z</time>
      </trkpt>
      <trkpt lat="44.36812" lon="5.43534">
        <ele>599.9</ele>
        <time>2019-06-02T14:35:41Z</time>
      </trkpt>
      <trkpt lat="44.36808" lon="5.43546">
        <ele>600.1</ele>
        <time>2019-06-02T14:35:48Z</time>
      </trkpt>
      <trkpt lat="44.36804" lon="5.43557">
        <ele>600.2</ele>
        <time>2019-06-02T14:35:55Z</time>
      </trkpt>
      <trkpt lat="44.36799" lon="5.43569">
        <ele>600.3</ele>
        <time>2019-06-02T14:36:03Z</time>
      </trkpt>
      <trkpt lat="44.36794" lon="5.43582">
        <ele>600.6</ele>
        <time>2019-06-02T14:36:11Z</time>
      </trkpt>
      <trkpt lat="44.3679" lon="5.43594">
        <ele>600</ele>
        <time>2019-06-02T14:36:18Z</time>
      </trkpt>
      <trkpt lat="44.36799" lon="5.43592">
        <ele>601.1</ele>
        <time>2019-06-02T14:36:55Z</time>
      </trkpt>
      <trkpt lat="44.36804" lon="5.4358">
        <ele>601.1</ele>
        <time>2019-06-02T14:37:03Z</time>
      </trkpt>
      <trkpt lat="44.36809" lon="5.43568">
        <ele>601.2</ele>
        <time>2019-06-02T14:37:12Z</time>
      </trkpt>
      <trkpt lat="44.36813" lon="5.43555">
        <ele>601.4</ele>
        <time>2019-06-02T14:37:20Z</time>
      </trkpt>
      <trkpt lat="44.36814" lon="5.43543">
        <ele>601.4</ele>
        <time>2019-06-02T14:37:27Z</time>
      </trkpt>
      <trkpt lat="44.36817" lon="5.4353">
        <ele>601.5</ele>
        <time>2019-06-02T14:37:34Z</time>
      </trkpt>
      <trkpt lat="44.3682" lon="5.43517">
        <ele>601.4</ele>
        <time>2019-06-02T14:37:41Z</time>
      </trkpt>
      <trkpt lat="44.3682" lon="5.43503">
        <ele>601.4</ele>
        <time>2019-06-02T14:37:48Z</time>
      </trkpt>
      <trkpt lat="44.3682" lon="5.43489">
        <ele>601.2</ele>
        <time>2019-06-02T14:37:55Z</time>
      </trkpt>
      <trkpt lat="44.36816" lon="5.43476">
        <ele>600.8</ele>
        <time>2019-06-02T14:38:02Z</time>
      </trkpt>
      <trkpt lat="44.36811" lon="5.43464">
        <ele>600.7</ele>
        <time>2019-06-02T14:38:09Z</time>
      </trkpt>
      <trkpt lat="44.36811" lon="5.43449">
        <ele>600.6</ele>
        <time>2019-06-02T14:38:16Z</time>
      </trkpt>
      <trkpt lat="44.36814" lon="5.43437">
        <ele>600.5</ele>
        <time>2019-06-02T14:38:22Z</time>
      </trkpt>
      <trkpt lat="44.3682" lon="5.43426">
        <ele>600.3</ele>
        <time>2019-06-02T14:38:29Z</time>
      </trkpt>
      <trkpt lat="44.36827" lon="5.43418">
        <ele>600.2</ele>
        <time>2019-06-02T14:38:35Z</time>
      </trkpt>
      <trkpt lat="44.36835" lon="5.4341">
        <ele>600.1</ele>
        <time>2019-06-02T14:38:41Z</time>
      </trkpt>
      <trkpt lat="44.36837" lon="5.43424">
        <ele>599.7</ele>
        <time>2019-06-02T14:38:57Z</time>
      </trkpt>
      <trkpt lat="44.36835" lon="5.43438">
        <ele>598.9</ele>
        <time>2019-06-02T14:39:06Z</time>
      </trkpt>
      <trkpt lat="44.36844" lon="5.43435">
        <ele>597.4</ele>
        <time>2019-06-02T14:39:55Z</time>
      </trkpt>
      <trkpt lat="44.36853" lon="5.43432">
        <ele>597.1</ele>
        <time>2019-06-02T14:40:15Z</time>
      </trkpt>
      <trkpt lat="44.36844" lon="5.43435">
        <ele>597.3</ele>
        <time>2019-06-02T14:40:55Z</time>
      </trkpt>
      <trkpt lat="44.36836" lon="5.43444">
        <ele>597.3</ele>
        <time>2019-06-02T14:41:05Z</time>
      </trkpt>
      <trkpt lat="44.36838" lon="5.43456">
        <ele>597</ele>
        <time>2019-06-02T14:41:13Z</time>
      </trkpt>
      <trkpt lat="44.36845" lon="5.43466">
        <ele>596.5</ele>
        <time>2019-06-02T14:41:23Z</time>
      </trkpt>
      <trkpt lat="44.36852" lon="5.43476">
        <ele>595.3</ele>
        <time>2019-06-02T14:41:32Z</time>
      </trkpt>
      <trkpt lat="44.3686" lon="5.43483">
        <ele>594.8</ele>
        <time>2019-06-02T14:41:40Z</time>
      </trkpt>
      <trkpt lat="44.36869" lon="5.43488">
        <ele>594.4</ele>
        <time>2019-06-02T14:41:48Z</time>
      </trkpt>
      <trkpt lat="44.36878" lon="5.43493">
        <ele>594.1</ele>
        <time>2019-06-02T14:41:56Z</time>
      </trkpt>
      <trkpt lat="44.36887" lon="5.43495">
        <ele>593.8</ele>
        <time>2019-06-02T14:42:04Z</time>
      </trkpt>
      <trkpt lat="44.36896" lon="5.43496">
        <ele>593.2</ele>
        <time>2019-06-02T14:42:13Z</time>
      </trkpt>
      <trkpt lat="44.36905" lon="5.43499">
        <ele>592.3</ele>
        <time>2019-06-02T14:42:37Z</time>
      </trkpt>
      <trkpt lat="44.36913" lon="5.43507">
        <ele>591.9</ele>
        <time>2019-06-02T14:42:45Z</time>
      </trkpt>
      <trkpt lat="44.36918" lon="5.43517">
        <ele>591.6</ele>
        <time>2019-06-02T14:42:54Z</time>
      </trkpt>
      <trkpt lat="44.36925" lon="5.43526">
        <ele>591.8</ele>
        <time>2019-06-02T14:43:03Z</time>
      </trkpt>
      <trkpt lat="44.36927" lon="5.43539">
        <ele>591.9</ele>
        <time>2019-06-02T14:43:11Z</time>
      </trkpt>
      <trkpt lat="44.36928" lon="5.43552">
        <ele>592.6</ele>
        <time>2019-06-02T14:43:20Z</time>
      </trkpt>
      <trkpt lat="44.3692" lon="5.43556">
        <ele>593</ele>
        <time>2019-06-02T14:43:28Z</time>
      </trkpt>
      <trkpt lat="44.36911" lon="5.4356">
        <ele>593.1</ele>
        <time>2019-06-02T14:43:35Z</time>
      </trkpt>
      <trkpt lat="44.36902" lon="5.43568">
        <ele>593.2</ele>
        <time>2019-06-02T14:43:42Z</time>
      </trkpt>
      <trkpt lat="44.36896" lon="5.43578">
        <ele>593.3</ele>
        <time>2019-06-02T14:43:49Z</time>
      </trkpt>
      <trkpt lat="44.36889" lon="5.43586">
        <ele>593.3</ele>
        <time>2019-06-02T14:43:56Z</time>
      </trkpt>
      <trkpt lat="44.36881" lon="5.43595">
        <ele>593.3</ele>
        <time>2019-06-02T14:44:04Z</time>
      </trkpt>
      <trkpt lat="44.36871" lon="5.43599">
        <ele>593.5</ele>
        <time>2019-06-02T14:44:11Z</time>
      </trkpt>
      <trkpt lat="44.36861" lon="5.43602">
        <ele>593.8</ele>
        <time>2019-06-02T14:44:19Z</time>
      </trkpt>
      <trkpt lat="44.36852" lon="5.43597">
        <ele>594</ele>
        <time>2019-06-02T14:44:27Z</time>
      </trkpt>
      <trkpt lat="44.36844" lon="5.43601">
        <ele>594.2</ele>
        <time>2019-06-02T14:44:34Z</time>
      </trkpt>
      <trkpt lat="44.36838" lon="5.43612">
        <ele>594.2</ele>
        <time>2019-06-02T14:44:42Z</time>
      </trkpt>
      <trkpt lat="44.3684" lon="5.43625">
        <ele>594.2</ele>
        <time>2019-06-02T14:45:00Z</time>
      </trkpt>
      <trkpt lat="44.36839" lon="5.43638">
        <ele>594.2</ele>
        <time>2019-06-02T14:45:09Z</time>
      </trkpt>
      <trkpt lat="44.36847" lon="5.43647">
        <ele>594.5</ele>
        <time>2019-06-02T14:45:17Z</time>
      </trkpt>
      <trkpt lat="44.36847" lon="5.4366">
        <ele>594.5</ele>
        <time>2019-06-02T14:45:30Z</time>
      </trkpt>
      <trkpt lat="44.3684" lon="5.43671">
        <ele>594.6</ele>
        <time>2019-06-02T14:45:38Z</time>
      </trkpt>
      <trkpt lat="44.36836" lon="5.43683">
        <ele>594.6</ele>
        <time>2019-06-02T14:45:47Z</time>
      </trkpt>
      <trkpt lat="44.36838" lon="5.43696">
        <ele>594.8</ele>
        <time>2019-06-02T14:46:01Z</time>
      </trkpt>
      <trkpt lat="44.36834" lon="5.43708">
        <ele>594.9</ele>
        <time>2019-06-02T14:46:16Z</time>
      </trkpt>
      <trkpt lat="44.3683" lon="5.43719">
        <ele>595</ele>
        <time>2019-06-02T14:46:31Z</time>
      </trkpt>
      <trkpt lat="44.36829" lon="5.43732">
        <ele>595.2</ele>
        <time>2019-06-02T14:46:52Z</time>
      </trkpt>
      <trkpt lat="44.36822" lon="5.43739">
        <ele>595.2</ele>
        <time>2019-06-02T14:47:40Z</time>
      </trkpt>
      <trkpt lat="44.36813" lon="5.43743">
        <ele>593.9</ele>
        <time>2019-06-02T14:48:43Z</time>
      </trkpt>
      <trkpt lat="44.3681" lon="5.43757">
        <ele>593.7</ele>
        <time>2019-06-02T14:49:12Z</time>
      </trkpt>
      <trkpt lat="44.36804" lon="5.43766">
        <ele>593.8</ele>
        <time>2019-06-02T14:49:21Z</time>
      </trkpt>
      <trkpt lat="44.36798" lon="5.43776">
        <ele>593.8</ele>
        <time>2019-06-02T14:49:30Z</time>
      </trkpt>
      <trkpt lat="44.36794" lon="5.43788">
        <ele>593.8</ele>
        <time>2019-06-02T14:49:39Z</time>
      </trkpt>
      <trkpt lat="44.36791" lon="5.43801">
        <ele>593.9</ele>
        <time>2019-06-02T14:49:49Z</time>
      </trkpt>
      <trkpt lat="44.36793" lon="5.43814">
        <ele>594</ele>
        <time>2019-06-02T14:49:58Z</time>
      </trkpt>
      <trkpt lat="44.36795" lon="5.43827">
        <ele>594.1</ele>
        <time>2019-06-02T14:50:07Z</time>
      </trkpt>
      <trkpt lat="44.36796" lon="5.43841">
        <ele>594.2</ele>
        <time>2019-06-02T14:50:17Z</time>
      </trkpt>
      <trkpt lat="44.368" lon="5.43852">
        <ele>594.5</ele>
        <time>2019-06-02T14:50:31Z</time>
      </trkpt>
      <trkpt lat="44.36805" lon="5.43863">
        <ele>594.6</ele>
        <time>2019-06-02T14:50:42Z</time>
      </trkpt>
      <trkpt lat="44.36812" lon="5.43872">
        <ele>594.5</ele>
        <time>2019-06-02T14:50:51Z</time>
      </trkpt>
      <trkpt lat="44.36818" lon="5.43883">
        <ele>594.6</ele>
        <time>2019-06-02T14:51:02Z</time>
      </trkpt>
      <trkpt lat="44.36823" lon="5.43894">
        <ele>594.7</ele>
        <time>2019-06-02T14:51:12Z</time>
      </trkpt>
      <trkpt lat="44.36828" lon="5.43905">
        <ele>594.8</ele>
        <time>2019-06-02T14:51:23Z</time>
      </trkpt>
      <trkpt lat="44.36834" lon="5.43915">
        <ele>595</ele>
        <time>2019-06-02T14:51:32Z</time>
      </trkpt>
      <trkpt lat="44.3684" lon="5.43925">
        <ele>595.2</ele>
        <time>2019-06-02T14:51:41Z</time>
      </trkpt>
      <trkpt lat="44.36847" lon="5.43934">
        <ele>595.2</ele>
        <time>2019-06-02T14:51:50Z</time>
      </trkpt>
      <trkpt lat="44.36853" lon="5.43944">
        <ele>595.4</ele>
        <time>2019-06-02T14:52:09Z</time>
      </trkpt>
      <trkpt lat="44.36857" lon="5.43956">
        <ele>595.7</ele>
        <time>2019-06-02T14:52:24Z</time>
      </trkpt>
      <trkpt lat="44.36864" lon="5.43966">
        <ele>595.6</ele>
        <time>2019-06-02T14:52:34Z</time>
      </trkpt>
      <trkpt lat="44.36866" lon="5.43979">
        <ele>595.5</ele>
        <time>2019-06-02T14:52:52Z</time>
      </trkpt>
      <trkpt lat="44.36869" lon="5.43991">
        <ele>595.4</ele>
        <time>2019-06-02T14:53:02Z</time>
      </trkpt>
      <trkpt lat="44.3687" lon="5.44004">
        <ele>595.3</ele>
        <time>2019-06-02T14:53:15Z</time>
      </trkpt>
      <trkpt lat="44.36871" lon="5.44017">
        <ele>595.3</ele>
        <time>2019-06-02T14:53:24Z</time>
      </trkpt>
      <trkpt lat="44.36871" lon="5.4403">
        <ele>595.3</ele>
        <time>2019-06-02T14:53:34Z</time>
      </trkpt>
      <trkpt lat="44.36868" lon="5.44042">
        <ele>595.3</ele>
        <time>2019-06-02T14:53:46Z</time>
      </trkpt>
      <trkpt lat="44.36867" lon="5.44055">
        <ele>595.1</ele>
        <time>2019-06-02T14:53:57Z</time>
      </trkpt>
      <trkpt lat="44.36859" lon="5.44063">
        <ele>595.2</ele>
        <time>2019-06-02T14:54:07Z</time>
      </trkpt>
      <trkpt lat="44.36853" lon="5.44073">
        <ele>595.3</ele>
        <time>2019-06-02T14:54:20Z</time>
      </trkpt>
      <trkpt lat="44.36849" lon="5.44085">
        <ele>595.5</ele>
        <time>2019-06-02T14:54:29Z</time>
      </trkpt>
      <trkpt lat="44.36843" lon="5.44096">
        <ele>595.4</ele>
        <time>2019-06-02T14:54:38Z</time>
      </trkpt>
      <trkpt lat="44.36844" lon="5.44109">
        <ele>595.5</ele>
        <time>2019-06-02T14:54:51Z</time>
      </trkpt>
      <trkpt lat="44.36847" lon="5.44122">
        <ele>595.5</ele>
        <time>2019-06-02T14:55:02Z</time>
      </trkpt>
      <trkpt lat="44.36844" lon="5.44134">
        <ele>595.7</ele>
        <time>2019-06-02T14:55:10Z</time>
      </trkpt>
      <trkpt lat="44.36839" lon="5.44146">
        <ele>596</ele>
        <time>2019-06-02T14:55:18Z</time>
      </trkpt>
      <trkpt lat="44.36833" lon="5.44158">
        <ele>596.6</ele>
        <time>2019-06-02T14:55:26Z</time>
      </trkpt>
      <trkpt lat="44.36828" lon="5.44168">
        <ele>597</ele>
        <time>2019-06-02T14:55:34Z</time>
      </trkpt>
      <trkpt lat="44.36823" lon="5.4418">
        <ele>597.2</ele>
        <time>2019-06-02T14:55:42Z</time>
      </trkpt>
      <trkpt lat="44.36819" lon="5.44193">
        <ele>597.3</ele>
        <time>2019-06-02T14:55:49Z</time>
      </trkpt>
      <trkpt lat="44.36814" lon="5.44205">
        <ele>597.3</ele>
        <time>2019-06-02T14:55:57Z</time>
      </trkpt>
      <trkpt lat="44.3681" lon="5.44217">
        <ele>597.4</ele>
        <time>2019-06-02T14:56:05Z</time>
      </trkpt>
      <trkpt lat="44.36805" lon="5.44229">
        <ele>597.3</ele>
        <time>2019-06-02T14:56:12Z</time>
      </trkpt>
      <trkpt lat="44.36801" lon="5.44242">
        <ele>597.3</ele>
        <time>2019-06-02T14:56:20Z</time>
      </trkpt>
      <trkpt lat="44.36798" lon="5.44254">
        <ele>597.3</ele>
        <time>2019-06-02T14:56:27Z</time>
      </trkpt>
      <trkpt lat="44.36793" lon="5.44266">
        <ele>597.4</ele>
        <time>2019-06-02T14:56:35Z</time>
      </trkpt>
      <trkpt lat="44.3679" lon="5.44279">
        <ele>597.6</ele>
        <time>2019-06-02T14:56:43Z</time>
      </trkpt>
      <trkpt lat="44.36784" lon="5.44289">
        <ele>597.5</ele>
        <time>2019-06-02T14:56:51Z</time>
      </trkpt>
      <trkpt lat="44.36779" lon="5.44301">
        <ele>597.4</ele>
        <time>2019-06-02T14:57:00Z</time>
      </trkpt>
      <trkpt lat="44.36778" lon="5.44313">
        <ele>597.3</ele>
        <time>2019-06-02T14:57:09Z</time>
      </trkpt>
      <trkpt lat="44.3678" lon="5.44326">
        <ele>597.3</ele>
        <time>2019-06-02T14:57:18Z</time>
      </trkpt>
      <trkpt lat="44.3678" lon="5.44339">
        <ele>597.9</ele>
        <time>2019-06-02T14:57:27Z</time>
      </trkpt>
      <trkpt lat="44.36781" lon="5.44352">
        <ele>597.6</ele>
        <time>2019-06-02T14:57:40Z</time>
      </trkpt>
      <trkpt lat="44.36782" lon="5.44366">
        <ele>597.6</ele>
        <time>2019-06-02T14:57:50Z</time>
      </trkpt>
      <trkpt lat="44.36785" lon="5.44378">
        <ele>597.6</ele>
        <time>2019-06-02T14:57:59Z</time>
      </trkpt>
      <trkpt lat="44.36791" lon="5.44387">
        <ele>597.6</ele>
        <time>2019-06-02T14:58:07Z</time>
      </trkpt>
      <trkpt lat="44.36797" lon="5.444">
        <ele>597.7</ele>
        <time>2019-06-02T14:58:16Z</time>
      </trkpt>
      <trkpt lat="44.36803" lon="5.44411">
        <ele>597.9</ele>
        <time>2019-06-02T14:58:24Z</time>
      </trkpt>
      <trkpt lat="44.36807" lon="5.44422">
        <ele>598</ele>
        <time>2019-06-02T14:58:32Z</time>
      </trkpt>
      <trkpt lat="44.36812" lon="5.44433">
        <ele>598.1</ele>
        <time>2019-06-02T14:58:40Z</time>
      </trkpt>
      <trkpt lat="44.36817" lon="5.44445">
        <ele>597.9</ele>
        <time>2019-06-02T14:58:49Z</time>
      </trkpt>
      <trkpt lat="44.36822" lon="5.44456">
        <ele>598.2</ele>
        <time>2019-06-02T14:58:58Z</time>
      </trkpt>
      <trkpt lat="44.36825" lon="5.44468">
        <ele>598.5</ele>
        <time>2019-06-02T14:59:10Z</time>
      </trkpt>
      <trkpt lat="44.36826" lon="5.4448">
        <ele>598.7</ele>
        <time>2019-06-02T14:59:18Z</time>
      </trkpt>
      <trkpt lat="44.36827" lon="5.44493">
        <ele>598.9</ele>
        <time>2019-06-02T14:59:26Z</time>
      </trkpt>
      <trkpt lat="44.36826" lon="5.44506">
        <ele>599</ele>
        <time>2019-06-02T14:59:35Z</time>
      </trkpt>
      <trkpt lat="44.36828" lon="5.44519">
        <ele>599.1</ele>
        <time>2019-06-02T14:59:45Z</time>
      </trkpt>
      <trkpt lat="44.3683" lon="5.44532">
        <ele>599.3</ele>
        <time>2019-06-02T14:59:53Z</time>
      </trkpt>
      <trkpt lat="44.36833" lon="5.44545">
        <ele>599.5</ele>
        <time>2019-06-02T15:00:03Z</time>
      </trkpt>
      <trkpt lat="44.36836" lon="5.44558">
        <ele>599.8</ele>
        <time>2019-06-02T15:00:12Z</time>
      </trkpt>
      <trkpt lat="44.36836" lon="5.44571">
        <ele>600.1</ele>
        <time>2019-06-02T15:00:20Z</time>
      </trkpt>
      <trkpt lat="44.36841" lon="5.44583">
        <ele>600.5</ele>
        <time>2019-06-02T15:00:28Z</time>
      </trkpt>
      <trkpt lat="44.36847" lon="5.44593">
        <ele>600.9</ele>
        <time>2019-06-02T15:00:41Z</time>
      </trkpt>
      <trkpt lat="44.36852" lon="5.44606">
        <ele>601.1</ele>
        <time>2019-06-02T15:00:50Z</time>
      </trkpt>
      <trkpt lat="44.36856" lon="5.44617">
        <ele>601.2</ele>
        <time>2019-06-02T15:00:58Z</time>
      </trkpt>
      <trkpt lat="44.36861" lon="5.44628">
        <ele>601.3</ele>
        <time>2019-06-02T15:01:07Z</time>
      </trkpt>
      <trkpt lat="44.36868" lon="5.44637">
        <ele>601.3</ele>
        <time>2019-06-02T15:01:17Z</time>
      </trkpt>
      <trkpt lat="44.36874" lon="5.44649">
        <ele>601.5</ele>
        <time>2019-06-02T15:01:26Z</time>
      </trkpt>
      <trkpt lat="44.36879" lon="5.44659">
        <ele>601.6</ele>
        <time>2019-06-02T15:01:33Z</time>
      </trkpt>
      <trkpt lat="44.36885" lon="5.4467">
        <ele>601.7</ele>
        <time>2019-06-02T15:01:41Z</time>
      </trkpt>
      <trkpt lat="44.36889" lon="5.44682">
        <ele>601.7</ele>
        <time>2019-06-02T15:01:49Z</time>
      </trkpt>
      <trkpt lat="44.36894" lon="5.44694">
        <ele>601.8</ele>
        <time>2019-06-02T15:01:57Z</time>
      </trkpt>
      <trkpt lat="44.36897" lon="5.44707">
        <ele>601.8</ele>
        <time>2019-06-02T15:02:05Z</time>
      </trkpt>
      <trkpt lat="44.36901" lon="5.44719">
        <ele>601.8</ele>
        <time>2019-06-02T15:02:13Z</time>
      </trkpt>
      <trkpt lat="44.36902" lon="5.44732">
        <ele>601.8</ele>
        <time>2019-06-02T15:02:22Z</time>
      </trkpt>
      <trkpt lat="44.369" lon="5.44745">
        <ele>602.1</ele>
        <time>2019-06-02T15:02:30Z</time>
      </trkpt>
      <trkpt lat="44.369" lon="5.44759">
        <ele>602.3</ele>
        <time>2019-06-02T15:02:38Z</time>
      </trkpt>
      <trkpt lat="44.36902" lon="5.44773">
        <ele>602.4</ele>
        <time>2019-06-02T15:02:46Z</time>
      </trkpt>
      <trkpt lat="44.36905" lon="5.44784">
        <ele>602.5</ele>
        <time>2019-06-02T15:02:54Z</time>
      </trkpt>
      <trkpt lat="44.3691" lon="5.44797">
        <ele>602.5</ele>
        <time>2019-06-02T15:03:02Z</time>
      </trkpt>
      <trkpt lat="44.36916" lon="5.44806">
        <ele>602.5</ele>
        <time>2019-06-02T15:03:09Z</time>
      </trkpt>
      <trkpt lat="44.36923" lon="5.44816">
        <ele>602.4</ele>
        <time>2019-06-02T15:03:16Z</time>
      </trkpt>
      <trkpt lat="44.36928" lon="5.44828">
        <ele>602.5</ele>
        <time>2019-06-02T15:03:21Z</time>
      </trkpt>
      <trkpt lat="44.36933" lon="5.4484">
        <ele>602.7</ele>
        <time>2019-06-02T15:03:25Z</time>
      </trkpt>
      <trkpt lat="44.36939" lon="5.44852">
        <ele>603.2</ele>
        <time>2019-06-02T15:03:32Z</time>
      </trkpt>
      <trkpt lat="44.36944" lon="5.44865">
        <ele>603.8</ele>
        <time>2019-06-02T15:03:39Z</time>
      </trkpt>
      <trkpt lat="44.36948" lon="5.44875">
        <ele>604.1</ele>
        <time>2019-06-02T15:03:45Z</time>
      </trkpt>
      <trkpt lat="44.36954" lon="5.44886">
        <ele>604.3</ele>
        <time>2019-06-02T15:03:51Z</time>
      </trkpt>
      <trkpt lat="44.36962" lon="5.44894">
        <ele>604.5</ele>
        <time>2019-06-02T15:03:58Z</time>
      </trkpt>
      <trkpt lat="44.36969" lon="5.44902">
        <ele>605</ele>
        <time>2019-06-02T15:04:05Z</time>
      </trkpt>
      <trkpt lat="44.36976" lon="5.44913">
        <ele>605</ele>
        <time>2019-06-02T15:04:12Z</time>
      </trkpt>
      <trkpt lat="44.3698" lon="5.44924">
        <ele>605.9</ele>
        <time>2019-06-02T15:04:20Z</time>
      </trkpt>
      <trkpt lat="44.36986" lon="5.44935">
        <ele>606.9</ele>
        <time>2019-06-02T15:04:28Z</time>
      </trkpt>
      <trkpt lat="44.36992" lon="5.44948">
        <ele>608</ele>
        <time>2019-06-02T15:04:36Z</time>
      </trkpt>
      <trkpt lat="44.36998" lon="5.44959">
        <ele>608.6</ele>
        <time>2019-06-02T15:04:42Z</time>
      </trkpt>
      <trkpt lat="44.37004" lon="5.44969">
        <ele>609.2</ele>
        <time>2019-06-02T15:04:49Z</time>
      </trkpt>
      <trkpt lat="44.37011" lon="5.44979">
        <ele>609.5</ele>
        <time>2019-06-02T15:04:56Z</time>
      </trkpt>
      <trkpt lat="44.3702" lon="5.44987">
        <ele>609.8</ele>
        <time>2019-06-02T15:05:03Z</time>
      </trkpt>
      <trkpt lat="44.37027" lon="5.44995">
        <ele>609.9</ele>
        <time>2019-06-02T15:05:09Z</time>
      </trkpt>
      <trkpt lat="44.37034" lon="5.45005">
        <ele>610</ele>
        <time>2019-06-02T15:05:15Z</time>
      </trkpt>
      <trkpt lat="44.3704" lon="5.45015">
        <ele>610</ele>
        <time>2019-06-02T15:05:21Z</time>
      </trkpt>
      <trkpt lat="44.37045" lon="5.45025">
        <ele>610.1</ele>
        <time>2019-06-02T15:05:27Z</time>
      </trkpt>
      <trkpt lat="44.37052" lon="5.45034">
        <ele>610.2</ele>
        <time>2019-06-02T15:05:33Z</time>
      </trkpt>
      <trkpt lat="44.37059" lon="5.45042">
        <ele>610.3</ele>
        <time>2019-06-02T15:05:39Z</time>
      </trkpt>
      <trkpt lat="44.37066" lon="5.4505">
        <ele>610.4</ele>
        <time>2019-06-02T15:05:45Z</time>
      </trkpt>
      <trkpt lat="44.37073" lon="5.45061">
        <ele>610.6</ele>
        <time>2019-06-02T15:05:52Z</time>
      </trkpt>
      <trkpt lat="44.37079" lon="5.45071">
        <ele>610.7</ele>
        <time>2019-06-02T15:05:58Z</time>
      </trkpt>
      <trkpt lat="44.37085" lon="5.45081">
        <ele>610.8</ele>
        <time>2019-06-02T15:06:05Z</time>
      </trkpt>
      <trkpt lat="44.37092" lon="5.45092">
        <ele>610.8</ele>
        <time>2019-06-02T15:06:12Z</time>
      </trkpt>
      <trkpt lat="44.37098" lon="5.45104">
        <ele>611.2</ele>
        <time>2019-06-02T15:06:19Z</time>
      </trkpt>
      <trkpt lat="44.37102" lon="5.45115">
        <ele>611.5</ele>
        <time>2019-06-02T15:06:25Z</time>
      </trkpt>
      <trkpt lat="44.37108" lon="5.45126">
        <ele>611.6</ele>
        <time>2019-06-02T15:06:31Z</time>
      </trkpt>
      <trkpt lat="44.37113" lon="5.45137">
        <ele>611.7</ele>
        <time>2019-06-02T15:06:37Z</time>
      </trkpt>
      <trkpt lat="44.37118" lon="5.45148">
        <ele>611.8</ele>
        <time>2019-06-02T15:06:43Z</time>
      </trkpt>
      <trkpt lat="44.37123" lon="5.45159">
        <ele>611.9</ele>
        <time>2019-06-02T15:06:49Z</time>
      </trkpt>
      <trkpt lat="44.37128" lon="5.4517">
        <ele>612</ele>
        <time>2019-06-02T15:06:55Z</time>
      </trkpt>
      <trkpt lat="44.37133" lon="5.45182">
        <ele>612</ele>
        <time>2019-06-02T15:07:01Z</time>
      </trkpt>
      <trkpt lat="44.37138" lon="5.45193">
        <ele>611.9</ele>
        <time>2019-06-02T15:07:07Z</time>
      </trkpt>
      <trkpt lat="44.37143" lon="5.45204">
        <ele>611.8</ele>
        <time>2019-06-02T15:07:13Z</time>
      </trkpt>
      <trkpt lat="44.37147" lon="5.45215">
        <ele>611.8</ele>
        <time>2019-06-02T15:07:19Z</time>
      </trkpt>
      <trkpt lat="44.37152" lon="5.45227">
        <ele>611.7</ele>
        <time>2019-06-02T15:07:25Z</time>
      </trkpt>
      <trkpt lat="44.37158" lon="5.45239">
        <ele>611.6</ele>
        <time>2019-06-02T15:07:32Z</time>
      </trkpt>
      <trkpt lat="44.37163" lon="5.45252">
        <ele>611.6</ele>
        <time>2019-06-02T15:07:39Z</time>
      </trkpt>
      <trkpt lat="44.37168" lon="5.45264">
        <ele>611.5</ele>
        <time>2019-06-02T15:07:46Z</time>
      </trkpt>
      <trkpt lat="44.37174" lon="5.45277">
        <ele>611.4</ele>
        <time>2019-06-02T15:07:53Z</time>
      </trkpt>
      <trkpt lat="44.37178" lon="5.45288">
        <ele>611.3</ele>
        <time>2019-06-02T15:07:59Z</time>
      </trkpt>
      <trkpt lat="44.37183" lon="5.45299">
        <ele>611.2</ele>
        <time>2019-06-02T15:08:05Z</time>
      </trkpt>
      <trkpt lat="44.37187" lon="5.45311">
        <ele>611.2</ele>
        <time>2019-06-02T15:08:11Z</time>
      </trkpt>
      <trkpt lat="44.37192" lon="5.45323">
        <ele>611.4</ele>
        <time>2019-06-02T15:08:17Z</time>
      </trkpt>
      <trkpt lat="44.37197" lon="5.45336">
        <ele>611.5</ele>
        <time>2019-06-02T15:08:24Z</time>
      </trkpt>
      <trkpt lat="44.37201" lon="5.45348">
        <ele>611.7</ele>
        <time>2019-06-02T15:08:30Z</time>
      </trkpt>
      <trkpt lat="44.37206" lon="5.45359">
        <ele>611.9</ele>
        <time>2019-06-02T15:08:36Z</time>
      </trkpt>
      <trkpt lat="44.37211" lon="5.45369">
        <ele>612.1</ele>
        <time>2019-06-02T15:08:42Z</time>
      </trkpt>
      <trkpt lat="44.37217" lon="5.45381">
        <ele>612.3</ele>
        <time>2019-06-02T15:08:49Z</time>
      </trkpt>
      <trkpt lat="44.37225" lon="5.4539">
        <ele>612.3</ele>
        <time>2019-06-02T15:08:56Z</time>
      </trkpt>
      <trkpt lat="44.37233" lon="5.45395">
        <ele>612.4</ele>
        <time>2019-06-02T15:09:04Z</time>
      </trkpt>
      <trkpt lat="44.37243" lon="5.45397">
        <ele>612.5</ele>
        <time>2019-06-02T15:09:13Z</time>
      </trkpt>
      <trkpt lat="44.37252" lon="5.45398">
        <ele>612.5</ele>
        <time>2019-06-02T15:09:20Z</time>
      </trkpt>
      <trkpt lat="44.37261" lon="5.45397">
        <ele>612.5</ele>
        <time>2019-06-02T15:09:27Z</time>
      </trkpt>
      <trkpt lat="44.37271" lon="5.45397">
        <ele>613.4</ele>
        <time>2019-06-02T15:09:34Z</time>
      </trkpt>
      <trkpt lat="44.3728" lon="5.45397">
        <ele>614</ele>
        <time>2019-06-02T15:09:41Z</time>
      </trkpt>
      <trkpt lat="44.37289" lon="5.45399">
        <ele>614.3</ele>
        <time>2019-06-02T15:09:48Z</time>
      </trkpt>
      <trkpt lat="44.37299" lon="5.45401">
        <ele>614.7</ele>
        <time>2019-06-02T15:09:56Z</time>
      </trkpt>
      <trkpt lat="44.37309" lon="5.45404">
        <ele>614.9</ele>
        <time>2019-06-02T15:10:03Z</time>
      </trkpt>
      <trkpt lat="44.37319" lon="5.45407">
        <ele>615.2</ele>
        <time>2019-06-02T15:10:10Z</time>
      </trkpt>
      <trkpt lat="44.37329" lon="5.4541">
        <ele>615.5</ele>
        <time>2019-06-02T15:10:17Z</time>
      </trkpt>
      <trkpt lat="44.37337" lon="5.45416">
        <ele>615.8</ele>
        <time>2019-06-02T15:10:23Z</time>
      </trkpt>
      <trkpt lat="44.37344" lon="5.45425">
        <ele>616.3</ele>
        <time>2019-06-02T15:10:29Z</time>
      </trkpt>
      <trkpt lat="44.37352" lon="5.45434">
        <ele>616.8</ele>
        <time>2019-06-02T15:10:35Z</time>
      </trkpt>
      <trkpt lat="44.37361" lon="5.45442">
        <ele>617.3</ele>
        <time>2019-06-02T15:10:41Z</time>
      </trkpt>
      <trkpt lat="44.37369" lon="5.45449">
        <ele>617.7</ele>
        <time>2019-06-02T15:10:47Z</time>
      </trkpt>
      <trkpt lat="44.37377" lon="5.45457">
        <ele>618</ele>
        <time>2019-06-02T15:10:53Z</time>
      </trkpt>
      <trkpt lat="44.37384" lon="5.45464">
        <ele>618.2</ele>
        <time>2019-06-02T15:10:59Z</time>
      </trkpt>
      <trkpt lat="44.37392" lon="5.45472">
        <ele>618.5</ele>
        <time>2019-06-02T15:11:05Z</time>
      </trkpt>
      <trkpt lat="44.37401" lon="5.4548">
        <ele>618.8</ele>
        <time>2019-06-02T15:11:12Z</time>
      </trkpt>
      <trkpt lat="44.37408" lon="5.45488">
        <ele>619.1</ele>
        <time>2019-06-02T15:11:18Z</time>
      </trkpt>
      <trkpt lat="44.37416" lon="5.45494">
        <ele>619.4</ele>
        <time>2019-06-02T15:11:24Z</time>
      </trkpt>
      <trkpt lat="44.37424" lon="5.455">
        <ele>619.8</ele>
        <time>2019-06-02T15:11:30Z</time>
      </trkpt>
      <trkpt lat="44.37433" lon="5.45506">
        <ele>620.3</ele>
        <time>2019-06-02T15:11:36Z</time>
      </trkpt>
      <trkpt lat="44.37441" lon="5.45511">
        <ele>620.9</ele>
        <time>2019-06-02T15:11:42Z</time>
      </trkpt>
      <trkpt lat="44.3745" lon="5.45517">
        <ele>621.4</ele>
        <time>2019-06-02T15:11:48Z</time>
      </trkpt>
      <trkpt lat="44.37458" lon="5.45522">
        <ele>621.7</ele>
        <time>2019-06-02T15:11:54Z</time>
      </trkpt>
      <trkpt lat="44.37466" lon="5.45532">
        <ele>622.2</ele>
        <time>2019-06-02T15:12:01Z</time>
      </trkpt>
      <trkpt lat="44.37472" lon="5.45542">
        <ele>622.4</ele>
        <time>2019-06-02T15:12:07Z</time>
      </trkpt>
      <trkpt lat="44.37475" lon="5.45555">
        <ele>622.6</ele>
        <time>2019-06-02T15:12:14Z</time>
      </trkpt>
      <trkpt lat="44.37469" lon="5.45566">
        <ele>622.7</ele>
        <time>2019-06-02T15:12:21Z</time>
      </trkpt>
      <trkpt lat="44.37462" lon="5.45576">
        <ele>622.6</ele>
        <time>2019-06-02T15:12:28Z</time>
      </trkpt>
      <trkpt lat="44.37457" lon="5.45587">
        <ele>622.3</ele>
        <time>2019-06-02T15:12:35Z</time>
      </trkpt>
      <trkpt lat="44.37453" lon="5.456">
        <ele>621.9</ele>
        <time>2019-06-02T15:12:42Z</time>
      </trkpt>
      <trkpt lat="44.37449" lon="5.45613">
        <ele>621.5</ele>
        <time>2019-06-02T15:12:49Z</time>
      </trkpt>
      <trkpt lat="44.37446" lon="5.45625">
        <ele>621.3</ele>
        <time>2019-06-02T15:12:55Z</time>
      </trkpt>
      <trkpt lat="44.37442" lon="5.45637">
        <ele>621.1</ele>
        <time>2019-06-02T15:13:01Z</time>
      </trkpt>
      <trkpt lat="44.37439" lon="5.4565">
        <ele>621</ele>
        <time>2019-06-02T15:13:07Z</time>
      </trkpt>
      <trkpt lat="44.37435" lon="5.45663">
        <ele>620.9</ele>
        <time>2019-06-02T15:13:14Z</time>
      </trkpt>
      <trkpt lat="44.37431" lon="5.45675">
        <ele>620.8</ele>
        <time>2019-06-02T15:13:21Z</time>
      </trkpt>
      <trkpt lat="44.37427" lon="5.45688">
        <ele>620.8</ele>
        <time>2019-06-02T15:13:28Z</time>
      </trkpt>
      <trkpt lat="44.37422" lon="5.45701">
        <ele>620.8</ele>
        <time>2019-06-02T15:13:35Z</time>
      </trkpt>
      <trkpt lat="44.37417" lon="5.45712">
        <ele>620.7</ele>
        <time>2019-06-02T15:13:41Z</time>
      </trkpt>
      <trkpt lat="44.37412" lon="5.45724">
        <ele>620.6</ele>
        <time>2019-06-02T15:13:48Z</time>
      </trkpt>
      <trkpt lat="44.37406" lon="5.45734">
        <ele>620.4</ele>
        <time>2019-06-02T15:13:54Z</time>
      </trkpt>
      <trkpt lat="44.37399" lon="5.45744">
        <ele>620.3</ele>
        <time>2019-06-02T15:14:00Z</time>
      </trkpt>
      <trkpt lat="44.37393" lon="5.45753">
        <ele>620.2</ele>
        <time>2019-06-02T15:14:06Z</time>
      </trkpt>
      <trkpt lat="44.37384" lon="5.45762">
        <ele>620.1</ele>
        <time>2019-06-02T15:14:13Z</time>
      </trkpt>
      <trkpt lat="44.37375" lon="5.45768">
        <ele>620.1</ele>
        <time>2019-06-02T15:14:20Z</time>
      </trkpt>
      <trkpt lat="44.37365" lon="5.45771">
        <ele>620</ele>
        <time>2019-06-02T15:14:27Z</time>
      </trkpt>
      <trkpt lat="44.37355" lon="5.45773">
        <ele>619.9</ele>
        <time>2019-06-02T15:14:34Z</time>
      </trkpt>
      <trkpt lat="44.37346" lon="5.45775">
        <ele>619.9</ele>
        <time>2019-06-02T15:14:40Z</time>
      </trkpt>
      <trkpt lat="44.37337" lon="5.45778">
        <ele>619.9</ele>
        <time>2019-06-02T15:14:46Z</time>
      </trkpt>
      <trkpt lat="44.37328" lon="5.45782">
        <ele>619.9</ele>
        <time>2019-06-02T15:14:53Z</time>
      </trkpt>
      <trkpt lat="44.37319" lon="5.4579">
        <ele>620</ele>
        <time>2019-06-02T15:15:00Z</time>
      </trkpt>
      <trkpt lat="44.37311" lon="5.45799">
        <ele>620.4</ele>
        <time>2019-06-02T15:15:06Z</time>
      </trkpt>
      <trkpt lat="44.37311" lon="5.45814">
        <ele>620.8</ele>
        <time>2019-06-02T15:15:13Z</time>
      </trkpt>
      <trkpt lat="44.3732" lon="5.45821">
        <ele>621.7</ele>
        <time>2019-06-02T15:15:20Z</time>
      </trkpt>
      <trkpt lat="44.37329" lon="5.45827">
        <ele>622.5</ele>
        <time>2019-06-02T15:15:27Z</time>
      </trkpt>
      <trkpt lat="44.37337" lon="5.45835">
        <ele>622.9</ele>
        <time>2019-06-02T15:15:34Z</time>
      </trkpt>
      <trkpt lat="44.37347" lon="5.45841">
        <ele>623.3</ele>
        <time>2019-06-02T15:15:41Z</time>
      </trkpt>
      <trkpt lat="44.37356" lon="5.45846">
        <ele>624</ele>
        <time>2019-06-02T15:15:48Z</time>
      </trkpt>
      <trkpt lat="44.37366" lon="5.4585">
        <ele>624.8</ele>
        <time>2019-06-02T15:15:55Z</time>
      </trkpt>
      <trkpt lat="44.37375" lon="5.45854">
        <ele>625.7</ele>
        <time>2019-06-02T15:16:02Z</time>
      </trkpt>
      <trkpt lat="44.37385" lon="5.45857">
        <ele>626.2</ele>
        <time>2019-06-02T15:16:09Z</time>
      </trkpt>
      <trkpt lat="44.37395" lon="5.4586">
        <ele>626.7</ele>
        <time>2019-06-02T15:16:16Z</time>
      </trkpt>
      <trkpt lat="44.37404" lon="5.45865">
        <ele>627.3</ele>
        <time>2019-06-02T15:16:23Z</time>
      </trkpt>
      <trkpt lat="44.37414" lon="5.45868">
        <ele>627.9</ele>
        <time>2019-06-02T15:16:30Z</time>
      </trkpt>
      <trkpt lat="44.37423" lon="5.45873">
        <ele>628.3</ele>
        <time>2019-06-02T15:16:37Z</time>
      </trkpt>
      <trkpt lat="44.37432" lon="5.45879">
        <ele>628.9</ele>
        <time>2019-06-02T15:16:44Z</time>
      </trkpt>
      <trkpt lat="44.3744" lon="5.45887">
        <ele>629.3</ele>
        <time>2019-06-02T15:16:50Z</time>
      </trkpt>
      <trkpt lat="44.37447" lon="5.45895">
        <ele>629.6</ele>
        <time>2019-06-02T15:16:56Z</time>
      </trkpt>
      <trkpt lat="44.37455" lon="5.45903">
        <ele>630</ele>
        <time>2019-06-02T15:17:03Z</time>
      </trkpt>
      <trkpt lat="44.37465" lon="5.45908">
        <ele>630.5</ele>
        <time>2019-06-02T15:17:10Z</time>
      </trkpt>
      <trkpt lat="44.37473" lon="5.45915">
        <ele>631</ele>
        <time>2019-06-02T15:17:17Z</time>
      </trkpt>
      <trkpt lat="44.37481" lon="5.45923">
        <ele>631.7</ele>
        <time>2019-06-02T15:17:24Z</time>
      </trkpt>
      <trkpt lat="44.37489" lon="5.45931">
        <ele>632.2</ele>
        <time>2019-06-02T15:17:31Z</time>
      </trkpt>
      <trkpt lat="44.37496" lon="5.45939">
        <ele>632.7</ele>
        <time>2019-06-02T15:17:37Z</time>
      </trkpt>
      <trkpt lat="44.37504" lon="5.45947">
        <ele>633.2</ele>
        <time>2019-06-02T15:17:44Z</time>
      </trkpt>
      <trkpt lat="44.37513" lon="5.45952">
        <ele>633.8</ele>
        <time>2019-06-02T15:17:51Z</time>
      </trkpt>
      <trkpt lat="44.37522" lon="5.4596">
        <ele>634.1</ele>
        <time>2019-06-02T15:17:58Z</time>
      </trkpt>
      <trkpt lat="44.37528" lon="5.45969">
        <ele>634.3</ele>
        <time>2019-06-02T15:18:05Z</time>
      </trkpt>
      <trkpt lat="44.37531" lon="5.45983">
        <ele>634.4</ele>
        <time>2019-06-02T15:18:12Z</time>
      </trkpt>
      <trkpt lat="44.37535" lon="5.45996">
        <ele>634.5</ele>
        <time>2019-06-02T15:18:19Z</time>
      </trkpt>
      <trkpt lat="44.37543" lon="5.46006">
        <ele>634.5</ele>
        <time>2019-06-02T15:18:26Z</time>
      </trkpt>
      <trkpt lat="44.37552" lon="5.46012">
        <ele>634.2</ele>
        <time>2019-06-02T15:18:33Z</time>
      </trkpt>
      <trkpt lat="44.37562" lon="5.46018">
        <ele>634</ele>
        <time>2019-06-02T15:18:40Z</time>
      </trkpt>
      <trkpt lat="44.37571" lon="5.46023">
        <ele>633.8</ele>
        <time>2019-06-02T15:18:47Z</time>
      </trkpt>
      <trkpt lat="44.3758" lon="5.46028">
        <ele>633.8</ele>
        <time>2019-06-02T15:18:53Z</time>
      </trkpt>
      <trkpt lat="44.37589" lon="5.46033">
        <ele>633.7</ele>
        <time>2019-06-02T15:19:00Z</time>
      </trkpt>
      <trkpt lat="44.37598" lon="5.46038">
        <ele>633.7</ele>
        <time>2019-06-02T15:19:07Z</time>
      </trkpt>
      <trkpt lat="44.37608" lon="5.46042">
        <ele>633.5</ele>
        <time>2019-06-02T15:19:14Z</time>
      </trkpt>
      <trkpt lat="44.37618" lon="5.46047">
        <ele>633.6</ele>
        <time>2019-06-02T15:19:21Z</time>
      </trkpt>
      <trkpt lat="44.37625" lon="5.46054">
        <ele>633.8</ele>
        <time>2019-06-02T15:19:27Z</time>
      </trkpt>
      <trkpt lat="44.37633" lon="5.4606">
        <ele>634.2</ele>
        <time>2019-06-02T15:19:33Z</time>
      </trkpt>
      <trkpt lat="44.37642" lon="5.46068">
        <ele>634.5</ele>
        <time>2019-06-02T15:19:40Z</time>
      </trkpt>
      <trkpt lat="44.37649" lon="5.46076">
        <ele>634.7</ele>
        <time>2019-06-02T15:19:47Z</time>
      </trkpt>
      <trkpt lat="44.37656" lon="5.46087">
        <ele>634.7</ele>
        <time>2019-06-02T15:19:54Z</time>
      </trkpt>
      <trkpt lat="44.37664" lon="5.46094">
        <ele>634.4</ele>
        <time>2019-06-02T15:20:01Z</time>
      </trkpt>
      <trkpt lat="44.37674" lon="5.46098">
        <ele>634.2</ele>
        <time>2019-06-02T15:20:08Z</time>
      </trkpt>
      <trkpt lat="44.37684" lon="5.461">
        <ele>634.2</ele>
        <time>2019-06-02T15:20:15Z</time>
      </trkpt>
      <trkpt lat="44.37693" lon="5.46103">
        <ele>634.3</ele>
        <time>2019-06-02T15:20:22Z</time>
      </trkpt>
      <trkpt lat="44.37703" lon="5.46105">
        <ele>634.5</ele>
        <time>2019-06-02T15:20:29Z</time>
      </trkpt>
      <trkpt lat="44.37712" lon="5.46108">
        <ele>634.9</ele>
        <time>2019-06-02T15:20:36Z</time>
      </trkpt>
      <trkpt lat="44.37722" lon="5.46112">
        <ele>635.2</ele>
        <time>2019-06-02T15:20:43Z</time>
      </trkpt>
      <trkpt lat="44.37731" lon="5.46117">
        <ele>635.6</ele>
        <time>2019-06-02T15:20:50Z</time>
      </trkpt>
      <trkpt lat="44.3774" lon="5.46121">
        <ele>636.1</ele>
        <time>2019-06-02T15:20:57Z</time>
      </trkpt>
      <trkpt lat="44.37749" lon="5.46126">
        <ele>636.7</ele>
        <time>2019-06-02T15:21:04Z</time>
      </trkpt>
      <trkpt lat="44.37758" lon="5.46131">
        <ele>637.3</ele>
        <time>2019-06-02T15:21:11Z</time>
      </trkpt>
      <trkpt lat="44.37768" lon="5.46134">
        <ele>637.7</ele>
        <time>2019-06-02T15:21:18Z</time>
      </trkpt>
      <trkpt lat="44.37778" lon="5.46134">
        <ele>638.1</ele>
        <time>2019-06-02T15:21:25Z</time>
      </trkpt>
      <trkpt lat="44.37789" lon="5.46131">
        <ele>638.3</ele>
        <time>2019-06-02T15:21:32Z</time>
      </trkpt>
      <trkpt lat="44.37798" lon="5.46127">
        <ele>638.5</ele>
        <time>2019-06-02T15:21:39Z</time>
      </trkpt>
      <trkpt lat="44.37807" lon="5.46123">
        <ele>638.4</ele>
        <time>2019-06-02T15:21:46Z</time>
      </trkpt>
      <trkpt lat="44.37817" lon="5.46119">
        <ele>638.1</ele>
        <time>2019-06-02T15:21:53Z</time>
      </trkpt>
      <trkpt lat="44.37826" lon="5.46116">
        <ele>637.8</ele>
        <time>2019-06-02T15:22:00Z</time>
      </trkpt>
      <trkpt lat="44.37836" lon="5.46113">
        <ele>637.6</ele>
        <time>2019-06-02T15:22:07Z</time>
      </trkpt>
      <trkpt lat="44.37846" lon="5.46114">
        <ele>637.5</ele>
        <time>2019-06-02T15:22:14Z</time>
      </trkpt>
      <trkpt lat="44.37855" lon="5.46114">
        <ele>637.4</ele>
        <time>2019-06-02T15:22:21Z</time>
      </trkpt>
      <trkpt lat="44.37864" lon="5.46114">
        <ele>637.3</ele>
        <time>2019-06-02T15:22:28Z</time>
      </trkpt>
      <trkpt lat="44.37874" lon="5.46114">
        <ele>637.3</ele>
        <time>2019-06-02T15:22:35Z</time>
      </trkpt>
      <trkpt lat="44.37883" lon="5.46113">
        <ele>637.3</ele>
        <time>2019-06-02T15:22:41Z</time>
      </trkpt>
      <trkpt lat="44.37894" lon="5.46113">
        <ele>637.5</ele>
        <time>2019-06-02T15:22:48Z</time>
      </trkpt>
      <trkpt lat="44.37901" lon="5.46121">
        <ele>637.7</ele>
        <time>2019-06-02T15:22:56Z</time>
      </trkpt>
      <trkpt lat="44.37908" lon="5.4613">
        <ele>637.6</ele>
        <time>2019-06-02T15:23:03Z</time>
      </trkpt>
      <trkpt lat="44.37915" lon="5.46139">
        <ele>637.3</ele>
        <time>2019-06-02T15:23:10Z</time>
      </trkpt>
      <trkpt lat="44.3792" lon="5.4615">
        <ele>636.8</ele>
        <time>2019-06-02T15:23:19Z</time>
      </trkpt>
      <trkpt lat="44.37927" lon="5.4616">
        <ele>636.4</ele>
        <time>2019-06-02T15:23:26Z</time>
      </trkpt>
      <trkpt lat="44.37937" lon="5.46163">
        <ele>636.1</ele>
        <time>2019-06-02T15:23:33Z</time>
      </trkpt>
      <trkpt lat="44.37947" lon="5.46165">
        <ele>636.2</ele>
        <time>2019-06-02T15:23:40Z</time>
      </trkpt>
      <trkpt lat="44.37956" lon="5.46166">
        <ele>636.5</ele>
        <time>2019-06-02T15:23:46Z</time>
      </trkpt>
      <trkpt lat="44.37966" lon="5.46168">
        <ele>636.7</ele>
        <time>2019-06-02T15:23:52Z</time>
      </trkpt>
      <trkpt lat="44.37975" lon="5.4617">
        <ele>636.8</ele>
        <time>2019-06-02T15:23:59Z</time>
      </trkpt>
      <trkpt lat="44.37984" lon="5.46172">
        <ele>636.9</ele>
        <time>2019-06-02T15:24:05Z</time>
      </trkpt>
      <trkpt lat="44.37993" lon="5.46176">
        <ele>637</ele>
        <time>2019-06-02T15:24:11Z</time>
      </trkpt>
      <trkpt lat="44.38002" lon="5.46181">
        <ele>637.2</ele>
        <time>2019-06-02T15:24:18Z</time>
      </trkpt>
      <trkpt lat="44.38011" lon="5.46188">
        <ele>637.4</ele>
        <time>2019-06-02T15:24:25Z</time>
      </trkpt>
      <trkpt lat="44.38018" lon="5.46195">
        <ele>637.7</ele>
        <time>2019-06-02T15:24:33Z</time>
      </trkpt>
      <trkpt lat="44.38026" lon="5.46202">
        <ele>638</ele>
        <time>2019-06-02T15:24:40Z</time>
      </trkpt>
      <trkpt lat="44.38034" lon="5.4621">
        <ele>638.4</ele>
        <time>2019-06-02T15:24:47Z</time>
      </trkpt>
      <trkpt lat="44.38042" lon="5.46215">
        <ele>638.6</ele>
        <time>2019-06-02T15:24:53Z</time>
      </trkpt>
      <trkpt lat="44.38052" lon="5.4622">
        <ele>638.8</ele>
        <time>2019-06-02T15:25:00Z</time>
      </trkpt>
      <trkpt lat="44.38061" lon="5.46227">
        <ele>639</ele>
        <time>2019-06-02T15:25:06Z</time>
      </trkpt>
      <trkpt lat="44.38069" lon="5.46235">
        <ele>639.1</ele>
        <time>2019-06-02T15:25:12Z</time>
      </trkpt>
      <trkpt lat="44.38077" lon="5.46242">
        <ele>639.2</ele>
        <time>2019-06-02T15:25:18Z</time>
      </trkpt>
      <trkpt lat="44.38085" lon="5.46252">
        <ele>639.4</ele>
        <time>2019-06-02T15:25:25Z</time>
      </trkpt>
      <trkpt lat="44.38092" lon="5.4626">
        <ele>639.6</ele>
        <time>2019-06-02T15:25:31Z</time>
      </trkpt>
      <trkpt lat="44.38099" lon="5.4627">
        <ele>639.8</ele>
        <time>2019-06-02T15:25:38Z</time>
      </trkpt>
      <trkpt lat="44.38107" lon="5.46278">
        <ele>640</ele>
        <time>2019-06-02T15:25:45Z</time>
      </trkpt>
      <trkpt lat="44.38114" lon="5.46286">
        <ele>640.3</ele>
        <time>2019-06-02T15:25:52Z</time>
      </trkpt>
      <trkpt lat="44.38122" lon="5.46294">
        <ele>640.8</ele>
        <time>2019-06-02T15:25:59Z</time>
      </trkpt>
      <trkpt lat="44.3813" lon="5.46304">
        <ele>641.4</ele>
        <time>2019-06-02T15:26:06Z</time>
      </trkpt>
      <trkpt lat="44.38138" lon="5.46312">
        <ele>641.9</ele>
        <time>2019-06-02T15:26:12Z</time>
      </trkpt>
      <trkpt lat="44.38146" lon="5.46319">
        <ele>642.2</ele>
        <time>2019-06-02T15:26:18Z</time>
      </trkpt>
      <trkpt lat="44.38154" lon="5.46326">
        <ele>642.4</ele>
        <time>2019-06-02T15:26:24Z</time>
      </trkpt>
      <trkpt lat="44.38163" lon="5.46334">
        <ele>642.6</ele>
        <time>2019-06-02T15:26:31Z</time>
      </trkpt>
      <trkpt lat="44.38171" lon="5.46326">
        <ele>642.8</ele>
        <time>2019-06-02T15:26:41Z</time>
      </trkpt>
      <trkpt lat="44.38175" lon="5.46314">
        <ele>642.9</ele>
        <time>2019-06-02T15:26:49Z</time>
      </trkpt>
      <trkpt lat="44.3818" lon="5.46302">
        <ele>643</ele>
        <time>2019-06-02T15:26:57Z</time>
      </trkpt>
      <trkpt lat="44.38186" lon="5.46292">
        <ele>643.1</ele>
        <time>2019-06-02T15:27:05Z</time>
      </trkpt>
      <trkpt lat="44.38194" lon="5.46283">
        <ele>643.1</ele>
        <time>2019-06-02T15:27:12Z</time>
      </trkpt>
      <trkpt lat="44.38202" lon="5.46277">
        <ele>642.9</ele>
        <time>2019-06-02T15:27:18Z</time>
      </trkpt>
      <trkpt lat="44.38211" lon="5.46272">
        <ele>642.4</ele>
        <time>2019-06-02T15:27:29Z</time>
      </trkpt>
      <trkpt lat="44.38219" lon="5.46265">
        <ele>642.2</ele>
        <time>2019-06-02T15:27:38Z</time>
      </trkpt>
      <trkpt lat="44.38224" lon="5.46254">
        <ele>642.1</ele>
        <time>2019-06-02T15:27:46Z</time>
      </trkpt>
      <trkpt lat="44.3823" lon="5.46245">
        <ele>642.1</ele>
        <time>2019-06-02T15:27:54Z</time>
      </trkpt>
      <trkpt lat="44.38239" lon="5.46245">
        <ele>642.2</ele>
        <time>2019-06-02T15:28:15Z</time>
      </trkpt>
      <trkpt lat="44.38237" lon="5.46232">
        <ele>642</ele>
        <time>2019-06-02T15:30:12Z</time>
      </trkpt>
      <trkpt lat="44.38242" lon="5.46221">
        <ele>642.1</ele>
        <time>2019-06-02T15:30:19Z</time>
      </trkpt>
      <trkpt lat="44.38249" lon="5.4621">
        <ele>642</ele>
        <time>2019-06-02T15:30:27Z</time>
      </trkpt>
      <trkpt lat="44.38253" lon="5.46197">
        <ele>641.8</ele>
        <time>2019-06-02T15:30:35Z</time>
      </trkpt>
      <trkpt lat="44.38253" lon="5.46183">
        <ele>641.7</ele>
        <time>2019-06-02T15:30:43Z</time>
      </trkpt>
      <trkpt lat="44.38255" lon="5.46169">
        <ele>641.6</ele>
        <time>2019-06-02T15:30:50Z</time>
      </trkpt>
      <trkpt lat="44.38256" lon="5.46156">
        <ele>641.6</ele>
        <time>2019-06-02T15:30:56Z</time>
      </trkpt>
      <trkpt lat="44.38256" lon="5.46143">
        <ele>641.5</ele>
        <time>2019-06-02T15:31:02Z</time>
      </trkpt>
      <trkpt lat="44.38256" lon="5.46129">
        <ele>641.5</ele>
        <time>2019-06-02T15:31:09Z</time>
      </trkpt>
      <trkpt lat="44.38257" lon="5.46116">
        <ele>641.8</ele>
        <time>2019-06-02T15:31:16Z</time>
      </trkpt>
      <trkpt lat="44.38261" lon="5.46103">
        <ele>642.4</ele>
        <time>2019-06-02T15:31:24Z</time>
      </trkpt>
      <trkpt lat="44.38267" lon="5.46091">
        <ele>642.8</ele>
        <time>2019-06-02T15:31:32Z</time>
      </trkpt>
      <trkpt lat="44.38272" lon="5.46081">
        <ele>643.6</ele>
        <time>2019-06-02T15:31:40Z</time>
      </trkpt>
      <trkpt lat="44.38278" lon="5.4607">
        <ele>644.3</ele>
        <time>2019-06-02T15:31:48Z</time>
      </trkpt>
      <trkpt lat="44.38283" lon="5.4606">
        <ele>645</ele>
        <time>2019-06-02T15:31:56Z</time>
      </trkpt>
      <trkpt lat="44.38289" lon="5.46051">
        <ele>645.7</ele>
        <time>2019-06-02T15:32:04Z</time>
      </trkpt>
      <trkpt lat="44.38294" lon="5.46039">
        <ele>646.3</ele>
        <time>2019-06-02T15:32:12Z</time>
      </trkpt>
      <trkpt lat="44.38298" lon="5.46027">
        <ele>647.5</ele>
        <time>2019-06-02T15:32:20Z</time>
      </trkpt>
      <trkpt lat="44.38301" lon="5.46014">
        <ele>648.4</ele>
        <time>2019-06-02T15:32:28Z</time>
      </trkpt>
      <trkpt lat="44.38304" lon="5.46002">
        <ele>649</ele>
        <time>2019-06-02T15:32:35Z</time>
      </trkpt>
      <trkpt lat="44.38307" lon="5.45989">
        <ele>649.9</ele>
        <time>2019-06-02T15:32:43Z</time>
      </trkpt>
      <trkpt lat="44.38311" lon="5.45976">
        <ele>650.8</ele>
        <time>2019-06-02T15:32:51Z</time>
      </trkpt>
      <trkpt lat="44.38314" lon="5.45964">
        <ele>651.4</ele>
        <time>2019-06-02T15:32:58Z</time>
      </trkpt>
      <trkpt lat="44.38319" lon="5.45951">
        <ele>651.9</ele>
        <time>2019-06-02T15:33:06Z</time>
      </trkpt>
      <trkpt lat="44.38323" lon="5.45939">
        <ele>652.2</ele>
        <time>2019-06-02T15:33:14Z</time>
      </trkpt>
      <trkpt lat="44.38326" lon="5.45927">
        <ele>652.8</ele>
        <time>2019-06-02T15:33:22Z</time>
      </trkpt>
      <trkpt lat="44.38321" lon="5.45917">
        <ele>653.2</ele>
        <time>2019-06-02T15:33:31Z</time>
      </trkpt>
      <trkpt lat="44.38314" lon="5.45909">
        <ele>652.9</ele>
        <time>2019-06-02T15:33:55Z</time>
      </trkpt>
      <trkpt lat="44.38311" lon="5.45912">
        <ele>652.5</ele>
        <time>2019-06-02T15:36:47Z</time>
      </trkpt>
    </trkseg>
  </trk>
</gpx>